[[{"header":{"parameterUnit":"m.s-1","parameterCategory":1,"la1":30.6,"la2":29.2853,"lo1":-89.7004,"lo2":-87.6739,"dy":0.0162,"dx":0.0183,"nx":112,"ny":82,"refTime":"2025-12-10T12:00:00:Z","depth":0,"parameterNumber":2,"parameterNumberName":"U-component_of_WINDS"},"data":[0.0,0.0,0.0,0.0,0.0,0.0,0.0,0.0,0.0,0.0,0.0,0.0,0.0,0.0,0.0,0.0,0.0,0.0,0.0,0.0,0.0,0.0,0.0,0.0,0.0,0.0,0.0,0.0,0.0,0.0,0.0,0.0,0.0,0.0,0.0,0.0,0.0,0.0,0.0,0.0,0.0,0.0,0.0,0.0,0.0,0.0,0.0,0.0,0.0,0.0,0.0,0.0,0.0,0.0,0.0,0.0,0.0,0.0,0.0,0.0,0.0,0.0,0.0,0.0,0.0,0.0,0.0,0.0,0.0,0.0,0.0,0.0,0.0,0.0,0.0,0.0,0.0,0.0,0.0,0.0,0.0,0.0,0.0,0.0,0.0,0.0,0.0,0.0,0.0,0.0,0.0,1.6736,1.835,1.8965,1.8157,1.803,1.7119,1.501,0.0,0.0,0.0,0.0,0.0,0.0,0.0,0.0,0.0,0.0,0.0,0.0,0.0,0.0,0.0,0.0,0.0,0.0,0.0,0.0,0.0,0.0,0.0,0.0,0.0,0.0,0.0,0.0,0.0,0.0,0.0,0.0,0.0,0.0,0.0,0.0,0.0,0.0,0.0,0.0,0.0,0.0,0.0,0.0,0.0,0.0,0.0,0.0,0.0,0.0,0.0,0.0,0.0,0.0,0.0,0.0,0.0,0.0,0.0,0.0,0.0,0.0,0.0,0.0,0.0,0.0,0.0,0.0,0.0,0.0,0.0,0.0,0.0,0.0,0.0,0.0,0.0,0.0,0.0,0.0,0.0,0.0,0.0,0.0,0.0,0.0,0.0,0.0,0.0,0.0,0.0,0.0,0.0,0.0,0.0,0.0,0.0,0.0,0.0,0.0,0.0,0.0,0.0,0.0,1.5128,1.7542,1.8701,1.9092,1.8549,1.8196,1.7236,1.5415,0.0,0.0,0.0,0.0,0.0,0.0,0.0,0.0,0.0,0.0,0.0,0.0,0.0,0.0,0.0,0.0,0.0,0.0,0.0,0.0,0.0,0.0,0.0,0.0,0.0,0.0,0.0,0.0,0.0,0.0,0.0,0.0,0.0,0.0,0.0,0.0,0.0,0.0,0.0,0.0,0.0,0.0,0.0,0.0,0.0,0.0,0.0,0.0,0.0,0.0,0.0,0.0,0.0,0.0,0.0,0.0,0.0,0.0,0.0,0.0,0.0,0.0,0.0,0.0,0.0,0.0,0.0,0.0,0.0,0.0,0.0,0.0,0.0,0.0,0.0,0.0,0.0,0.0,0.0,0.0,0.0,0.0,0.0,0.0,0.0,0.0,0.0,0.0,0.0,0.0,0.0,0.0,0.0,0.0,0.0,0.0,0.0,0.0,0.0,0.0,0.0,0.0,0.0,1.5537,1.6709,1.8801,1.96,1.9726,1.9043,1.8576,1.7493,1.5522,1.3967,0.0,0.0,0.0,0.0,0.0,0.0,0.0,0.0,0.0,0.0,0.0,0.0,0.0,0.0,0.0,0.0,0.0,0.0,0.0,0.0,0.0,0.0,0.0,0.0,0.0,0.0,0.0,0.0,0.0,0.0,0.0,0.0,0.0,0.0,0.0,0.0,0.0,0.0,0.0,0.0,0.0,0.0,0.0,0.0,0.0,0.0,0.0,0.0,0.0,0.0,0.0,0.0,0.0,0.0,0.0,0.0,0.0,0.0,0.0,0.0,0.0,0.0,0.0,0.0,0.0,0.0,0.0,0.0,0.0,0.0,0.0,0.0,0.0,0.0,0.0,0.0,0.0,0.0,0.0,0.0,0.0,0.0,0.0,0.0,0.0,0.0,0.0,0.0,0.0,0.0,0.0,0.0,0.0,0.0,0.0,0.0,0.0,0.0,0.0,0.0,0.0,0.0,1.7448,1.8252,1.9737,2.0322,2.0292,1.952,1.883,1.764,1.5684,1.418,0.0,0.0,0.0,0.0,0.0,0.0,0.0,0.0,0.0,0.0,0.0,0.0,0.0,0.0,0.0,0.0,0.0,0.0,0.0,0.0,0.0,0.0,0.0,0.0,0.0,0.0,0.0,0.0,0.0,0.0,0.0,0.0,0.0,0.0,0.0,0.0,0.0,0.0,0.0,0.0,0.0,0.0,0.0,0.0,0.0,0.0,0.0,0.0,0.0,0.0,0.0,0.0,0.0,0.0,0.0,0.0,0.0,0.0,0.0,0.0,0.0,0.0,0.0,0.0,0.0,0.0,0.0,0.0,0.0,0.0,0.0,0.0,0.0,0.0,0.0,0.0,0.0,0.0,0.0,0.0,0.0,0.0,0.0,0.0,0.0,0.0,0.0,0.0,0.0,0.0,0.0,0.0,0.0,0.0,0.0,0.0,0.0,0.0,0.0,0.0,0.0,0.0,1.7559,1.8861,1.9796,2.0322,2.04,1.9893,1.8732,1.7471,1.6134,1.4086,0.0,0.0,0.0,0.0,0.0,0.0,0.0,0.0,0.0,0.0,0.0,0.0,0.0,0.0,0.0,0.0,0.0,0.0,0.0,0.0,0.0,0.0,0.0,0.0,0.0,0.0,0.0,0.0,0.0,0.0,0.0,0.0,0.0,0.0,0.0,0.0,0.0,0.0,0.0,0.0,0.0,0.0,0.0,0.0,0.0,0.0,0.0,0.0,0.0,0.0,0.0,0.0,0.0,0.0,0.0,0.0,0.0,0.0,0.0,0.0,0.0,0.0,0.0,0.0,0.0,0.0,0.0,0.0,0.0,0.0,0.0,0.0,0.0,0.0,0.0,0.0,0.0,0.0,0.0,0.0,0.0,0.0,0.0,0.0,0.0,0.0,0.0,0.0,0.0,0.0,0.0,0.0,0.0,0.0,0.0,0.0,0.0,0.0,0.0,0.0,0.0,0.0,1.7493,1.8779,0.0,2.0488,2.0302,1.959,1.882,1.7601,1.5771,0.0,0.0,0.0,0.0,0.0,0.0,0.0,0.0,0.0,0.0,0.0,0.0,0.0,0.0,0.0,0.0,0.0,0.0,0.0,0.0,0.0,0.0,0.0,0.0,0.0,0.0,0.0,0.0,0.0,0.0,0.0,0.0,0.0,0.0,0.0,0.0,0.0,0.0,0.0,0.0,0.0,0.0,0.0,0.0,0.0,0.0,0.0,0.0,0.0,0.0,0.0,0.0,0.0,0.0,0.0,0.0,0.0,0.0,0.0,0.0,0.0,0.0,0.0,0.0,0.0,0.0,0.0,0.0,0.0,0.0,0.0,0.0,0.0,0.0,0.0,0.0,0.0,0.0,0.0,0.0,0.0,0.0,0.0,0.0,0.0,0.0,0.0,0.0,0.0,0.0,0.0,0.0,0.0,0.0,0.0,0.0,0.0,0.0,0.0,0.0,0.0,0.0,1.6404,1.7698,1.8916,0.0,2.0381,2.0087,1.9364,1.8498,1.7252,1.5503,0.0,0.0,0.0,0.0,0.0,0.0,0.0,0.0,0.0,0.0,0.0,0.0,0.0,0.0,0.0,0.0,0.0,0.0,0.0,0.0,0.0,0.0,0.0,0.0,0.0,0.0,0.0,0.0,0.0,0.0,0.0,0.0,0.0,0.0,0.0,0.0,0.0,0.0,0.0,0.0,0.0,0.0,0.0,0.0,0.0,0.0,0.0,0.0,0.0,0.0,0.0,0.0,0.0,0.0,0.0,0.0,0.0,0.0,0.0,0.0,0.0,0.0,0.0,0.0,0.0,0.0,0.0,0.0,0.0,0.0,0.0,0.0,0.0,0.0,0.0,0.0,0.0,0.0,0.0,0.0,0.0,0.0,0.0,0.0,0.0,0.0,0.0,0.0,0.0,0.0,0.0,0.0,0.0,0.0,0.0,0.0,0.0,0.0,0.0,0.0,0.0,0.0,1.6473,1.8223,1.9443,1.9844,1.9883,1.9736,1.9335,1.7698,1.6326,0.0,0.0,0.0,0.0,0.0,0.0,0.0,0.0,0.0,0.0,0.0,0.0,0.0,0.0,0.0,0.0,0.0,0.0,0.0,0.0,0.0,0.0,0.0,0.0,0.0,0.0,0.0,0.0,0.0,0.0,0.0,0.0,0.0,0.0,0.0,0.0,0.0,0.0,0.0,0.0,0.0,0.0,0.0,0.0,0.0,0.0,0.0,0.0,0.0,0.0,0.0,0.0,0.0,0.0,0.0,0.0,0.0,0.0,0.0,0.0,0.0,0.0,0.0,0.0,0.0,0.0,0.0,0.0,0.0,0.0,0.0,0.0,0.0,0.0,0.0,0.0,0.0,0.0,0.0,0.0,0.0,0.0,0.0,0.0,0.0,0.0,0.0,0.0,0.0,0.0,0.0,0.0,0.0,0.0,0.0,0.0,0.0,0.0,0.0,0.0,0.0,0.0,0.0,0.0,1.7764,1.8976,1.9424,1.9473,1.9297,1.8849,1.7822,1.6553,1.5068,0.0,0.0,0.0,0.0,0.0,0.0,0.0,0.0,0.0,0.0,0.0,0.0,0.0,0.0,0.0,0.0,0.0,0.0,0.0,0.0,0.0,0.0,0.0,0.0,0.0,0.0,0.0,0.0,0.0,0.0,0.0,0.0,0.0,0.0,0.0,0.0,0.0,0.0,0.0,0.0,0.0,0.0,0.0,0.0,0.0,0.0,0.0,0.0,0.0,0.0,0.0,0.0,0.0,0.0,0.0,0.0,0.0,0.0,0.0,0.0,0.0,0.0,0.0,0.0,0.0,0.0,0.0,0.0,0.0,0.0,0.0,0.0,0.0,0.0,0.0,0.0,0.0,0.0,0.0,0.0,0.0,0.0,0.0,0.0,0.0,0.0,0.0,0.0,0.0,0.0,0.0,0.0,0.0,0.0,0.0,0.0,0.0,0.0,0.0,0.0,0.0,0.0,1.5928,1.7568,1.8705,1.8994,1.9023,1.883,1.8401,1.7591,1.6455,1.4897,0.0,0.0,0.0,0.0,0.0,0.0,0.0,0.0,0.0,0.0,0.0,0.0,0.0,0.0,0.0,0.0,0.0,0.0,0.0,0.0,0.0,0.0,0.0,0.0,0.0,0.0,0.0,0.0,0.0,0.0,0.0,0.0,0.0,0.0,0.0,0.0,0.0,0.0,0.0,0.0,0.0,0.0,0.0,0.0,0.0,0.0,0.0,0.0,0.0,0.0,0.0,0.0,0.0,0.0,0.0,0.0,0.0,0.0,0.0,0.0,0.0,0.0,0.0,0.0,0.0,0.0,0.0,0.0,0.0,0.0,0.0,0.0,0.0,0.0,0.0,0.0,0.0,0.0,0.0,0.0,0.0,0.0,0.0,0.0,0.0,0.0,0.0,0.0,0.0,0.0,0.0,0.0,0.0,0.0,0.0,0.0,0.0,0.0,0.0,0.0,0.0,0.0,1.588,1.7549,1.8588,1.8549,1.8539,1.8373,1.7988,1.722,1.6205,1.4887,0.0,0.0,0.0,0.0,0.0,0.0,0.0,0.0,0.0,0.0,0.0,0.0,0.0,0.0,0.0,0.0,0.0,0.0,0.0,0.0,0.0,0.0,0.0,0.0,0.0,0.0,0.0,0.0,0.0,0.0,0.0,0.0,0.0,0.0,0.0,0.0,0.0,0.0,0.0,0.0,0.0,0.0,0.0,0.0,0.0,0.0,0.0,0.0,0.0,0.0,0.0,0.0,0.0,0.0,0.0,0.0,0.0,0.0,0.0,0.0,1.2514,0.0,0.0,0.0,0.0,0.0,0.0,0.0,0.0,0.0,0.0,0.0,0.0,0.0,0.0,0.0,0.0,0.0,0.0,0.0,0.0,0.0,0.0,0.0,0.0,0.0,0.0,0.0,0.0,0.0,0.0,0.0,0.0,0.0,0.0,0.0,0.0,0.0,0.0,0.0,0.0,0.0,1.5469,1.7337,1.8481,1.8166,1.8127,1.7978,1.7549,1.7353,1.6543,1.4907,0.0,0.0,0.0,0.0,0.0,0.0,0.0,0.0,0.0,0.0,0.0,0.0,0.0,0.0,0.0,0.0,0.0,0.0,0.0,0.0,0.0,0.0,0.0,0.0,0.0,0.0,0.0,0.0,0.0,0.0,0.0,0.0,0.0,0.0,0.0,0.0,0.0,0.0,0.0,0.0,0.0,0.0,0.0,0.0,0.0,0.0,0.0,0.0,0.0,0.0,0.0,0.0,0.0,0.0,0.0,0.0,0.0,0.0,0.0,0.0,0.0,1.3789,0.0,0.0,0.0,0.0,0.0,0.0,0.0,0.0,0.0,0.0,0.0,0.0,0.0,0.0,0.0,0.0,0.0,0.0,0.0,0.0,0.0,0.0,0.0,0.0,0.0,0.0,0.0,0.0,0.0,0.0,0.0,0.0,0.0,0.0,0.0,0.0,0.0,0.0,0.0,0.0,1.5679,1.7415,1.8442,1.804,1.7991,1.7842,1.7438,1.7197,1.6592,1.5483,1.4189,0.0,0.0,0.0,0.0,0.0,0.0,0.0,0.0,0.0,0.0,0.0,0.0,0.0,0.0,0.0,0.0,0.0,0.0,0.0,0.0,0.0,0.0,0.0,0.0,0.0,0.0,0.0,0.0,0.0,0.0,0.0,0.0,0.0,0.0,0.0,0.0,0.0,0.0,0.0,0.0,0.0,0.0,0.0,0.0,0.0,0.0,0.0,0.0,0.0,0.0,0.0,0.0,0.0,0.0,0.0,1.7956,1.7956,1.8359,1.8948,1.7191,1.6615,1.6794,0.0,0.0,0.0,0.0,0.0,0.0,0.0,0.0,0.0,0.0,0.0,0.0,0.0,0.0,0.0,0.0,0.0,0.0,0.0,0.0,0.0,0.0,0.0,0.0,0.0,1.6979,1.6689,0.0,0.0,0.0,0.0,0.0,0.0,0.0,0.0,0.0,0.0,0.0,0.0,1.6153,1.7686,1.8547,1.804,1.7991,1.7842,1.7438,1.7035,1.6621,1.6124,1.4976,1.403,0.0,0.0,0.0,0.0,0.0,0.0,0.0,0.0,0.0,0.0,0.0,0.0,0.0,0.0,0.0,0.0,0.0,0.0,0.0,0.0,0.0,0.0,0.0,0.0,0.0,0.0,0.0,0.0,0.0,0.0,0.0,0.0,1.2727,1.3193,0.0,0.0,0.0,0.0,0.0,0.0,0.0,0.0,0.0,0.0,0.0,0.0,0.0,0.0,1.6881,1.8103,1.8738,1.8807,1.9667,2.0126,2.0184,2.0184,2.0439,2.0839,2.0547,0.0,1.7747,1.6755,0.0,0.0,0.0,0.0,0.0,0.0,0.0,0.0,0.0,0.0,0.0,0.0,0.0,0.0,0.0,0.0,0.0,0.0,0.0,0.0,0.0,0.0,1.7617,1.7725,1.7842,1.7705,0.0,1.562,1.4453,1.387,0.0,0.0,0.0,0.0,0.0,0.0,0.0,0.0,1.6576,1.8135,1.8896,1.8096,1.7991,1.7842,1.7438,1.735,1.6959,1.6144,1.5547,1.5181,1.5064,1.3906,0.0,0.0,0.0,0.0,0.0,0.0,0.0,0.0,0.0,0.0,0.0,0.0,0.0,0.0,0.0,0.0,0.0,0.0,0.0,0.0,0.0,0.0,0.0,0.0,0.0,0.0,0.0,0.0,0.0,1.2744,1.3851,1.3545,1.3783,1.3587,0.0,0.0,0.0,0.0,0.0,0.0,0.0,0.0,0.0,1.7171,1.7646,1.8191,1.8799,1.9835,2.0508,2.0781,2.1602,2.2139,2.2404,2.2627,2.2842,2.3006,2.3006,2.2196,2.0732,1.8908,1.7686,1.683,0.0,0.0,0.0,0.0,0.0,0.0,1.6966,0.0,0.0,0.0,0.0,0.0,0.0,0.0,0.0,0.0,0.0,0.0,0.0,0.0,0.0,1.963,2.001,2.0068,1.9639,1.8537,1.7178,0.0,1.4957,1.4348,1.3142,0.0,0.0,0.0,0.0,0.0,1.7405,1.8525,1.8973,1.8088,1.7991,1.7842,1.7438,1.7399,1.7233,1.6842,1.6396,1.6137,1.6137,1.5381,1.4418,0.0,0.0,0.0,0.0,0.0,0.0,0.0,0.0,0.0,0.0,0.0,0.0,0.0,0.0,0.0,0.0,0.0,0.0,0.0,0.0,0.0,0.0,0.0,0.0,0.0,0.0,0.0,0.0,1.4033,1.4848,1.4082,1.4853,1.4775,0.0,0.0,0.0,0.0,0.0,0.0,1.6868,1.7758,1.8601,1.9425,2.0,2.0478,2.0879,2.1302,2.1671,2.2038,2.2299,2.2593,2.2947,2.3247,2.3388,2.3388,2.3388,2.3009,2.2279,2.0641,1.9629,1.8996,1.7825,1.7376,0.0,1.8205,1.8301,1.825,1.96,1.9571,1.8861,1.8496,0.0,1.7269,1.5864,0.0,0.0,0.0,0.0,1.7789,1.8958,0.0,2.0029,2.0966,2.1464,2.1602,2.1142,2.0547,1.9443,0.0,1.6894,1.6371,1.4761,0.0,0.0,0.0,0.0,1.7837,1.8122,1.8587,1.8668,1.8061,1.7991,1.7881,1.7585,1.7468,1.7399,1.7399,1.708,1.684,1.6707,1.6539,1.5723,0.0,0.0,0.0,0.0,0.0,0.0,0.0,0.0,0.0,0.0,0.0,0.0,0.0,0.0,0.0,0.0,0.0,0.0,0.0,0.0,0.0,0.0,0.0,0.0,0.0,0.0,0.0,0.0,0.0,0.0,1.5357,1.6465,0.0,0.0,0.0,0.0,1.6473,1.7337,1.8223,1.91,1.9979,2.083,2.172,2.2551,2.3196,2.3594,2.2769,2.2351,2.2346,2.1125,2.0552,2.0569,2.0585,2.0594,2.0594,2.0594,2.0577,2.0595,2.1428,2.127,2.0419,1.952,1.9178,1.9209,1.9658,1.9786,1.9853,2.0381,2.0234,1.9962,2.0742,2.044,1.964,1.918,1.8752,0.0,0.0,1.9414,1.9942,2.0849,2.1083,2.1112,2.1181,2.121,2.1123,2.0713,2.0605,2.0273,0.0,1.8181,1.7331,1.7223,0.0,0.0,1.7708,1.7392,1.7422,1.8445,1.8117,1.7834,1.7976,1.7991,1.7981,1.7961,1.7607,1.7399,1.7399,1.738,1.7168,1.6716,1.7109,1.6901,1.5987,1.4687,0.0,0.0,0.0,0.0,0.0,0.0,0.0,0.0,0.0,0.0,0.0,0.0,0.0,0.0,0.0,0.0,0.0,0.0,0.0,0.0,0.0,0.0,0.0,0.0,0.0,0.0,0.0,0.0,1.7083,1.8223,0.0,0.0,1.7366,1.8001,1.8713,1.9571,2.0576,2.1739,2.2345,2.2522,2.2237,2.251,2.2755,2.2894,2.1712,2.1592,2.251,2.1178,2.057,2.0666,2.0666,2.0666,2.0666,2.0666,2.0485,2.0229,2.0585,2.0473,1.9969,1.9393,1.9173,1.9217,1.9609,1.9769,1.9926,2.0989,2.1059,2.0722,2.1083,2.0248,1.9241,1.9937,2.0205,2.0303,2.0479,2.083,2.1318,2.1884,2.1835,2.1728,2.1971,2.1846,2.1611,2.1466,2.1191,2.0888,2.0576,1.996,1.9276,1.8719,1.826,1.7954,1.7833,1.7374,1.714,1.7342,1.7181,1.6899,1.6498,1.7008,1.7279,1.7105,1.7513,1.7793,1.7793,1.7793,1.7715,1.7542,1.7705,1.7246,1.6114,1.5332,1.3838,0.0,0.0,0.0,0.0,0.0,0.0,0.0,0.0,0.0,0.0,0.0,0.0,0.0,0.0,0.0,0.0,0.0,0.0,0.0,0.0,0.0,0.0,0.0,0.0,0.0,0.0,1.8329,1.8075,1.9542,1.9936,1.8325,1.9235,1.9841,1.9652,2.1147,2.2337,2.2891,2.3218,2.3116,2.2478,2.2076,2.1853,2.1853,2.0506,2.0313,2.1273,1.9926,1.9343,1.9408,1.9408,1.9408,1.9408,1.9408,1.9235,1.8953,1.8953,1.8857,1.8731,1.919,1.9452,1.9566,1.9841,1.9954,2.0073,2.1009,2.1116,2.0883,2.0915,2.0095,1.926,2.0107,2.0488,2.0622,2.0525,2.0985,2.1534,2.1678,2.1799,2.1924,2.203,2.1865,2.1621,2.1495,2.1211,2.0925,2.069,2.0335,1.9888,1.9297,1.8655,1.825,1.8337,1.7362,1.6839,1.7412,1.6717,1.6045,1.5771,1.6215,1.6496,1.641,1.7088,1.7567,1.7658,1.7745,1.7607,1.7176,1.7419,1.696,1.5714,1.4949,1.3796,1.224,0.0,0.0,0.0,0.0,0.0,0.0,0.0,0.0,0.0,0.0,0.0,0.0,0.0,0.0,0.0,0.0,0.0,0.0,0.0,0.0,0.0,0.0,0.0,1.5392,1.7705,1.8984,1.8251,2.0348,2.0986,1.8767,2.0905,2.1515,1.9316,2.1985,2.3324,2.2416,2.2481,2.2552,2.2505,2.1362,2.0754,2.0754,1.9358,1.8656,1.8658,1.7321,1.6687,1.668,1.668,1.668,1.668,1.668,1.668,1.668,1.668,1.6687,1.6885,1.8994,2.0003,2.028,2.028,2.0305,2.0337,2.0337,2.0337,2.0353,2.0385,2.014,1.9854,1.9901,1.9724,1.9461,1.9204,1.9868,2.06,2.0256,2.0983,2.1684,2.1216,2.11,2.0984,2.0576,2.0508,2.0292,1.9647,1.9209,1.8966,1.8973,1.8043,1.7789,1.9276,1.7318,0.0,1.857,1.6629,1.5304,1.5931,1.5779,1.5751,1.6011,1.6408,1.673,1.6919,1.7179,1.6761,1.5535,1.6227,1.6069,1.4898,1.3572,1.308,1.3446,0.0,0.0,0.0,0.0,0.0,0.0,0.0,0.0,0.0,0.0,0.0,0.0,0.0,0.0,0.0,0.0,0.0,0.0,0.0,0.0,0.0,0.0,1.592,1.7081,1.7894,1.8575,1.919,2.0186,2.0573,1.9925,2.0532,2.0848,2.0491,2.1284,2.1709,2.1544,2.1568,2.1137,2.0169,1.9822,1.9648,1.9648,1.8293,1.7871,1.8393,1.7058,1.6279,1.6048,1.6048,1.6048,1.6048,1.6048,1.6048,1.6048,1.6048,1.6199,1.6498,1.7278,1.7647,1.7725,1.7725,1.8262,1.9008,1.9008,1.9008,1.9179,2.0095,1.9717,1.9065,1.999,2.0047,1.9759,1.9691,1.9743,1.9819,1.9709,1.9665,1.957,1.9254,1.8939,1.8636,1.8288,1.8201,1.8155,1.7975,1.7835,1.7977,1.8595,1.7728,1.6997,1.7194,0.0,0.0,1.5402,1.483,1.478,1.582,1.6461,1.6775,1.6652,1.7199,0.0,0.0,1.5541,1.5289,1.4925,1.5126,1.4954,1.4332,1.324,1.2624,0.0,0.0,0.0,0.0,0.0,0.0,0.0,0.0,0.0,0.0,0.0,0.0,0.0,0.0,0.0,0.0,0.0,0.0,0.0,0.0,0.0,0.0,1.5873,1.643,1.7865,1.8442,1.8922,1.9421,2.0184,2.0492,2.0102,2.0467,2.0465,1.979,2.0724,2.1119,2.0775,2.0615,2.0128,1.9225,1.852,1.8146,1.8146,1.7385,1.7207,1.7626,1.684,1.6366,1.6175,1.6175,1.6132,0.0,1.6012,1.5921,1.5808,1.5808,1.5908,0.0,0.0,0.0,0.0,0.0,1.7143,1.7757,1.7757,1.7757,1.7874,1.8624,1.8265,1.773,1.8471,1.8447,1.8167,1.8054,1.8218,1.8442,1.8314,1.8421,1.8518,1.8357,1.813,1.7904,1.7712,1.7692,1.7489,1.69,0.0,0.0,1.6724,1.6507,1.6327,1.631,1.5184,1.4508,0.0,1.4487,1.437,1.5075,1.5509,1.5683,1.5538,1.6131,0.0,0.0,0.0,1.4692,1.437,0.0,0.0,0.0,0.0,0.0,0.0,0.0,0.0,0.0,1.3831,1.345,0.0,0.0,0.0,0.0,0.0,0.0,0.0,0.0,0.0,0.0,0.0,0.0,0.0,0.0,0.0,0.0,1.5864,1.615,1.7933,1.8913,1.9347,1.9059,1.9951,2.0285,1.9502,2.0286,2.0056,1.8212,2.005,2.084,1.9876,0.0,0.0,0.0,0.0,1.676,1.676,1.676,1.674,1.6707,1.6707,1.6707,1.6707,1.6707,1.6567,1.6344,1.631,1.6119,1.5855,1.5821,1.5808,1.5828,1.6119,1.638,1.6607,1.6607,1.6627,0.0,0.0,0.0,0.0,1.6707,1.6533,1.6351,1.6351,1.6112,1.5801,1.5565,1.616,1.6814,1.658,1.7228,1.7922,1.7882,1.7874,1.7888,1.7848,1.784,1.7463,1.6215,1.607,1.5718,1.4387,1.4922,1.5634,1.6,1.4944,0.0,1.588,1.4923,1.4158,1.4333,0.0,0.0,1.3899,1.4386,1.4512,1.408,1.4447,1.4427,1.381,1.3112,1.3186,1.4111,1.3454,1.3765,1.5102,1.4124,1.4188,1.5152,1.3526,1.3465,0.0,0.0,0.0,0.0,0.0,0.0,0.0,0.0,0.0,0.0,0.0,0.0,0.0,0.0,0.0,1.6034,1.6344,1.6668,1.7332,1.7767,1.7977,1.7919,1.8109,1.8279,1.8318,1.8504,1.8568,1.8404,1.8597,1.8523,1.8118,1.7824,0.0,1.7577,1.7267,1.7086,1.7086,1.7086,1.6966,1.6707,0.0,0.0,1.6707,1.6707,1.6673,1.6607,1.6397,1.6264,1.6166,1.5901,1.5808,1.5815,1.5868,1.5928,1.5975,1.5975,1.6152,1.6384,1.6384,1.6513,1.6707,1.6707,1.6667,1.662,1.662,1.642,0.0,1.6143,1.6092,1.6024,1.597,1.6113,1.6213,1.5993,1.5937,1.589,1.5669,1.5613,1.5532,1.5277,1.5898,1.6053,1.4649,1.4427,1.4432,1.4508,1.4284,1.4207,1.4487,1.4284,1.4564,1.5752,1.5821,1.5784,1.5784,1.5497,1.467,1.3173,1.2905,1.2887,1.3019,1.3068,1.309,1.3098,1.3145,1.3226,1.3303,1.33,1.3528,1.3956,1.4661,1.4688,0.0,0.0,0.0,0.0,0.0,0.0,0.0,0.0,0.0,0.0,0.0,1.388,0.0,0.0,1.5834,1.6367,1.6833,1.7248,1.7555,1.7849,1.7983,1.7836,1.7789,1.7849,1.7975,1.7882,1.7916,1.8223,1.7956,1.7789,1.7789,1.7675,1.7528,1.7394,1.7394,1.7394,1.7394,1.7394,1.7321,1.7141,1.7141,1.7141,1.7141,1.7141,1.7093,1.6946,1.6799,1.6652,1.6491,1.6172,1.5941,1.5808,1.5808,1.5808,1.5808,1.5808,1.5901,1.6052,1.6052,1.6146,1.6242,1.6242,1.6242,1.6242,1.6242,1.6166,1.6052,1.6052,1.5921,1.5808,1.5808,1.5808,1.5768,1.5628,1.5588,1.5548,1.5431,1.5398,1.5351,1.5233,1.564,1.5739,1.49,1.4496,1.4255,1.4129,1.4109,1.4109,1.4109,1.4109,1.4389,1.5127,1.5205,1.512,1.4957,1.4584,1.4017,1.3246,1.2919,1.2826,1.2992,1.3126,1.3206,1.3193,1.3327,1.342,1.3454,1.342,1.356,1.3854,1.4378,1.4391,0.0,0.0,0.0,0.0,0.0,0.0,0.0,0.0,1.3449,1.3646,1.4424,1.5108,1.5226,1.6057,1.6745,1.6872,1.7375,1.7849,1.8069,1.8337,1.8424,1.8209,1.8143,1.8129,1.8155,1.7936,1.7889,1.8135,1.7883,1.7782,1.7975,1.7962,1.7816,1.7615,1.7608,1.7608,1.7608,1.7608,1.7608,1.7608,1.7608,1.7608,1.7608,1.7608,1.7481,1.728,1.7226,1.7006,1.6687,1.6478,1.6186,1.5888,1.5888,1.5855,1.5808,1.5808,1.5808,1.5808,1.5808,1.5808,1.5808,1.5808,1.5808,1.5808,1.5808,1.5808,1.5808,1.5808,1.5808,1.5808,1.5808,1.5808,1.5808,1.5808,1.5808,1.5808,1.5808,1.5808,1.5735,1.5524,1.5478,1.5391,1.512,1.485,1.4547,1.4222,1.4122,1.4109,1.4109,1.4109,1.4109,1.4109,1.4109,1.3968,1.3626,1.3407,1.3373,1.3586,1.3407,1.33,1.338,1.336,1.3474,1.3686,1.3707,1.3717,1.3758,1.3481,1.3377,1.3406,1.3135,1.328,1.3104,1.2791,1.2788,1.3212,1.3129,1.3296,0.0,0.0,1.4152,1.4358,1.4904,1.5431,1.5681,1.65,1.7214,1.7448,1.8023,1.8397,1.8437,1.847,1.8571,1.877,1.8597,1.8544,1.877,1.8564,1.851,1.8776,1.8283,1.7955,1.7989,1.7756,1.7615,1.7608,1.7608,1.7608,1.7608,1.7608,1.7608,1.7608,1.7608,1.7608,1.7608,1.7608,1.7588,1.7548,1.7313,1.7006,1.67,1.6667,1.6486,1.625,1.625,1.6059,1.5808,1.5808,1.5808,1.5808,1.5808,1.5808,1.5808,1.5808,1.5808,1.5808,1.5808,1.5808,1.5808,1.5808,1.5808,1.5808,1.5808,1.5808,1.5808,1.5808,1.5808,1.5808,1.5808,1.5808,1.5795,1.5761,1.5761,1.5668,1.5398,1.5317,1.511,1.4534,1.4255,1.4109,1.4109,1.4109,1.4109,1.4109,1.4109,1.3968,1.3626,1.3573,1.3567,1.36,1.3573,1.3694,1.3996,1.4009,1.4001,1.4035,1.4041,1.3522,1.2504,1.2468,1.1936,1.0999,1.0951,1.1509,1.4046,1.3489,0.0,0.0,1.4223,1.4549,1.539,1.5455,1.534,1.5266,1.5885,1.6531,1.68,1.7468,1.7996,0.0,1.847,1.8744,1.8744,1.8744,1.8756,1.8883,1.8664,1.8604,1.8863,1.8657,1.847,1.8389,1.7989,1.7776,1.7776,1.7655,1.7608,1.7608,1.7608,1.7608,1.7608,1.7608,1.7608,1.7608,1.7608,1.7608,1.7608,1.7608,1.7608,1.7602,1.7481,1.726,1.6993,1.6993,1.6812,1.6506,1.6364,1.6217,1.6066,1.5868,1.5808,1.5808,1.5808,1.5808,1.5808,1.5808,1.5808,1.5808,1.5808,1.5808,1.5659,1.4902,1.4681,1.4507,1.374,1.3523,1.3523,1.3523,1.3523,1.374,1.4537,1.4076,1.398,1.551,1.4567,1.3729,1.4413,1.3755,1.3037,1.2785,1.3817,1.4558,1.4362,1.4342,1.4275,1.4129,1.4109,1.4035,1.3894,1.388,1.388,1.388,1.3228,1.2909,1.3048,1.2425,1.2062,1.2062,1.2062,1.1799,1.1316,1.1316,1.1058,1.0589,1.0681,1.0627,1.3847,0.0,0.0,1.4295,1.4897,1.544,1.5897,1.6172,1.633,1.6307,1.6846,1.7388,1.7655,1.8136,0.0,1.849,1.8804,1.9018,1.8903,1.8896,1.8863,1.879,1.8617,1.8577,1.8784,1.8611,1.8404,1.8156,1.7856,1.7669,1.7615,1.7608,1.7608,1.7608,1.7608,1.7608,1.7608,1.7608,1.7608,1.7608,1.7199,1.6988,1.6988,1.6578,1.6419,1.6419,1.6419,1.6307,1.6126,1.6126,1.5937,1.5612,1.542,1.5301,1.5196,1.4922,1.5013,1.5289,1.5289,1.5027,1.4711,1.4711,1.4711,1.4711,1.4711,1.4711,1.4537,1.3614,1.3349,1.3127,1.2139,1.1896,1.1896,1.1896,1.1896,1.2164,1.3127,1.2595,1.2455,1.437,1.3204,1.2212,1.3175,1.2374,1.1621,1.1621,1.3071,1.4002,1.3597,1.3554,1.3476,1.3225,1.32,1.32,1.32,1.3153,1.3171,1.3278,1.2373,1.1843,1.1889,1.1052,1.0611,1.0611,1.0611,1.0438,1.0139,1.0139,0.9994,0.9727,0.9807,0.9245,0.0,0.0,1.334,1.395,1.4754,1.5551,1.6158,1.6496,1.6846,1.7434,1.7575,1.7662,1.7949,1.8256,1.849,1.849,1.9007,1.9281,1.8936,1.8896,1.879,1.8537,1.8497,1.8497,0.0,1.8497,1.849,1.8477,1.8176,1.7876,1.7602,1.7608,1.7608,1.7608,1.7608,1.7608,1.7608,1.7608,1.7608,1.7582,1.6148,1.547,1.5417,1.4046,1.3426,1.3426,1.3426,1.3426,1.3416,1.3416,1.323,1.2921,1.2916,1.2753,1.249,1.2364,1.3008,1.3968,1.3968,1.3102,1.2023,1.2023,1.2023,1.2023,1.2023,1.2023,1.2018,1.1969,1.1969,1.1945,1.1901,1.1896,1.1896,1.1896,1.1896,1.1901,1.1945,1.1921,1.1921,1.1994,1.1945,1.1901,1.1945,1.1916,1.1886,1.1886,1.1954,1.1787,1.1272,1.1189,1.1131,1.0915,1.0895,1.0895,1.0895,1.0781,1.0836,1.1177,1.0848,1.0707,1.084,1.0683,1.0611,1.0611,1.0611,1.0053,0.8956,0.8956,0.8456,0.75,0.7503,0.6859,0.0,0.0,1.4247,1.5028,1.5758,1.6366,1.6792,1.71,1.7341,1.7568,1.7608,1.7642,1.7716,1.7962,1.8236,1.8457,1.8818,1.9038,1.891,1.8896,1.8716,1.8229,1.8169,0.0,0.0,0.0,0.0,1.8477,1.8023,1.7782,1.7856,1.7695,1.7608,1.7608,1.6658,1.6148,1.6148,1.5204,1.4749,1.4749,1.4234,1.4019,1.3992,1.3507,1.3291,1.3291,1.3291,1.3291,1.3291,1.3291,1.3219,1.3111,1.2886,1.2728,1.2623,1.2329,1.187,1.1563,1.2308,1.2285,1.1896,1.1896,1.1896,1.1896,1.1896,1.1896,1.1731,1.0877,1.0632,1.0435,0.9534,0.9312,0.9312,0.9312,0.9312,0.9554,1.046,0.9948,0.9825,1.1556,1.0509,0.9604,1.0485,0.9899,0.9312,0.9312,1.0631,1.1562,1.1388,1.122,1.1082,1.1012,1.1002,1.1002,1.1002,1.0955,1.0975,1.1097,1.0245,0.9714,0.9674,0.89,0.8413,0.8273,0.8409,0.8297,0.7896,0.7984,0.7861,0.7503,0.6712,0.6125,1.3854,1.4521,1.5174,1.6079,1.6747,1.7208,1.7314,1.7561,1.7716,1.7628,1.7441,1.7268,1.7268,1.6997,1.7061,1.8029,1.8072,1.7985,1.8042,1.8013,1.7612,1.6579,1.6429,0.0,0.0,0.0,0.0,1.7578,1.6744,1.6261,1.6396,1.6194,1.6068,1.6068,1.515,1.4663,1.4663,1.375,1.3048,1.2512,1.2512,1.224,1.1728,1.1728,1.1728,1.1728,1.1728,1.1728,1.1728,1.1728,1.1728,1.1715,1.1482,1.1407,1.1367,1.1071,1.039,0.9808,1.0872,1.0901,1.0509,1.0509,1.0509,1.0509,1.0509,1.0509,1.0337,0.9509,0.9291,0.9093,0.8233,0.7988,0.7988,0.7988,0.7988,0.8233,0.9093,0.8602,0.8503,1.019,0.9143,0.8283,0.9143,0.8581,0.7988,0.7988,0.9283,1.0261,1.0261,1.0107,0.9982,0.9935,0.9926,0.9926,0.9926,0.9888,0.9887,0.9976,0.9164,0.8679,0.8644,0.7887,0.7407,0.7283,0.7404,0.724,0.6747,0.6836,0.6667,0.6215,0.5439,0.4852,1.4812,1.5464,1.6102,1.7032,1.7622,1.7942,1.7675,1.7809,1.7882,1.7582,1.7048,1.6633,0.0,0.0,1.5114,1.7121,1.6737,1.6226,1.6361,1.6289,1.5592,0.0,0.0,0.0,0.0,0.0,0.0,1.5743,0.0,1.3643,1.3535,1.3369,1.3291,1.3291,1.3237,1.3183,1.3183,1.3102,1.2376,1.1,1.1,1.0241,0.8912,0.8912,0.8912,0.8912,0.8912,0.8912,0.8912,0.8912,0.8912,0.8912,0.8912,0.8912,0.8892,0.874,0.871,0.8805,0.9639,0.9095,0.8037,0.803,0.8027,0.8027,0.7992,0.7988,0.7988,0.7988,0.7988,0.7988,0.7988,0.7988,0.7988,0.7988,0.7988,0.7988,0.7988,0.7988,0.7988,0.7988,0.7988,0.7988,0.7988,0.7988,0.7988,0.7988,0.7988,0.7988,0.7988,0.7988,0.7959,0.7814,0.78,0.78,0.78,0.7699,0.7719,0.7971,0.7753,0.7655,0.7707,0.7587,0.7463,0.7386,0.7392,0.677,0.5506,0.5511,0.4921,0.3818,0.3744,0.309,1.5728,1.6545,1.7248,1.7676,1.7902,1.7969,1.7922,1.7642,1.7254,1.6739,1.6139,1.5665,0.0,0.0,0.0,1.5335,1.4942,0.0,1.4701,1.4906,0.0,0.0,0.0,1.3929,1.3728,1.2686,0.0,0.0,1.3218,1.3524,1.3774,1.3477,1.3291,1.3291,1.224,1.1647,1.1647,1.0566,0.9836,0.9454,0.9454,0.9265,0.8912,0.8912,0.8912,0.8912,0.8912,0.8912,0.8912,0.8912,0.8912,0.8912,0.8912,0.8912,0.8892,0.874,0.871,0.8729,0.8837,0.8652,0.835,0.8245,0.8211,0.8191,0.805,0.7988,0.7988,0.7988,0.7988,0.7988,0.7988,0.7988,0.7988,0.7988,0.7988,0.7988,0.7988,0.7988,0.7988,0.7988,0.7988,0.7988,0.7988,0.7988,0.7988,0.7988,0.7988,0.7988,0.7988,0.7988,0.8,0.7959,0.7956,0.7956,0.7956,0.7922,0.7935,0.7985,0.7946,0.7425,0.6346,0.6268,0.5753,0.4649,0.4718,0.4606,0.4268,0.4351,0.4242,0.3914,0.2921,0.2303,1.6632,1.7308,1.7668,1.7264,1.7218,1.6976,1.5956,1.5531,1.5124,1.429,1.3766,0.0,0.0,0.0,0.0,0.0,0.0,0.0,1.322,1.3372,1.3099,0.0,1.2093,0.0,1.2013,1.1119,1.0647,0.0,1.1244,1.1629,1.19,1.1558,1.1378,1.1378,1.0566,1.0131,1.0131,0.932,0.8912,0.8912,0.8912,0.8912,0.8912,0.8912,0.8912,0.8912,0.0,0.8912,0.8912,0.8912,0.8912,0.8912,0.8912,0.8912,0.8899,0.8814,0.8784,0.877,0.8713,0.8682,0.8648,0.8457,0.8349,0.8281,0.8167,0.8067,0.7988,0.7988,0.7988,0.7988,0.7988,0.7988,0.7988,0.7988,0.7988,0.7988,0.7988,0.7988,0.7988,0.7988,0.7988,0.7814,0.7235,0.7135,0.6933,0.6326,0.6249,0.6249,0.6249,0.7282,0.7988,0.7988,0.7484,0.7135,0.7135,0.6575,0.6249,0.6249,0.6249,0.5869,0.5042,0.5015,0.4622,0.3796,0.386,0.3588,0.3019,0.3076,0.2815,0.2238,0.146,0.1134,1.7441,1.7869,1.7802,1.6681,1.6337,1.571,1.3605,1.2969,1.2503,1.1418,0.0,1.0726,1.0374,0.9594,0.9687,1.1756,0.0,1.1158,1.178,1.1743,1.1211,0.9953,0.971,0.968,0.9751,0.9561,0.9459,0.9571,0.9342,0.924,0.9373,0.9061,0.8912,0.8912,0.8912,0.8912,0.8912,0.8912,0.8912,0.8912,0.8912,0.8912,0.8912,0.8912,0.8912,0.8912,0.0,0.0,0.8912,0.8912,0.8912,0.8912,0.8912,0.8771,0.8605,0.8605,0.8491,0.8322,0.8322,0.8312,0.8334,0.8468,0.8423,0.8318,0.8277,0.8147,0.7988,0.7988,0.7988,0.7963,0.7786,0.7739,0.7686,0.7509,0.7459,0.7459,0.7459,0.7459,0.7459,0.7459,0.7459,0.7107,0.5927,0.5727,0.5347,0.4166,0.3991,0.3991,0.3991,0.6024,0.7459,0.7459,0.6429,0.5727,0.5727,0.467,0.3991,0.3991,0.3991,0.3915,0.374,0.374,0.364,0.3465,0.3465,0.2889,0.1737,0.1737,0.1134,0.0,0.0,0.0,1.7762,1.8156,1.8368,1.8131,1.7115,1.5886,1.4995,1.3305,0.0,0.0,0.0,0.9913,0.9837,0.9112,0.8939,1.0203,0.0,0.0,0.0,0.0,0.9954,0.0,0.0,0.0,0.0,0.0,0.0,0.0,0.0,0.0,0.922,0.9032,0.8912,0.8912,0.8912,0.8912,0.8912,0.8912,0.8912,0.8912,0.8912,0.8912,0.8912,0.8912,0.8912,0.8912,0.0,0.0,0.8912,0.8912,0.8912,0.8912,0.8912,0.8156,0.7093,0.7093,0.6311,0.5252,0.5252,0.5259,0.5613,0.779,0.8492,0.8423,0.8128,0.8037,0.7988,0.7988,0.7988,0.7739,0.6631,0.6356,0.6077,0.4968,0.4693,0.4693,0.4693,0.4693,0.4693,0.4693,0.4693,0.4618,0.4393,0.4343,0.4268,0.4041,0.3991,0.3991,0.3991,0.4416,0.4693,0.4693,0.4493,0.4343,0.4343,0.4141,0.3991,0.3991,0.3991,0.3515,0.2388,0.2339,0.1837,0.0706,0.0706,0.058,0.0353,0.0353,0.0227,0.0,0.0,0.0,1.5811,1.5877,1.5839,1.5181,1.4261,1.3101,1.1603,0.0,0.0,0.0,0.0,0.7563,0.7571,0.0,0.0,0.0,0.0,0.0,0.0,0.0,0.0,0.0,0.0,0.0,0.0,0.0,0.0,0.0,0.0,0.0,0.9207,0.9018,0.8912,0.8912,0.8912,0.8912,0.8912,0.8912,0.8912,0.8912,0.8912,0.8912,0.8912,0.8912,0.8912,0.8912,0.0,0.0,0.8736,0.8047,0.7702,0.7585,0.6878,0.6172,0.5547,0.5547,0.5114,0.449,0.449,0.4491,0.4687,0.5889,0.6271,0.6225,0.6068,0.5969,0.5922,0.5922,0.5922,0.5772,0.5122,0.497,0.4795,0.4141,0.3991,0.3991,0.3991,0.3991,0.3991,0.3991,0.3991,0.379,0.309,0.2964,0.2715,0.2013,0.1913,0.1913,0.1913,0.1913,0.2464,0.384,0.3364,0.2964,0.2964,0.2314,0.1913,0.1913,0.1913,0.1637,0.0983,0.0958,0.0656,0.0,0.0,0.0,0.0,0.0,0.0,0.0,0.0,0.0,1.432,1.3952,1.3462,1.2415,1.1618,1.0518,0.843,0.7252,0.0,0.0,0.5508,0.5474,0.559,0.0,0.66,0.0,0.0,0.0,0.0,0.0,0.0,0.0,0.0,0.0,0.0,0.0,0.0,0.0,0.0,0.0,0.0,0.8998,0.8912,0.8912,0.8912,0.8912,0.8912,0.8912,0.8912,0.8912,0.8912,0.8912,0.8881,0.8572,0.8415,0.8415,0.0,0.0,0.0,0.6657,0.6175,0.5963,0.4907,0.4298,0.4007,0.4007,0.3795,0.353,0.353,0.3548,0.3502,0.3349,0.3719,0.4205,0.4162,0.4089,0.3991,0.3991,0.3991,0.3941,0.3642,0.3565,0.349,0.3215,0.314,0.314,0.314,0.314,0.314,0.314,0.314,0.2815,0.1762,0.1561,0.1209,0.0151,0.0,0.0,0.0,0.0,0.0807,0.2914,0.2188,0.1561,0.1561,0.0605,0.0,0.0,0.0,-0.0126,-0.0429,-0.0429,-0.0555,-0.0857,-0.0857,-0.0857,-0.0857,-0.058,-0.058,-0.0857,-0.0555,-0.058,1.5582,1.4724,1.363,1.3388,1.2129,1.0618,0.9416,0.0,0.0,0.5542,0.5169,0.5092,0.5515,0.5664,0.0,0.0,0.0,0.7699,0.0,0.0,0.0,0.0,0.0,0.0,0.0,0.0,0.0,0.0,0.0,0.0,0.0,0.8919,0.8912,0.8912,0.8912,0.8912,0.8912,0.8912,0.8912,0.8912,0.8912,0.8912,0.885,0.7501,0.6902,0.6842,0.0,0.0,0.0,0.4759,0.4701,0.4669,0.4536,0.3636,0.2418,0.2418,0.157,0.0426,0.0426,0.0422,0.0416,0.0389,0.2121,0.4167,0.4048,0.4021,0.3991,0.3991,0.3991,0.3715,0.2489,0.2188,0.1887,0.0656,0.0379,0.0379,0.0379,0.0379,0.0379,0.0379,0.0379,0.0328,0.0202,0.0177,0.0151,0.0025,0.0,0.0,0.0,0.0,0.0101,0.0353,0.0252,0.0177,0.0177,0.0076,0.0,0.0,0.0,-0.0555,-0.1762,-0.1812,-0.2388,-0.3615,-0.364,-0.364,-0.364,-0.2413,-0.244,-0.3615,-0.2388,-0.2464,1.1849,1.1208,1.0788,1.0631,0.982,0.8831,0.8033,0.0,0.5753,0.5308,0.4986,0.4891,0.5231,0.5406,0.5675,0.0,0.0,0.0,0.0,0.0,0.0,0.0,0.0,0.0,0.0,0.0,0.0,0.0,0.0,0.0,0.0,0.8405,0.8912,0.8912,0.8912,0.8912,0.8912,0.8912,0.8463,0.7565,0.7572,0.7122,0.6237,0.5645,0.5387,0.0,0.0,0.0,0.0,0.3448,0.3064,0.2904,0.211,0.1416,0.0876,0.0876,0.0516,0.0,0.0,0.0,0.0,0.0,0.0765,0.1652,0.1615,0.1586,0.1586,0.1586,0.1586,0.146,0.0932,0.0807,0.0656,0.0126,0.0,0.0,0.0,0.0,0.0,0.0,0.0,0.0,0.0,0.0,0.0,0.0,0.0,0.0,0.0,0.0,0.0,0.0,0.0,0.0,0.0,0.0,0.0,0.0,-0.0756,-0.1436,-0.1987,-0.2765,-0.3465,-0.3991,-0.3991,-0.3991,-0.3991,-0.3465,-0.349,-0.3991,-0.344,-0.349,0.9645,0.9004,0.874,0.8618,0.816,0.7594,0.0,0.62,0.5491,0.5122,0.483,0.4715,0.494,0.5125,0.5379,0.5766,0.0,0.6366,0.0,0.0,0.0,0.0,0.0,0.0,0.0,0.0,0.0,0.0,0.0,0.0,0.0,0.0,0.7595,0.7595,0.7595,0.7603,0.7596,0.7593,0.7076,0.6051,0.6059,0.5511,0.4484,0.4034,0.3817,0.0,0.0,0.0,0.0,0.1951,0.1504,0.131,0.0379,0.0,0.0,0.0,0.0,0.0,0.0,0.0,0.0,0.0,0.0,0.0,0.0,0.0,0.0,0.0,0.0,0.0,0.0,0.0,0.0,0.0,0.0,0.0,0.0,0.0,0.0,0.0,0.0,0.0,0.0,0.0,0.0,0.0,0.0,0.0,0.0,0.0,0.0,0.0,0.0,0.0,0.0,0.0,-0.0177,-0.0555,-0.1486,-0.2364,-0.3141,-0.4092,-0.4768,-0.5168,-0.5193,-0.5193,-0.5193,-0.4793,-0.4793,-0.5168,-0.4768,-0.4793,1.0473,0.947,0.8478,0.8338,0.7961,0.7444,0.0,0.6125,0.5464,0.4997,0.4691,0.4539,0.4681,0.4819,0.5023,0.5354,0.5907,0.0,0.0,0.0,0.0,0.0,0.0,0.0,0.0,0.0,0.0,0.0,0.0,0.0,0.0,0.0,0.4555,0.4555,0.4555,0.4545,0.455,0.455,0.4538,0.4512,0.4512,0.451,0.4455,0.292,0.0,0.0,0.0,0.0,0.0,0.0025,0.0025,0.0025,0.0,0.0,0.0,0.0,0.0,0.0,0.0,0.0,0.0,0.0,0.0,0.0,0.0,0.0,0.0,0.0,0.0,0.0,0.0,0.0,0.0,0.0,0.0,0.0,0.0,0.0,0.0,0.0,0.0,0.0,0.0,0.0,0.0,0.0,0.0,0.0,0.0,0.0,0.0,0.0,0.0,0.0,0.0,0.0,-0.0555,-0.1887,-0.1988,-0.3192,-0.5854,-0.5979,-0.6606,-0.7939,-0.7963,-0.7963,-0.7963,-0.6631,-0.6656,-0.7914,-0.6606,-0.6681,0.8489,0.8011,0.7794,0.7441,0.7088,0.6719,0.62,0.5646,0.5163,0.4833,0.4617,0.4539,0.4678,0.4731,0.4996,0.5701,0.5979,0.0,0.0,0.0,0.0,0.0,0.0,0.0,0.0,0.0,0.0,0.0,0.0,0.0,0.0,0.0,0.342,0.4474,0.4503,0.4494,0.4495,0.4495,0.3976,0.2921,0.2938,0.24,0.141,0.0,0.0,0.0,0.0,0.0,0.0,0.0,0.0,0.0,0.0,0.0,0.0,0.0,0.0,0.0,0.0,0.0,0.0,0.0,0.0,0.0,0.0,0.0,0.0,0.0,0.0,0.0,0.0,0.0,0.0,0.0,0.0,0.0,0.0,0.0,0.0,0.0,0.0,0.0,0.0,0.0,0.0,0.0,0.0,0.0,0.0,0.0,-0.0353,-0.126,-0.136,-0.136,-0.136,-0.136,-0.1938,-0.3291,-0.4219,-0.5125,-0.5954,-0.6883,-0.7562,-0.7988,-0.7988,-0.7988,-0.7988,-0.7587,-0.7587,-0.7988,-0.7562,-0.7587,0.7095,0.7031,0.7193,0.6891,0.6573,0.6217,0.5878,0.5393,0.4967,0.4741,0.4597,0.4518,0.4614,0.4434,0.4463,0.5007,0.4941,0.0,0.0,0.0,0.0,0.0,0.0,0.0,0.0,0.0,0.0,0.0,0.0,0.0,0.0,0.0,0.1812,0.278,0.2799,0.2812,0.2814,0.2814,0.2308,0.1382,0.1366,0.0898,0.0,0.0,0.0,0.0,0.0,0.0,0.0,0.0,0.0,0.0,0.0,0.0,0.0,0.0,0.0,0.0,0.0,0.0,0.0,0.0,-0.0353,-0.0857,-0.136,-0.0807,0.0,0.0,0.0,0.0,0.0,0.0,0.0,0.0,0.0,0.0,0.0,-0.0404,-0.0605,-0.0101,-0.0807,-0.136,-0.0832,-0.1184,-0.1511,-0.1511,-0.1511,-0.1511,-0.1511,-0.1511,-0.1837,-0.2665,-0.2764,-0.2966,-0.3468,-0.3041,-0.3316,-0.467,-0.555,-0.6232,-0.6734,-0.7562,-0.7988,-0.7988,-0.7988,-0.7988,-0.7988,-0.7988,-0.7988,-0.7988,-0.7988,-0.7988,0.0,0.6392,0.66,0.658,0.6241,0.589,0.5755,0.5281,0.0,0.4707,0.459,0.4512,0.4518,0.4012,0.3596,0.3673,0.0,0.0,0.0,0.0,0.0,0.0,0.0,0.0,0.0,0.0,0.0,0.0,0.0,0.0,0.0,0.0,0.0,0.0,0.0,0.0,0.0,0.0,0.0,0.0,0.0,0.0,0.0,0.0,0.0,0.0,0.0,0.0,0.0,0.0,0.0,0.0,0.0,0.0,0.0,0.0,-0.005,-0.0151,-0.0151,-0.0202,-0.0278,-0.0278,-0.1134,-0.2363,-0.3615,-0.2264,-0.0278,-0.0278,-0.0278,-0.0278,-0.0278,-0.0278,-0.0278,-0.0278,-0.0278,-0.0278,-0.0278,-0.126,-0.1762,-0.053,-0.2289,-0.3615,-0.2363,-0.3165,-0.3991,-0.3991,-0.3991,-0.3991,-0.3991,-0.3991,-0.4041,-0.4141,-0.4141,-0.4693,-0.6029,-0.492,-0.4718,-0.6054,-0.6129,-0.6706,-0.7939,-0.7988,-0.7988,-0.7988,-0.7988,-0.7988,-0.7988,-0.7988,-0.7988,-0.7988,-0.7988,-0.7988,0.5071,0.0,0.5641,0.5393,0.5241,0.5122,0.0,0.4843,0.4715,0.4576,0.4529,0.4563,0.4769,0.4015,0.3612,0.0,0.0,0.0,0.0,0.0,0.0,0.0,0.0,0.0,0.0,0.0,0.0,0.0,0.0,0.0,0.0,0.0,0.0,0.0,0.0,0.0,0.0,0.0,0.0,0.0,0.0,0.0,0.0,0.0,0.0,0.0,0.0,0.0,0.0,0.0,0.0,0.0,0.0,0.0,0.0,0.0,-0.0656,-0.1536,-0.1536,-0.2213,-0.3065,-0.3065,-0.3265,-0.359,-0.3915,-0.3565,-0.3065,-0.3065,-0.3065,-0.3065,-0.3065,-0.3065,-0.3065,-0.3065,-0.3065,-0.3065,-0.3065,-0.3316,-0.3441,-0.3115,-0.3565,-0.389,-0.359,-0.379,-0.3991,-0.3991,-0.3991,-0.3991,-0.3991,-0.3991,-0.4393,-0.5425,-0.5525,-0.6077,-0.7409,-0.6304,-0.6102,-0.7434,-0.7537,-0.7662,-0.7988,-0.7988,-0.7988,-0.7988,-0.7988,-0.7988,-0.7988,-0.7988,-0.7988,-0.7988,-0.7988,-0.7988,0.4614,0.493,0.5216,0.5041,0.495,0.4882,0.4813,0.4702,0.459,0.4522,0.0,0.4037,0.4142,0.3135,0.0,0.0,0.0,0.0,0.0,0.0,0.0,0.0,0.0,0.0,0.0,0.0,0.0,0.0,0.0,0.0,0.0,0.0,0.0,0.0,0.0,0.0,0.0,0.0,0.0,0.0,0.0,0.0,0.0,0.0,0.0,0.0,0.0,0.0,0.0,0.0,0.0,0.0,0.0,-0.0379,-0.0907,-0.0907,-0.1762,-0.2914,-0.2914,-0.3391,-0.4091,-0.4718,-0.492,-0.502,-0.5647,-0.5847,-0.557,-0.4341,-0.3991,-0.3991,-0.3991,-0.3991,-0.3991,-0.3991,-0.3991,-0.3991,-0.3991,-0.4493,-0.4745,-0.4116,-0.4993,-0.5647,-0.502,-0.542,-0.5847,-0.5847,-0.5847,-0.5847,-0.5847,-0.5847,-0.6124,-0.683,-0.6908,-0.721,-0.7939,-0.7335,-0.7235,-0.7963,-0.7988,-0.7988,-0.7988,-0.7988,-0.8047,-0.8143,-0.8147,-0.8177,-0.8216,-0.8177,-0.8147,-0.8143,-0.8047,-0.7988,0.4545,0.4823,0.5083,0.5031,0.494,0.4862,0.4838,0.0,0.0,0.0,0.0,0.0,0.0,0.2059,0.0,0.0,0.0,0.0,0.0,0.0,0.0,0.0,0.0,0.0,0.0,0.0,0.0,0.0,0.0,0.0,0.0,0.0,0.0,0.0,0.0,0.0,0.0,0.0,0.0,0.0,0.0,0.0,0.0,0.0,0.0,0.0,0.0,0.0,0.0,0.0,0.0,-0.0025,-0.0227,-0.1008,-0.2013,-0.2238,-0.3165,-0.4343,-0.4543,-0.4616,-0.4793,-0.5927,-0.6306,-0.6506,-0.7662,-0.7988,-0.7534,-0.5245,-0.4616,-0.4616,-0.4616,-0.4616,-0.4616,-0.4616,-0.4616,-0.4616,-0.4616,-0.5497,-0.5977,-0.4843,-0.6451,-0.7637,-0.6506,-0.726,-0.7988,-0.7988,-0.7988,-0.7988,-0.7988,-0.7988,-0.7988,-0.7988,-0.7988,-0.7988,-0.7988,-0.7988,-0.7988,-0.7988,-0.7988,-0.7988,-0.7988,-0.7988,-0.8077,-0.826,-0.8284,-0.8345,-0.8414,-0.8345,-0.8284,-0.8257,-0.8074,-0.7988,0.4779,0.497,0.5024,0.4674,0.4661,0.4708,0.459,0.4525,0.0,0.0,0.0,0.0,0.0,0.0,0.0,0.0,0.0,0.0,0.0,0.0,0.0,0.0,0.0,0.0,0.0,0.0,0.0,0.0,0.0,0.0,0.0,0.0,0.0,0.0,0.0,0.0,0.0,0.0,0.0,0.0,0.0,0.0,0.0,0.0,0.0,0.0,0.0,0.0,0.0,0.0,0.0,-0.0101,-0.126,-0.1812,-0.2138,-0.3265,-0.4545,-0.5852,-0.6983,-0.7385,-0.7406,-0.7637,-0.7686,-0.7739,-0.7939,-0.7988,-0.7914,-0.7509,-0.7385,-0.7385,-0.7385,-0.7385,-0.7385,-0.7385,-0.7385,-0.7385,-0.7385,-0.7562,-0.7637,-0.7431,-0.7711,-0.7939,-0.7739,-0.7864,-0.7988,-0.7988,-0.7988,-0.7988,-0.7988,-0.7988,-0.7988,-0.7988,-0.7988,-0.7988,-0.7988,-0.7988,-0.7988,-0.7988,-0.7988,-0.7988,-0.7988,-0.7988,-0.8027,-0.805,-0.8204,-0.8218,-0.8084,-0.8218,-0.8204,-0.805,-0.8027,-0.7988,0.4647,0.4779,0.4863,0.4741,0.4525,0.428,0.4152,0.3679,0.0,0.0,0.0,0.0,0.0,0.0,0.0,0.0,0.0,0.0,0.0,0.0,0.0,0.0,0.0,0.0,0.0,0.0,0.0,0.0,0.0,0.0,0.0,0.0,0.0,0.0,0.0,0.0,0.0,0.0,0.0,0.0,0.0,0.0,0.0,0.0,0.0,0.0,0.0,0.0,0.0,0.0,-0.0395,-0.1053,-0.1728,-0.2846,-0.4235,-0.565,-0.6553,-0.7157,-0.7789,-0.7988,-0.7988,-0.7988,-0.7988,-0.7988,-0.7988,-0.7988,-0.7988,-0.7988,-0.7988,-0.7988,-0.7988,-0.7988,-0.7988,-0.7988,-0.7988,-0.7988,-0.7988,-0.7988,-0.7988,-0.7988,-0.7988,-0.7988,-0.7988,-0.7988,-0.7988,-0.7988,-0.7988,-0.7988,-0.7988,-0.7988,-0.7988,-0.7988,-0.7988,-0.7988,-0.7988,-0.7988,-0.7988,-0.7988,-0.7988,-0.7988,-0.7988,-0.7988,-0.8054,-0.8163,-0.826,-0.8301,-0.8279,-0.8301,-0.826,-0.8163,-0.8054,-0.7988,0.458,0.4671,0.4779,0.4916,0.0,0.41,0.3864,0.3113,0.0,0.0,0.0,0.0,0.0,0.0,0.0,0.0,0.0,0.0,0.0,0.0,0.0,0.0,0.0,0.0,0.0,0.0,0.0,0.0,0.0,0.0,0.0,0.0,0.0,0.0,0.0,0.0,0.0,0.0,0.0,0.0,0.0,0.0,0.0,0.0,0.0,0.0,0.0,-0.0171,-0.0414,-0.0414,-0.1134,-0.2262,-0.2679,-0.4255,-0.6406,-0.7546,-0.7983,-0.7988,-0.7988,-0.7988,-0.7988,-0.7988,-0.7988,-0.7988,-0.7988,-0.7988,-0.7988,-0.7988,-0.7988,-0.7988,-0.7988,-0.7988,-0.7988,-0.7988,-0.7988,-0.7988,-0.7988,-0.7988,-0.7988,-0.7988,-0.7988,-0.7988,-0.7988,-0.7988,-0.7988,-0.7988,-0.7988,-0.7988,-0.7988,-0.7988,-0.7988,-0.7988,-0.7988,-0.7988,-0.7988,-0.7988,-0.7988,-0.7988,-0.7988,-0.7988,-0.7988,-0.7988,-0.8071,-0.824,-0.8277,-0.8332,-0.8377,-0.8332,-0.8277,-0.8214,-0.8071,-0.7988,0.4809,0.4879,0.4923,0.5049,0.4874,0.4497,0.3924,0.3544,0.0,0.1477,0.0,0.0,0.0,0.0,0.0,0.0,0.0,0.0,0.0,0.0,0.0,0.0,0.0,0.0,0.0,0.0,0.0,0.0,0.0,0.0,0.0,0.0,0.0,0.0,0.0,0.0,0.0,0.0,0.0,0.0,0.0,0.0,0.0,0.0,0.0,0.0,0.0,-0.0645,-0.1669,-0.1669,-0.238,-0.3583,-0.4843,-0.6292,-0.7666,-0.7773,-0.7895,-0.7988,-0.7988,-0.7988,-0.7988,-0.7988,-0.7988,-0.7988,-0.7988,-0.7988,-0.7988,-0.7988,-0.7988,-0.7988,-0.7988,-0.7988,-0.7988,-0.7988,-0.7988,-0.7988,-0.7988,-0.7988,-0.7988,-0.7988,-0.7988,-0.7988,-0.7988,-0.7988,-0.7988,-0.7988,-0.7988,-0.7988,-0.7988,-0.7988,-0.7988,-0.7988,-0.7988,-0.7988,-0.7988,-0.7988,-0.7988,-0.7988,-0.7988,-0.7988,-0.7988,-0.7988,-0.7995,-0.803,-0.8197,-0.8204,-0.8047,-0.8204,-0.8197,-0.803,-0.7995,-0.7988,0.4593,0.4719,0.4833,0.5039,0.5118,0.0,0.0,0.2528,0.1772,0.0643,0.0406,0.0,0.0,0.0,0.0,0.0,0.0,0.0,0.0,0.0,0.0,0.0,0.0,0.0,0.0,0.0,0.0,0.0,0.0,0.0,0.0,0.0,0.0,0.0,0.0,0.0,0.0,0.0,0.0,0.0,0.0,0.0,-0.0023,-0.078,-0.0716,-0.0094,-0.1587,-0.2076,-0.1868,-0.2611,-0.363,-0.4851,-0.6184,-0.7119,-0.7678,-0.7678,-0.7749,-0.7871,-0.7871,-0.7935,-0.7988,-0.7988,-0.7988,-0.7988,-0.7988,-0.7988,-0.7988,-0.7988,-0.7988,-0.7988,-0.7988,-0.7988,-0.7988,-0.7988,-0.7988,-0.7988,-0.7988,-0.7988,-0.7988,-0.7988,-0.7988,-0.7988,-0.7988,-0.7988,-0.7988,-0.7988,-0.7988,-0.7988,-0.7988,-0.7988,-0.7988,-0.7988,-0.7988,-0.7988,-0.7988,-0.7988,-0.7988,-0.7988,-0.7988,-0.7988,-0.7988,-0.7988,-0.7988,-0.7988,-0.8071,-0.8074,-0.7988,-0.8074,-0.8071,-0.7988,-0.7988,-0.7988,0.4379,0.4518,0.4629,0.4581,0.0,0.0,0.2485,0.1898,0.1409,0.0238,0.0,0.0,0.0,0.0,0.0,0.0,0.0,0.0,0.0,0.0,0.0,0.0,0.0,0.0,0.0,0.0,0.0,0.0,0.0,0.0,0.0,0.0,0.0,0.0,0.0,0.0,0.0,0.0,0.0,0.0,-0.0382,-0.0561,-0.0606,-0.1812,-0.1915,-0.1234,-0.2874,-0.3352,-0.2991,-0.3832,-0.486,-0.6035,-0.694,-0.739,-0.7529,-0.7529,-0.7621,-0.7743,-0.7743,-0.7817,-0.7942,-0.7942,-0.7976,-0.7988,-0.7988,-0.7988,-0.7988,-0.7988,-0.7988,-0.7988,-0.7988,-0.7988,-0.7988,-0.7988,-0.7988,-0.7988,-0.7988,-0.7988,-0.7988,-0.7988,-0.7988,-0.7988,-0.7988,-0.7988,-0.7988,-0.7988,-0.7988,-0.7988,-0.7988,-0.7988,-0.7988,-0.7988,-0.7988,-0.7988,-0.7988,-0.7988,-0.7988,-0.7988,-0.7988,-0.7988,-0.7988,-0.7988,-0.7988,-0.7988,-0.7988,-0.7988,-0.7988,-0.7988,-0.7988,-0.7988,-0.7988,-0.804,0.4247,0.4341,0.431,0.0,0.0,0.0,0.1485,0.1921,0.2168,0.0373,0.0,0.0,0.0,0.0,0.0,0.0,0.0,0.0,0.0,0.0,0.0,0.0,0.0,0.0,0.0,0.0,0.0,0.0,0.0,0.0,0.0,0.0,0.0,0.0,0.0,0.0,0.0,-0.0022,-0.0022,-0.0022,-0.1254,-0.1812,-0.1835,-0.3059,-0.3614,-0.3592,-0.3614,-0.4307,-0.5403,-0.5403,-0.6071,-0.7095,-0.7095,-0.7212,-0.7393,-0.7393,-0.7488,-0.7597,-0.7597,-0.7689,-0.7811,-0.7811,-0.7888,-0.7988,-0.7988,-0.7988,-0.7988,-0.7988,-0.7988,-0.7988,-0.7988,-0.7988,-0.7988,-0.7988,-0.7988,-0.7988,-0.7988,-0.7988,-0.7988,-0.7988,-0.7988,-0.7988,-0.7988,-0.7988,-0.7988,-0.7988,-0.7988,-0.7988,-0.7988,-0.7988,-0.7988,-0.7988,-0.7988,-0.7988,-0.7988,-0.7988,-0.7988,-0.7988,-0.7988,-0.7988,-0.7988,-0.7988,-0.7988,-0.7988,-0.7988,-0.7988,-0.7988,-0.7988,-0.7988,-0.7988,-0.7992,-0.8098,0.422,0.4044,0.0,0.3594,0.0,0.0,0.0,0.148,0.0,0.0,0.0,0.0,0.0,0.0,0.0,0.0,0.0,0.0,0.0,0.0,0.0,0.0,0.0,0.0,0.0,0.0,0.0,0.0,0.0,0.0,0.0,0.0,0.0,0.0,0.0,0.0,0.0,0.0,-0.1277,-0.1299,-0.3352,-0.3439,-0.1879,-0.3929,-0.4396,-0.3703,-0.5351,-0.58,-0.547,-0.627,-0.6786,-0.7095,-0.7095,-0.7148,-0.7188,-0.7188,-0.7305,-0.7464,-0.7464,-0.7536,-0.7662,-0.7662,-0.776,-0.7854,-0.7854,-0.7929,-0.7988,-0.7988,-0.7988,-0.7988,-0.7988,-0.7988,-0.7988,-0.7988,-0.7988,-0.7988,-0.7988,-0.7988,-0.7988,-0.7988,-0.7988,-0.7988,-0.7988,-0.7988,-0.7988,-0.7988,-0.7988,-0.7988,-0.7988,-0.7988,-0.7988,-0.7988,-0.7988,-0.7988,-0.7988,-0.7988,-0.7988,-0.7988,-0.7988,-0.7988,-0.7988,-0.7988,-0.7988,-0.7988,-0.7988,-0.7988,-0.7988,-0.7988,-0.7988,-0.7992,-0.815,-0.825,0.3843,0.362,0.0,0.2758,0.246,0.2033,0.1009,0.0,0.0,0.0,0.0,0.0,0.0,0.0,0.0,0.0,0.0,0.0,0.0,0.0,0.0,0.0,0.0,0.0,0.0,0.0,0.0,0.0,0.0,0.0,0.0,0.0,0.0,0.0,0.0,0.0,0.0,0.0,0.0,-0.1106,-0.3537,-0.3929,-0.2592,-0.4976,-0.5689,-0.506,-0.6492,-0.6716,-0.6138,-0.6827,-0.7095,-0.7095,-0.7095,-0.7095,-0.7095,-0.7095,-0.7178,-0.7278,-0.7278,-0.738,-0.7532,-0.7532,-0.7607,-0.7736,-0.7794,-0.7851,-0.7939,-0.7996,-0.7988,-0.7988,-0.7988,-0.7988,-0.7988,-0.7988,-0.7988,-0.7988,-0.7988,-0.7988,-0.7988,-0.7988,-0.7988,-0.7988,-0.7988,-0.7988,-0.7988,-0.7988,-0.7988,-0.7988,-0.7988,-0.7988,-0.7988,-0.7988,-0.7988,-0.7988,-0.7988,-0.7988,-0.7988,-0.7988,-0.7988,-0.7988,-0.7988,-0.7988,-0.7988,-0.7988,-0.7988,-0.7988,-0.7988,-0.7988,-0.8047,-0.8133,-0.8253,-0.8359,0.3298,0.3149,0.0,0.1458,0.1058,0.0,0.0161,0.0,0.0,0.0,0.0,0.0,0.0,0.0,0.0,0.0,0.0,0.0,0.0,0.0,0.0,0.0,0.0,0.0,0.0,0.0,0.0,0.0,0.0,0.0,0.0,0.0,0.0,0.0,0.0,0.0,0.0,0.0,0.0,0.0,0.0,-0.3881,-0.3949,-0.6123,-0.7095,-0.7095,-0.7095,-0.7095,-0.7095,-0.7095,-0.7095,-0.7095,-0.7095,-0.7095,-0.7095,-0.7095,-0.7095,-0.7095,-0.7095,-0.7212,-0.7372,-0.7372,-0.7478,-0.7604,-0.7733,-0.778,-0.78,-0.7952,-0.7993,-0.7996,-0.7985,-0.7988,-0.7988,-0.7988,-0.7988,-0.7988,-0.7988,-0.7988,-0.7988,-0.7988,-0.7988,-0.7988,-0.7988,-0.7988,-0.7988,-0.7988,-0.7988,-0.7988,-0.7988,-0.7988,-0.7988,-0.7988,-0.7988,-0.7988,-0.7988,-0.7988,-0.7988,-0.7988,-0.7988,-0.7988,-0.7988,-0.7988,-0.7988,-0.7988,-0.7988,-0.7988,-0.7988,-0.7988,-0.8094,-0.8298,-0.8311,-0.8468,0.3298,0.2769,0.0,0.0,0.0666,0.0196,0.004,0.0,0.0,0.0,0.0,0.0,0.0,0.0,0.0,0.0,0.0,0.0,0.0,0.0,0.0,0.0,0.0,0.0,0.0,0.0,0.0,0.0,0.0,0.0,0.0,0.0,0.0,0.0,0.0,0.0,0.0,-0.1729,-0.2617,0.0,-0.4957,-0.6027,-0.6057,-0.677,-0.7095,-0.7095,-0.7095,-0.7095,-0.7095,-0.7095,-0.7095,-0.7095,-0.7095,-0.7095,-0.7095,-0.7095,-0.7095,-0.7095,-0.7095,-0.7119,-0.7168,-0.7168,-0.7295,-0.7447,-0.7481,-0.755,-0.7675,-0.7797,-0.7837,-0.7864,-0.7983,-0.7988,-0.7988,-0.7988,-0.7988,-0.7988,-0.7988,-0.7988,-0.7988,-0.7988,-0.7988,-0.7988,-0.7988,-0.7988,-0.7988,-0.7988,-0.7988,-0.7988,-0.7988,-0.7988,-0.7988,-0.7988,-0.7988,-0.7988,-0.7988,-0.7988,-0.7988,-0.7988,-0.7988,-0.7988,-0.7988,-0.7988,-0.7988,-0.7988,-0.7988,-0.7988,-0.7988,-0.7988,-0.8094,-0.8301,-0.841,-0.8533,0.2846,0.0,0.0,0.0854,0.0,0.0,0.0,0.0,0.0,0.0,0.0,0.0,0.0,0.0,0.0,0.0,0.0,0.0,0.0,0.0,0.0,0.0,0.0,0.0,0.0,0.0,0.0,0.0,0.0,0.0,0.0,0.0,0.0,0.0,0.0,0.0,-0.0774,-0.191,-0.2742,-0.3275,-0.5017,-0.6135,-0.6705,-0.6837,-0.6948,-0.6997,-0.6997,-0.7034,-0.7095,-0.7095,-0.7095,-0.7095,-0.7095,-0.7095,-0.7095,-0.7095,-0.7095,-0.7095,-0.7095,-0.7095,-0.7095,-0.7095,-0.7171,-0.7275,-0.7372,-0.745,-0.7519,-0.7668,-0.7756,-0.7804,-0.7885,-0.7959,-0.7988,-0.7988,-0.7988,-0.7988,-0.7988,-0.7988,-0.7988,-0.7988,-0.7988,-0.7988,-0.7988,-0.7988,-0.7988,-0.7988,-0.7988,-0.7988,-0.7988,-0.7988,-0.7988,-0.7988,-0.7988,-0.7988,-0.7988,-0.7988,-0.7988,-0.7988,-0.7988,-0.7988,-0.7988,-0.7988,-0.7988,-0.7988,-0.7988,-0.7988,-0.7988,-0.7988,-0.8128,-0.84,-0.8471,-0.8604,0.2489,0.0,0.1651,0.0322,0.0,0.0,0.0,0.0,0.0,0.0,0.0,0.0,0.0,0.0,0.0,0.0,0.0,0.0,0.0,0.0,0.0,0.0,0.0,0.0,0.0,0.0,0.0,0.0,0.0,0.0,0.0,0.0,0.0,0.0,0.0,-0.186,-0.186,-0.2036,-0.2558,-0.34,-0.4573,-0.5673,-0.6624,-0.6624,-0.6722,-0.687,-0.687,-0.6935,-0.7021,-0.7048,-0.7058,-0.7061,-0.7088,-0.7095,-0.7095,-0.7095,-0.7095,-0.7095,-0.7095,-0.7095,-0.7095,-0.7095,-0.7095,-0.7141,-0.7292,-0.7355,-0.7386,-0.7516,-0.7645,-0.774,-0.7767,-0.7861,-0.7976,-0.7976,-0.7996,-0.7988,-0.7988,-0.7988,-0.7988,-0.7988,-0.7988,-0.7988,-0.7988,-0.7988,-0.7988,-0.7988,-0.7988,-0.7988,-0.7988,-0.7988,-0.7988,-0.7988,-0.7988,-0.7988,-0.7988,-0.7988,-0.7988,-0.7988,-0.7988,-0.7988,-0.7988,-0.7988,-0.7988,-0.7988,-0.7988,-0.7988,-0.7988,-0.7988,-0.8155,-0.8471,-0.8498,-0.8632,0.3002,0.0,0.0904,0.0,0.0,0.0,0.0,0.0,0.0,0.0,0.0,0.0,0.0,0.0,0.0,0.0,0.0,0.0,0.0,0.0,0.0,0.0,0.0,0.0,0.0,0.0,0.0,0.0,0.0,0.0,0.0,0.0,-0.289,-0.289,-0.289,0.0,-0.289,-0.3819,-0.4355,-0.4494,-0.5596,-0.6201,-0.6358,-0.6358,-0.6491,-0.6729,-0.6729,-0.6742,-0.677,-0.688,-0.6935,-0.6948,-0.7048,-0.7095,-0.7095,-0.7095,-0.7095,-0.7095,-0.7095,-0.7095,-0.7095,-0.7095,-0.7095,-0.7098,-0.7144,-0.7148,-0.7181,-0.7382,-0.7437,-0.7485,-0.7594,-0.7733,-0.7817,-0.7817,-0.7918,-0.7988,-0.7988,-0.7988,-0.7988,-0.7988,-0.7988,-0.7988,-0.7988,-0.7988,-0.7988,-0.7988,-0.7988,-0.7988,-0.7988,-0.7988,-0.7988,-0.7988,-0.7988,-0.7988,-0.7988,-0.7988,-0.7988,-0.7988,-0.7988,-0.7988,-0.7988,-0.7988,-0.7988,-0.7988,-0.7988,-0.7988,-0.7988,-0.7988,-0.8104,-0.8328,-0.8451,-0.8574,0.2651,0.1663,0.0749,0.0,0.0,0.0,0.0,0.0,0.0,0.0,0.0,0.0,0.0,0.0,0.0,0.0,0.0,0.0,0.0,0.0,0.0,0.0,0.0,0.0,0.0,0.0,0.0,0.0,0.0,0.0,0.0,-0.4569,-0.4001,-0.4001,-0.4001,0.0,-0.4001,-0.4472,-0.5002,-0.5609,-0.6083,-0.63,-0.63,-0.63,-0.6416,-0.6593,-0.6593,-0.662,-0.6705,-0.6773,-0.6779,-0.6796,-0.6941,-0.6977,-0.6987,-0.7065,-0.7095,-0.7095,-0.7095,-0.7095,-0.7095,-0.7095,-0.7095,-0.7095,-0.7095,-0.7095,-0.7109,-0.7198,-0.7305,-0.741,-0.7478,-0.7584,-0.7692,-0.7692,-0.778,-0.7888,-0.7888,-0.7956,-0.7988,-0.7988,-0.7988,-0.7988,-0.7988,-0.7988,-0.7988,-0.7988,-0.7988,-0.7988,-0.7988,-0.7988,-0.7988,-0.7988,-0.7988,-0.7988,-0.7988,-0.7988,-0.7988,-0.7988,-0.7988,-0.7988,-0.7988,-0.7988,-0.7988,-0.7988,-0.7988,-0.7988,-0.7988,-0.7988,-0.8094,-0.8298,-0.8359,-0.8489,0.0,0.0,0.0759,0.0152,0.0,0.0,0.0,0.0,0.0,0.0,0.0,0.0,0.0,0.0,0.0,0.0,0.0,0.0,0.0,0.0,0.0,0.0,0.0,0.0,0.0,0.0,0.0,0.0,0.0,0.0,-0.6028,-0.541,-0.4983,-0.4983,-0.5016,-0.5032,-0.5032,-0.5082,-0.5512,-0.63,-0.63,-0.63,-0.63,-0.63,-0.6358,-0.644,-0.644,-0.6501,-0.659,-0.6627,-0.6644,-0.6658,-0.6789,-0.6874,-0.6921,-0.7004,-0.7065,-0.7095,-0.7095,-0.7095,-0.7095,-0.7095,-0.7095,-0.7095,-0.7095,-0.7095,-0.7095,-0.7095,-0.7202,-0.7335,-0.7335,-0.7428,-0.7543,-0.7543,-0.7678,-0.7797,-0.7837,-0.7935,-0.7988,-0.7988,-0.7988,-0.7988,-0.7988,-0.7988,-0.7988,-0.7988,-0.7988,-0.7988,-0.7988,-0.7988,-0.7988,-0.7988,-0.7988,-0.7988,-0.7988,-0.7988,-0.7988,-0.7988,-0.7988,-0.7988,-0.7988,-0.7988,-0.7988,-0.7988,-0.7988,-0.7988,-0.7988,-0.7988,-0.8074,-0.8236,-0.8277,-0.8434,0.0,0.1359,0.0,0.0159,0.0,0.0,0.0,0.0,0.0,0.0,0.0,0.0,0.0,0.0,0.0,0.0,0.0,0.0,0.0,0.0,0.0,0.0,0.0,0.0,0.0,0.0,0.0,0.0,0.0,0.0,-0.5769,-0.5769,-0.5751,-0.5751,-0.587,-0.5928,-0.5928,-0.6129,-0.6241,-0.63,-0.63,-0.63,-0.63,-0.63,-0.6303,-0.631,-0.631,-0.6317,-0.6334,-0.6467,-0.6505,-0.6518,-0.6654,-0.6779,-0.6908,-0.6918,-0.698,-0.7095,-0.7095,-0.7095,-0.7095,-0.7095,-0.7095,-0.7095,-0.7095,-0.7095,-0.7095,-0.7095,-0.7102,-0.7109,-0.7109,-0.7265,-0.7406,-0.7406,-0.76,-0.7827,-0.7969,-0.7985,-0.7988,-0.7988,-0.7988,-0.7988,-0.7988,-0.7988,-0.7988,-0.7988,-0.7988,-0.7988,-0.7988,-0.7988,-0.7988,-0.7988,-0.7988,-0.7988,-0.7988,-0.7988,-0.7988,-0.7988,-0.7988,-0.7988,-0.7988,-0.7988,-0.7988,-0.7988,-0.7988,-0.7988,-0.7988,-0.7988,-0.7992,-0.803,-0.8204,-0.8376,0.0,0.0,0.0,0.0149,0.0,0.0,0.0,0.0,0.0,0.0,0.0,0.0,0.0,0.0,0.0,0.0,0.0,0.0,0.0,0.0,0.0,0.0,0.0,0.0,0.0,0.0,0.0,0.0,0.0,0.0,-0.5746,-0.58,-0.58,-0.58,-0.5854,-0.591,-0.599,-0.6066,-0.6162,-0.63,-0.63,-0.63,-0.63,-0.63,-0.63,-0.63,-0.63,-0.63,-0.6303,-0.6354,-0.6375,-0.6388,-0.6518,-0.6607,-0.6647,-0.6746,-0.6853,-0.6982,-0.6982,-0.7021,-0.7095,-0.7095,-0.7095,-0.7095,-0.7095,-0.7095,-0.7095,-0.7095,-0.7095,-0.7095,-0.7095,-0.7158,-0.7272,-0.7472,-0.7597,-0.7743,-0.7962,-0.7988,-0.7988,-0.7988,-0.7988,-0.7988,-0.7988,-0.7988,-0.7988,-0.7988,-0.7988,-0.7988,-0.7988,-0.7988,-0.7988,-0.7988,-0.7988,-0.7988,-0.7988,-0.7988,-0.7988,-0.7988,-0.7988,-0.7988,-0.7988,-0.7988,-0.7988,-0.7988,-0.7988,-0.7988,-0.7988,-0.7988,-0.7988,-0.7992,-0.8071,-0.8204,0.1064,0.0,0.0,0.0,0.0,0.0,0.0,0.0,0.0,0.0,0.0,0.0,0.0,0.0,0.0,0.0,0.0,0.0,0.0,0.0,0.0,0.0,0.0,0.0,0.0,0.0,0.0,0.0,0.0,0.0,-0.5636,-0.5671,-0.5695,-0.5728,-0.5732,-0.58,-0.5934,-0.5934,-0.603,-0.6202,-0.6202,-0.6229,-0.63,-0.63,-0.63,-0.63,-0.63,-0.63,-0.63,-0.63,-0.63,-0.631,-0.6405,-0.647,-0.6505,-0.6607,-0.6722,-0.684,-0.6891,-0.6968,-0.7034,-0.7082,-0.7095,-0.7095,-0.7095,-0.7095,-0.7095,-0.7095,-0.7095,-0.7095,-0.7095,-0.7095,-0.7195,-0.7526,-0.76,-0.7682,-0.7952,-0.7988,-0.7988,-0.7988,-0.7988,-0.7988,-0.7988,-0.7988,-0.7988,-0.7988,-0.7988,-0.7988,-0.7988,-0.7988,-0.7988,-0.7988,-0.7988,-0.7988,-0.7988,-0.7988,-0.7988,-0.7988,-0.7988,-0.7988,-0.7988,-0.7988,-0.7988,-0.7988,-0.7988,-0.7988,-0.7988,-0.7988,-0.7988,-0.7988,-0.7988,-0.8121,0.0,0.0,0.0,0.0,0.0,0.0,0.0,0.0,0.0,0.0,0.0,0.0,0.0,0.0,0.0,0.0,0.0,0.0,0.0,0.0,0.0,0.0,0.0,0.0,0.0,0.0,0.0,0.0,0.0,-0.5395,-0.5395,-0.5395,-0.5463,-0.5596,-0.56,-0.565,-0.5793,-0.5793,-0.5853,-0.5986,-0.599,-0.6108,-0.6293,-0.6296,-0.63,-0.63,-0.63,-0.63,-0.63,-0.63,-0.63,-0.63,-0.63,-0.6385,-0.6484,-0.6484,-0.6583,-0.6715,-0.6847,-0.6904,-0.6931,-0.7051,-0.7095,-0.7095,-0.7095,-0.7095,-0.7095,-0.7095,-0.7095,-0.7095,-0.7095,-0.7095,-0.7195,-0.7519,-0.7597,-0.7678,-0.7946,-0.7985,-0.7988,-0.7988,-0.7988,-0.7988,-0.7988,-0.7988,-0.7988,-0.7988,-0.7988,-0.7988,-0.7988,-0.7988,-0.7988,-0.7988,-0.7988,-0.7988,-0.7988,-0.7988,-0.7988,-0.7988,-0.7988,-0.7988,-0.7988,-0.7988,-0.7988,-0.7988,-0.7988,-0.7988,-0.7988,-0.7988,-0.7988,-0.7988,-0.7995,-0.8175,0.0314,0.0,0.0,0.0,0.0,0.0,0.0,0.0,0.0,0.0,0.0,0.0,0.0,0.0,0.0,0.0,0.0,0.0,0.0,0.0,0.0,0.0,0.0,0.0,0.0,0.0,0.0,0.0,0.0,-0.5395,-0.5395,-0.5395,-0.5416,-0.5457,-0.5457,-0.5515,-0.5647,-0.5647,-0.5722,-0.5849,-0.5957,-0.6035,-0.6098,-0.6229,-0.63,-0.63,-0.63,-0.63,-0.63,-0.63,-0.63,-0.63,-0.63,-0.6323,-0.6358,-0.6358,-0.643,-0.6576,-0.6712,-0.6813,-0.6931,-0.7051,-0.7095,-0.7095,-0.7095,-0.7095,-0.7095,-0.7095,-0.7095,-0.7095,-0.7095,-0.7095,-0.7168,-0.7387,-0.7519,-0.7651,-0.781,-0.7935,-0.7988,-0.7988,-0.7988,-0.7988,-0.7988,-0.7988,-0.7988,-0.7988,-0.7988,-0.7988,-0.7988,-0.7988,-0.7988,-0.7988,-0.7988,-0.7988,-0.7988,-0.7988,-0.7988,-0.7988,-0.7988,-0.7988,-0.7988,-0.7988,-0.7988,-0.7988,-0.7988,-0.7988,-0.7988,-0.7988,-0.7988,-0.7992,-0.8153,-0.8332,0.0,0.0,0.0,0.0,0.0,0.0,0.0,0.0,0.0,0.0,0.0,0.0,0.0,0.0,0.0,0.0,0.0,0.0,0.0,0.0,0.0,0.0,0.0,0.0,0.0,0.0,0.0,0.0,-0.5176,-0.5395,-0.5395,-0.5395,-0.5395,-0.5395,-0.5395,-0.5436,-0.5511,-0.5511,-0.5586,-0.5715,-0.5803,-0.5893,-0.5996,-0.6125,-0.6219,-0.63,-0.63,-0.63,-0.63,-0.63,-0.63,-0.63,-0.63,-0.63,-0.63,-0.63,-0.6354,-0.6446,-0.6576,-0.6705,-0.6837,-0.6982,-0.7048,-0.7095,-0.7095,-0.7095,-0.7095,-0.7095,-0.7095,-0.7095,-0.7095,-0.7095,-0.7158,-0.7355,-0.7464,-0.756,-0.7767,-0.7858,-0.7939,-0.7978,-0.7988,-0.7988,-0.7988,-0.7988,-0.7988,-0.7988,-0.7988,-0.7988,-0.7988,-0.7988,-0.7988,-0.7988,-0.7988,-0.7988,-0.7988,-0.7988,-0.7988,-0.7988,-0.7988,-0.7988,-0.7988,-0.7988,-0.7988,-0.7988,-0.7988,-0.7988,-0.7988,-0.7988,-0.7988,-0.7995,-0.8258,-0.843,0.0,0.0,0.0,0.0,0.0,0.0,0.0,0.0,0.0,0.0,0.0,0.0,0.0,0.0,0.0,0.0,0.0,0.0,0.0,0.0,0.0,0.0,0.0,0.0,0.0,0.0,0.0,-0.4065,-0.4871,-0.5395,-0.5395,-0.5395,-0.5395,-0.5395,-0.5395,-0.5395,-0.5395,-0.5395,-0.5463,-0.5583,-0.56,-0.5728,-0.5964,-0.5979,-0.6105,-0.6276,-0.6293,-0.63,-0.63,-0.63,-0.63,-0.63,-0.63,-0.63,-0.63,-0.63,-0.63,-0.632,-0.6463,-0.6593,-0.6725,-0.6857,-0.698,-0.7095,-0.7095,-0.7095,-0.7095,-0.7095,-0.7095,-0.7095,-0.7095,-0.7095,-0.7154,-0.7335,-0.7382,-0.7471,-0.7726,-0.7801,-0.7834,-0.7986,-0.7988,-0.7988,-0.7988,-0.7988,-0.7988,-0.7988,-0.7988,-0.7988,-0.7988,-0.7988,-0.7988,-0.7988,-0.7988,-0.7988,-0.7988,-0.7988,-0.7988,-0.7988,-0.7988,-0.7988,-0.7988,-0.7988,-0.7988,-0.7988,-0.7988,-0.7988,-0.7988,-0.7988,-0.7988,-0.7995,-0.8326,-0.8492,0.0,0.0,0.0,0.0,0.0,0.0,0.0,0.0,0.0,0.0,0.0,0.0,0.0,0.0,0.0,0.0,0.0,0.0,0.0,0.0,0.0,0.0,0.0,0.0,0.0,0.0,-0.4078,-0.4008,-0.4871,-0.5395,-0.5395,-0.5395,-0.5395,-0.5395,-0.5395,-0.5395,-0.5395,-0.5395,-0.5409,-0.544,-0.5549,-0.562,-0.5684,-0.5903,-0.6028,-0.6062,-0.6226,-0.63,-0.63,-0.63,-0.63,-0.63,-0.63,-0.63,-0.63,-0.63,-0.63,-0.632,-0.6463,-0.6593,-0.6725,-0.6857,-0.698,-0.7095,-0.7095,-0.7095,-0.7095,-0.7095,-0.7095,-0.7095,-0.7095,-0.7095,-0.7102,-0.7154,-0.7282,-0.7444,-0.76,-0.7729,-0.7834,-0.7986,-0.7988,-0.7988,-0.7988,-0.7988,-0.7988,-0.7988,-0.7988,-0.7988,-0.7988,-0.7988,-0.7988,-0.7988,-0.7988,-0.7988,-0.7988,-0.7988,-0.7988,-0.7988,-0.7988,-0.7988,-0.7988,-0.7988,-0.7988,-0.7988,-0.7988,-0.7988,-0.7988,-0.7988,-0.7988,-0.7992,-0.8228,-0.84,0.0,0.0,0.0,0.0,0.0,0.0,0.0,0.0,0.0,0.0,0.0,0.0,0.0,0.0,0.0,0.0,0.0,0.0,0.0,0.0,0.0,0.0,0.0,0.0,0.0,0.0,-0.3464,-0.3956,-0.4786,-0.5297,-0.5392,-0.5395,-0.5395,-0.5395,-0.5395,-0.5395,-0.5395,-0.5395,-0.5395,-0.5395,-0.5474,-0.5532,-0.5613,-0.5817,-0.5941,-0.6018,-0.6212,-0.63,-0.63,-0.63,-0.63,-0.63,-0.63,-0.63,-0.63,-0.63,-0.63,-0.631,-0.6381,-0.6532,-0.6712,-0.6769,-0.6941,-0.7095,-0.7095,-0.7095,-0.7095,-0.7095,-0.7095,-0.7095,-0.7095,-0.7095,-0.7095,-0.7095,-0.7178,-0.7319,-0.755,-0.7655,-0.7749,-0.7969,-0.7988,-0.7988,-0.7988,-0.7988,-0.7988,-0.7988,-0.7988,-0.7988,-0.7988,-0.7988,-0.7988,-0.7988,-0.7988,-0.7988,-0.7988,-0.7988,-0.7988,-0.7988,-0.7988,-0.7988,-0.7988,-0.7988,-0.7988,-0.7988,-0.7988,-0.7988,-0.7988,-0.7988,-0.7988,-0.7992,-0.8197,-0.8372,0.0,0.0,0.0,0.0,0.0,0.0,0.0,0.0,0.0,0.0,0.0,0.0,0.0,0.0,0.0,0.0,0.0,0.0,0.0,0.0,0.0,0.0,0.0,0.0,0.0,0.0,-0.2976,-0.3888,-0.4643,-0.5139,-0.5324,-0.5378,-0.5395,-0.5395,-0.5395,-0.5395,-0.5395,-0.5395,-0.5395,-0.5395,-0.5395,-0.546,-0.5569,-0.5694,-0.5844,-0.5974,-0.6168,-0.6272,-0.63,-0.63,-0.63,-0.63,-0.63,-0.63,-0.63,-0.63,-0.63,-0.63,-0.63,-0.6474,-0.6702,-0.6702,-0.6877,-0.7095,-0.7095,-0.7095,-0.7095,-0.7095,-0.7095,-0.7095,-0.7095,-0.7095,-0.7095,-0.7095,-0.7095,-0.7202,-0.7533,-0.76,-0.7689,-0.7956,-0.7988,-0.7988,-0.7988,-0.7988,-0.7988,-0.7988,-0.7988,-0.7988,-0.7988,-0.7988,-0.7988,-0.7988,-0.7988,-0.7988,-0.7988,-0.7988,-0.7988,-0.7988,-0.7988,-0.7988,-0.7988,-0.7988,-0.7988,-0.7988,-0.7988,-0.7988,-0.7988,-0.7988,-0.7988,-0.7992,-0.8167,-0.8345,0.0,0.0,0.0,0.0,0.0,0.0,0.0,0.0,0.0,0.0,0.0,0.0,0.0,0.0,0.0,0.0,0.0,0.0,0.0,0.0,0.0,0.0,0.0,0.0,0.0,0.0,0.0,-0.3742,-0.451,-0.499,-0.5132,-0.5304,-0.5395,-0.5395,-0.5395,-0.5395,-0.5395,-0.5395,-0.5395,-0.5395,-0.5395,-0.5402,-0.5426,-0.5562,-0.5691,-0.5837,-0.5971,-0.6135,-0.63,-0.63,-0.63,-0.63,-0.63,-0.63,-0.63,-0.63,-0.63,-0.63,-0.63,-0.6474,-0.6702,-0.6702,-0.6877,-0.7095,-0.7095,-0.7095,-0.7095,-0.7095,-0.7095,-0.7095,-0.7095,-0.7095,-0.7095,-0.7095,-0.7095,-0.7202,-0.7533,-0.76,-0.7689,-0.7956,-0.7988,-0.7988,-0.7988,-0.7988,-0.7988,-0.7988,-0.7988,-0.7988,-0.7988,-0.7988,-0.7988,-0.7988,-0.7988,-0.7988,-0.7988,-0.7988,-0.7988,-0.7988,-0.7988,-0.7988,-0.7988,-0.7988,-0.7988,-0.7988,-0.7988,-0.7988,-0.7988,-0.7988,-0.7988,-0.7988,-0.8033,-0.8189,0.0,0.0,0.0,0.0,0.0,0.0,0.0,0.0,0.0,0.0,0.0,0.0,0.0,0.0,0.0,0.0,0.0,0.0,0.0,0.0,0.0,0.0,0.0,0.0,0.0,0.0,0.0,0.0,0.0,-0.4471,-0.5243,-0.524,-0.5287,-0.5392,-0.5395,-0.5395,-0.5395,-0.5395,-0.5395,-0.5395,-0.5395,-0.5395,-0.5399,-0.5535,-0.5667,-0.581,-0.5944,-0.6118,-0.63,-0.63,-0.63,-0.63,-0.63,-0.63,-0.63,-0.63,-0.63,-0.63,-0.63,-0.6474,-0.6729,-0.6877,-0.7019,-0.7095,-0.7095,-0.7095,-0.7095,-0.7095,-0.7095,-0.7095,-0.7095,-0.7095,-0.7095,-0.7095,-0.7095,-0.7202,-0.7533,-0.76,-0.7689,-0.7956,-0.7988,-0.7988,-0.7988,-0.7988,-0.7988,-0.7988,-0.7988,-0.7988,-0.7988,-0.7988,-0.7988,-0.7988,-0.7988,-0.7988,-0.7988,-0.7988,-0.7988,-0.7988,-0.7988,-0.7988,-0.7988,-0.7988,-0.7988,-0.7988,-0.7988,-0.7988,-0.7988,-0.7988,-0.7988,-0.7988,-0.7988,-0.8172,0.0,0.0,0.0,0.0,0.0,0.0,0.0,0.0,0.0,0.0,0.0,0.0,0.0,0.0,0.0,0.0,0.0,0.0,0.0,0.0,0.0,0.0,0.0,0.0,0.0,0.0,0.0,0.0,0.0,0.0,-0.5152,-0.5148,-0.5166,-0.5311,-0.5375,-0.5395,-0.5395,-0.5395,-0.5395,-0.5395,-0.5395,-0.5395,-0.5399,-0.5494,-0.5644,-0.581,-0.59,-0.6078,-0.63,-0.63,-0.63,-0.63,-0.63,-0.63,-0.63,-0.63,-0.63,-0.63,-0.63,-0.6474,-0.6742,-0.6979,-0.7065,-0.7095,-0.7095,-0.7095,-0.7095,-0.7095,-0.7095,-0.7095,-0.7095,-0.7095,-0.7095,-0.7095,-0.7095,-0.7202,-0.7533,-0.76,-0.7689,-0.7956,-0.7988,-0.7988,-0.7988,-0.7988,-0.7988,-0.7988,-0.7988,-0.7988,-0.7988,-0.7988,-0.7988,-0.7988,-0.7988,-0.7988,-0.7988,-0.7988,-0.7988,-0.7988,-0.7988,-0.7988,-0.7988,-0.7988,-0.7988,-0.7988,-0.7988,-0.7988,-0.7988,-0.7988,-0.7988,-0.7988,-0.7988,-0.8172,0.0,0.0,0.0,0.0,0.0,0.0,0.0,0.0,0.0,0.0,0.0,0.0,0.0,0.0,0.0,0.0,0.0,0.0,0.0,0.0,0.0,0.0,0.0,0.0,0.0,0.0,0.0,0.0,0.0,0.0,-0.4672,-0.4963,-0.51,-0.5106,-0.53,-0.5395,-0.5395,-0.5395,-0.5395,-0.5395,-0.5395,-0.5395,-0.5395,-0.5399,-0.5545,-0.58,-0.5806,-0.5998,-0.63,-0.63,-0.63,-0.63,-0.63,-0.63,-0.63,-0.63,-0.63,-0.63,-0.63,-0.6474,-0.6725,-0.6864,-0.6987,-0.7095,-0.7095,-0.7095,-0.7095,-0.7095,-0.7095,-0.7095,-0.7095,-0.7095,-0.7095,-0.7095,-0.7095,-0.7202,-0.7533,-0.76,-0.7689,-0.7956,-0.7988,-0.7988,-0.7988,-0.7988,-0.7988,-0.7988,-0.7988,-0.7988,-0.7988,-0.7988,-0.7988,-0.7988,-0.7988,-0.7988,-0.7988,-0.7988,-0.7988,-0.7988,-0.7988,-0.7988,-0.7988,-0.7988,-0.7988,-0.7988,-0.7988,-0.7988,-0.7988,-0.7988,-0.7988,-0.7988,-0.7988,-0.8172,0.0,0.0,0.0,0.0,0.0,0.0,0.0,0.0,0.0,0.0,0.0,0.0,0.0,0.0,0.0,0.0,0.0,0.0,0.0,0.0,0.0,0.0,0.0,0.0,0.0,0.0,0.0,0.0,0.0,0.0,0.0,-0.5046,-0.516,-0.5297,-0.5368,-0.5395,-0.5395,-0.5395,-0.5395,-0.5395,-0.5395,-0.5395,-0.5399,-0.5484,-0.5637,-0.5806,-0.589,-0.6071,-0.63,-0.63,-0.63,-0.63,-0.63,-0.63,-0.63,-0.63,-0.63,-0.6327,-0.6505,-0.6617,-0.6742,-0.6968,-0.7058,-0.7095,-0.7095,-0.7095,-0.7095,-0.7095,-0.7095,-0.7095,-0.7095,-0.7095,-0.7095,-0.7095,-0.7095,-0.7202,-0.7533,-0.76,-0.7689,-0.7956,-0.7988,-0.7988,-0.7988,-0.7988,-0.7988,-0.7988,-0.7988,-0.7988,-0.7988,-0.7988,-0.7988,-0.7988,-0.7988,-0.7988,-0.7988,-0.7988,-0.7988,-0.7988,-0.7988,-0.7988,-0.7988,-0.7988,-0.7988,-0.7988,-0.7988,-0.7988,-0.7988,-0.7988,-0.7988,-0.7988,-0.7988,-0.8172,0.0,0.0,0.0,0.0,0.0,0.0,0.0,0.0,0.0,0.0,0.0,0.0,0.0,0.0,0.0,0.0,0.0,0.0,0.0,0.0,0.0,0.0,0.0,0.0,0.0,0.0,-0.1637,-0.3274,-0.3368,0.0,0.0,0.0,-0.5067,-0.529,-0.5297,-0.5324,-0.5395,-0.5395,-0.5395,-0.5395,-0.5395,-0.5395,-0.5399,-0.5535,-0.5667,-0.581,-0.5944,-0.6118,-0.63,-0.63,-0.63,-0.63,-0.63,-0.63,-0.63,-0.63,-0.63,-0.6334,-0.6556,-0.6654,-0.6742,-0.6965,-0.7055,-0.7095,-0.7095,-0.7095,-0.7095,-0.7095,-0.7095,-0.7095,-0.7095,-0.7095,-0.7095,-0.7095,-0.7095,-0.7202,-0.7533,-0.76,-0.7689,-0.7956,-0.7988,-0.7988,-0.7988,-0.7988,-0.7988,-0.7988,-0.7988,-0.7988,-0.7988,-0.7988,-0.7988,-0.7988,-0.7988,-0.7988,-0.7988,-0.7988,-0.7988,-0.7988,-0.7988,-0.7988,-0.7988,-0.7988,-0.7988,-0.7988,-0.7988,-0.7988,-0.7988,-0.7988,-0.7988,-0.7988,-0.7988,-0.8172]},{"header":{"parameterUnit":"m.s-1","parameterCategory":1,"la1":30.6,"la2":29.2853,"lo1":-89.7004,"lo2":-87.6739,"dy":0.0162,"dx":0.0183,"nx":112,"ny":82,"refTime":"2025-12-10T12:00:00:Z","depth":0,"parameterNumber":3,"parameterNumberName":"V-component_of_WINDS"},"data":[0.0,0.0,0.0,0.0,0.0,0.0,0.0,0.0,0.0,0.0,0.0,0.0,0.0,0.0,0.0,0.0,0.0,0.0,0.0,0.0,0.0,0.0,0.0,0.0,0.0,0.0,0.0,0.0,0.0,0.0,0.0,0.0,0.0,0.0,0.0,0.0,0.0,0.0,0.0,0.0,0.0,0.0,0.0,0.0,0.0,0.0,0.0,0.0,0.0,0.0,0.0,0.0,0.0,0.0,0.0,0.0,0.0,0.0,0.0,0.0,0.0,0.0,0.0,0.0,0.0,0.0,0.0,0.0,0.0,0.0,0.0,0.0,0.0,0.0,0.0,0.0,0.0,0.0,0.0,0.0,0.0,0.0,0.0,0.0,0.0,0.0,0.0,0.0,0.0,0.0,0.0,2.9061,3.1782,3.2848,3.1488,3.1268,2.9651,2.5998,0.0,0.0,0.0,0.0,0.0,0.0,0.0,0.0,0.0,0.0,0.0,0.0,0.0,0.0,0.0,0.0,0.0,0.0,0.0,0.0,0.0,0.0,0.0,0.0,0.0,0.0,0.0,0.0,0.0,0.0,0.0,0.0,0.0,0.0,0.0,0.0,0.0,0.0,0.0,0.0,0.0,0.0,0.0,0.0,0.0,0.0,0.0,0.0,0.0,0.0,0.0,0.0,0.0,0.0,0.0,0.0,0.0,0.0,0.0,0.0,0.0,0.0,0.0,0.0,0.0,0.0,0.0,0.0,0.0,0.0,0.0,0.0,0.0,0.0,0.0,0.0,0.0,0.0,0.0,0.0,0.0,0.0,0.0,0.0,0.0,0.0,0.0,0.0,0.0,0.0,0.0,0.0,0.0,0.0,0.0,0.0,0.0,0.0,0.0,0.0,0.0,0.0,0.0,0.0,2.6268,3.0422,3.2391,3.3068,3.2209,3.1556,2.9854,2.6733,0.0,0.0,0.0,0.0,0.0,0.0,0.0,0.0,0.0,0.0,0.0,0.0,0.0,0.0,0.0,0.0,0.0,0.0,0.0,0.0,0.0,0.0,0.0,0.0,0.0,0.0,0.0,0.0,0.0,0.0,0.0,0.0,0.0,0.0,0.0,0.0,0.0,0.0,0.0,0.0,0.0,0.0,0.0,0.0,0.0,0.0,0.0,0.0,0.0,0.0,0.0,0.0,0.0,0.0,0.0,0.0,0.0,0.0,0.0,0.0,0.0,0.0,0.0,0.0,0.0,0.0,0.0,0.0,0.0,0.0,0.0,0.0,0.0,0.0,0.0,0.0,0.0,0.0,0.0,0.0,0.0,0.0,0.0,0.0,0.0,0.0,0.0,0.0,0.0,0.0,0.0,0.0,0.0,0.0,0.0,0.0,0.0,0.0,0.0,0.0,0.0,0.0,0.0,2.6911,2.8941,3.2605,3.3947,3.4123,3.2983,3.2215,3.0337,2.6919,2.4749,0.0,0.0,0.0,0.0,0.0,0.0,0.0,0.0,0.0,0.0,0.0,0.0,0.0,0.0,0.0,0.0,0.0,0.0,0.0,0.0,0.0,0.0,0.0,0.0,0.0,0.0,0.0,0.0,0.0,0.0,0.0,0.0,0.0,0.0,0.0,0.0,0.0,0.0,0.0,0.0,0.0,0.0,0.0,0.0,0.0,0.0,0.0,0.0,0.0,0.0,0.0,0.0,0.0,0.0,0.0,0.0,0.0,0.0,0.0,0.0,0.0,0.0,0.0,0.0,0.0,0.0,0.0,0.0,0.0,0.0,0.0,0.0,0.0,0.0,0.0,0.0,0.0,0.0,0.0,0.0,0.0,0.0,0.0,0.0,0.0,0.0,0.0,0.0,0.0,0.0,0.0,0.0,0.0,0.0,0.0,0.0,0.0,0.0,0.0,0.0,0.0,0.0,3.0183,3.1613,3.4229,3.5154,3.5059,3.3768,3.2655,3.0591,2.7165,2.456,0.0,0.0,0.0,0.0,0.0,0.0,0.0,0.0,0.0,0.0,0.0,0.0,0.0,0.0,0.0,0.0,0.0,0.0,0.0,0.0,0.0,0.0,0.0,0.0,0.0,0.0,0.0,0.0,0.0,0.0,0.0,0.0,0.0,0.0,0.0,0.0,0.0,0.0,0.0,0.0,0.0,0.0,0.0,0.0,0.0,0.0,0.0,0.0,0.0,0.0,0.0,0.0,0.0,0.0,0.0,0.0,0.0,0.0,0.0,0.0,0.0,0.0,0.0,0.0,0.0,0.0,0.0,0.0,0.0,0.0,0.0,0.0,0.0,0.0,0.0,0.0,0.0,0.0,0.0,0.0,0.0,0.0,0.0,0.0,0.0,0.0,0.0,0.0,0.0,0.0,0.0,0.0,0.0,0.0,0.0,0.0,0.0,0.0,0.0,0.0,0.0,0.0,3.0412,3.275,3.433,3.5154,3.5289,3.45,3.2486,3.026,2.7874,2.4366,0.0,0.0,0.0,0.0,0.0,0.0,0.0,0.0,0.0,0.0,0.0,0.0,0.0,0.0,0.0,0.0,0.0,0.0,0.0,0.0,0.0,0.0,0.0,0.0,0.0,0.0,0.0,0.0,0.0,0.0,0.0,0.0,0.0,0.0,0.0,0.0,0.0,0.0,0.0,0.0,0.0,0.0,0.0,0.0,0.0,0.0,0.0,0.0,0.0,0.0,0.0,0.0,0.0,0.0,0.0,0.0,0.0,0.0,0.0,0.0,0.0,0.0,0.0,0.0,0.0,0.0,0.0,0.0,0.0,0.0,0.0,0.0,0.0,0.0,0.0,0.0,0.0,0.0,0.0,0.0,0.0,0.0,0.0,0.0,0.0,0.0,0.0,0.0,0.0,0.0,0.0,0.0,0.0,0.0,0.0,0.0,0.0,0.0,0.0,0.0,0.0,0.0,3.0337,3.2527,0.0,3.5442,3.512,3.3931,3.2638,3.0523,2.7317,0.0,0.0,0.0,0.0,0.0,0.0,0.0,0.0,0.0,0.0,0.0,0.0,0.0,0.0,0.0,0.0,0.0,0.0,0.0,0.0,0.0,0.0,0.0,0.0,0.0,0.0,0.0,0.0,0.0,0.0,0.0,0.0,0.0,0.0,0.0,0.0,0.0,0.0,0.0,0.0,0.0,0.0,0.0,0.0,0.0,0.0,0.0,0.0,0.0,0.0,0.0,0.0,0.0,0.0,0.0,0.0,0.0,0.0,0.0,0.0,0.0,0.0,0.0,0.0,0.0,0.0,0.0,0.0,0.0,0.0,0.0,0.0,0.0,0.0,0.0,0.0,0.0,0.0,0.0,0.0,0.0,0.0,0.0,0.0,0.0,0.0,0.0,0.0,0.0,0.0,0.0,0.0,0.0,0.0,0.0,0.0,0.0,0.0,0.0,0.0,0.0,0.0,2.8485,3.0693,3.2763,0.0,3.5256,3.4748,3.3497,3.208,2.9958,2.6886,0.0,0.0,0.0,0.0,0.0,0.0,0.0,0.0,0.0,0.0,0.0,0.0,0.0,0.0,0.0,0.0,0.0,0.0,0.0,0.0,0.0,0.0,0.0,0.0,0.0,0.0,0.0,0.0,0.0,0.0,0.0,0.0,0.0,0.0,0.0,0.0,0.0,0.0,0.0,0.0,0.0,0.0,0.0,0.0,0.0,0.0,0.0,0.0,0.0,0.0,0.0,0.0,0.0,0.0,0.0,0.0,0.0,0.0,0.0,0.0,0.0,0.0,0.0,0.0,0.0,0.0,0.0,0.0,0.0,0.0,0.0,0.0,0.0,0.0,0.0,0.0,0.0,0.0,0.0,0.0,0.0,0.0,0.0,0.0,0.0,0.0,0.0,0.0,0.0,0.0,0.0,0.0,0.0,0.0,0.0,0.0,0.0,0.0,0.0,0.0,0.0,0.0,2.8604,3.1562,3.3677,3.4415,3.4483,3.4184,3.3446,3.0693,2.835,0.0,0.0,0.0,0.0,0.0,0.0,0.0,0.0,0.0,0.0,0.0,0.0,0.0,0.0,0.0,0.0,0.0,0.0,0.0,0.0,0.0,0.0,0.0,0.0,0.0,0.0,0.0,0.0,0.0,0.0,0.0,0.0,0.0,0.0,0.0,0.0,0.0,0.0,0.0,0.0,0.0,0.0,0.0,0.0,0.0,0.0,0.0,0.0,0.0,0.0,0.0,0.0,0.0,0.0,0.0,0.0,0.0,0.0,0.0,0.0,0.0,0.0,0.0,0.0,0.0,0.0,0.0,0.0,0.0,0.0,0.0,0.0,0.0,0.0,0.0,0.0,0.0,0.0,0.0,0.0,0.0,0.0,0.0,0.0,0.0,0.0,0.0,0.0,0.0,0.0,0.0,0.0,0.0,0.0,0.0,0.0,0.0,0.0,0.0,0.0,0.0,0.0,0.0,0.0,3.0768,3.2909,3.3643,3.3728,3.3423,3.2689,3.0869,2.867,2.6099,0.0,0.0,0.0,0.0,0.0,0.0,0.0,0.0,0.0,0.0,0.0,0.0,0.0,0.0,0.0,0.0,0.0,0.0,0.0,0.0,0.0,0.0,0.0,0.0,0.0,0.0,0.0,0.0,0.0,0.0,0.0,0.0,0.0,0.0,0.0,0.0,0.0,0.0,0.0,0.0,0.0,0.0,0.0,0.0,0.0,0.0,0.0,0.0,0.0,0.0,0.0,0.0,0.0,0.0,0.0,0.0,0.0,0.0,0.0,0.0,0.0,0.0,0.0,0.0,0.0,0.0,0.0,0.0,0.0,0.0,0.0,0.0,0.0,0.0,0.0,0.0,0.0,0.0,0.0,0.0,0.0,0.0,0.0,0.0,0.0,0.0,0.0,0.0,0.0,0.0,0.0,0.0,0.0,0.0,0.0,0.0,0.0,0.0,0.0,0.0,0.0,0.0,2.7519,3.0429,3.2479,3.2899,3.2949,3.2655,3.1911,3.0506,2.8501,2.577,0.0,0.0,0.0,0.0,0.0,0.0,0.0,0.0,0.0,0.0,0.0,0.0,0.0,0.0,0.0,0.0,0.0,0.0,0.0,0.0,0.0,0.0,0.0,0.0,0.0,0.0,0.0,0.0,0.0,0.0,0.0,0.0,0.0,0.0,0.0,0.0,0.0,0.0,0.0,0.0,0.0,0.0,0.0,0.0,0.0,0.0,0.0,0.0,0.0,0.0,0.0,0.0,0.0,0.0,0.0,0.0,0.0,0.0,0.0,0.0,0.0,0.0,0.0,0.0,0.0,0.0,0.0,0.0,0.0,0.0,0.0,0.0,0.0,0.0,0.0,0.0,0.0,0.0,0.0,0.0,0.0,0.0,0.0,0.0,0.0,0.0,0.0,0.0,0.0,0.0,0.0,0.0,0.0,0.0,0.0,0.0,0.0,0.0,0.0,0.0,0.0,0.0,2.7435,3.0395,3.2276,3.2209,3.2192,3.1904,3.1157,2.9864,2.8104,2.5753,0.0,0.0,0.0,0.0,0.0,0.0,0.0,0.0,0.0,0.0,0.0,0.0,0.0,0.0,0.0,0.0,0.0,0.0,0.0,0.0,0.0,0.0,0.0,0.0,0.0,0.0,0.0,0.0,0.0,0.0,0.0,0.0,0.0,0.0,0.0,0.0,0.0,0.0,0.0,0.0,0.0,0.0,0.0,0.0,0.0,0.0,0.0,0.0,0.0,0.0,0.0,0.0,0.0,0.0,0.0,0.0,0.0,0.0,0.0,0.0,2.162,0.0,0.0,0.0,0.0,0.0,0.0,0.0,0.0,0.0,0.0,0.0,0.0,0.0,0.0,0.0,0.0,0.0,0.0,0.0,0.0,0.0,0.0,0.0,0.0,0.0,0.0,0.0,0.0,0.0,0.0,0.0,0.0,0.0,0.0,0.0,0.0,0.0,0.0,0.0,0.0,0.0,2.6793,3.0067,3.209,3.1505,3.1437,3.114,3.0395,3.0057,2.8653,2.5787,0.0,0.0,0.0,0.0,0.0,0.0,0.0,0.0,0.0,0.0,0.0,0.0,0.0,0.0,0.0,0.0,0.0,0.0,0.0,0.0,0.0,0.0,0.0,0.0,0.0,0.0,0.0,0.0,0.0,0.0,0.0,0.0,0.0,0.0,0.0,0.0,0.0,0.0,0.0,0.0,0.0,0.0,0.0,0.0,0.0,0.0,0.0,0.0,0.0,0.0,0.0,0.0,0.0,0.0,0.0,0.0,0.0,0.0,0.0,0.0,0.0,2.3883,0.0,0.0,0.0,0.0,0.0,0.0,0.0,0.0,0.0,0.0,0.0,0.0,0.0,0.0,0.0,0.0,0.0,0.0,0.0,0.0,0.0,0.0,0.0,0.0,0.0,0.0,0.0,0.0,0.0,0.0,0.0,0.0,0.0,0.0,0.0,0.0,0.0,0.0,0.0,0.0,2.7122,3.0202,3.2022,3.1285,3.12,3.0903,3.0166,2.9786,2.8738,2.6784,2.4577,0.0,0.0,0.0,0.0,0.0,0.0,0.0,0.0,0.0,0.0,0.0,0.0,0.0,0.0,0.0,0.0,0.0,0.0,0.0,0.0,0.0,0.0,0.0,0.0,0.0,0.0,0.0,0.0,0.0,0.0,0.0,0.0,0.0,0.0,0.0,0.0,0.0,0.0,0.0,0.0,0.0,0.0,0.0,0.0,0.0,0.0,0.0,0.0,0.0,0.0,0.0,0.0,0.0,0.0,0.0,3.1062,3.1062,3.1799,3.2903,2.9813,2.8814,2.9162,0.0,0.0,0.0,0.0,0.0,0.0,0.0,0.0,0.0,0.0,0.0,0.0,0.0,0.0,0.0,0.0,0.0,0.0,0.0,0.0,0.0,0.0,0.0,0.0,0.0,2.9371,2.8907,0.0,0.0,0.0,0.0,0.0,0.0,0.0,0.0,0.0,0.0,0.0,0.0,2.7908,3.0632,3.2165,3.1285,3.12,3.0903,3.0166,2.9542,2.8789,2.7858,2.5972,2.4331,0.0,0.0,0.0,0.0,0.0,0.0,0.0,0.0,0.0,0.0,0.0,0.0,0.0,0.0,0.0,0.0,0.0,0.0,0.0,0.0,0.0,0.0,0.0,0.0,0.0,0.0,0.0,0.0,0.0,0.0,0.0,0.0,2.2016,2.2852,0.0,0.0,0.0,0.0,0.0,0.0,0.0,0.0,0.0,0.0,0.0,0.0,0.0,0.0,2.9202,3.1316,3.2415,3.2533,3.4021,3.4771,3.4873,3.4873,3.5357,3.6186,3.5678,0.0,3.0777,2.9094,0.0,0.0,0.0,0.0,0.0,0.0,0.0,0.0,0.0,0.0,0.0,0.0,0.0,0.0,0.0,0.0,0.0,0.0,0.0,0.0,0.0,0.0,3.0514,3.07,3.0903,3.0666,0.0,2.7021,2.5033,2.4085,0.0,0.0,0.0,0.0,0.0,0.0,0.0,0.0,2.8747,3.141,3.273,3.1343,3.12,3.0903,3.0166,3.0014,2.9337,2.7891,2.6928,2.6327,2.6124,2.4086,0.0,0.0,0.0,0.0,0.0,0.0,0.0,0.0,0.0,0.0,0.0,0.0,0.0,0.0,0.0,0.0,0.0,0.0,0.0,0.0,0.0,0.0,0.0,0.0,0.0,0.0,0.0,0.0,0.0,2.2073,2.396,2.346,2.3842,2.3504,0.0,0.0,0.0,0.0,0.0,0.0,0.0,0.0,0.0,2.9779,3.0565,3.1468,3.256,3.4398,3.552,3.5949,3.7415,3.8345,3.8756,3.9191,3.9563,3.9897,3.9897,3.8493,3.5955,3.2791,3.0632,2.9187,0.0,0.0,0.0,0.0,0.0,0.0,2.9424,0.0,0.0,0.0,0.0,0.0,0.0,0.0,0.0,0.0,0.0,0.0,0.0,0.0,0.0,3.4043,3.4658,3.4759,3.4015,3.2148,2.9753,0.0,2.5938,2.4914,2.2791,0.0,0.0,0.0,0.0,0.0,3.0185,3.2087,3.2821,3.1369,3.12,3.0903,3.0166,3.0098,2.9811,2.9135,2.8399,2.7985,2.7985,2.664,2.4941,0.0,0.0,0.0,0.0,0.0,0.0,0.0,0.0,0.0,0.0,0.0,0.0,0.0,0.0,0.0,0.0,0.0,0.0,0.0,0.0,0.0,0.0,0.0,0.0,0.0,0.0,0.0,0.0,2.4306,2.5685,2.4391,2.5727,2.5592,0.0,0.0,0.0,0.0,0.0,0.0,2.9142,3.068,3.2178,3.3687,3.4641,3.547,3.6208,3.7699,3.8746,3.9301,4.0541,4.1449,4.199,4.2539,4.2796,4.2796,4.2796,4.2157,4.082,3.639,3.3998,3.2943,3.0913,3.0134,0.0,3.1572,3.1698,3.1569,3.3947,3.3941,3.275,3.2036,0.0,2.9948,2.7512,0.0,0.0,0.0,0.0,3.0888,3.2919,0.0,3.4692,3.6406,3.7224,3.7415,3.6665,3.5588,3.3677,0.0,2.9262,2.8391,2.56,0.0,0.0,0.0,0.0,3.1648,3.1508,3.2727,3.2995,3.1362,3.12,3.097,3.042,3.0217,3.0098,3.0098,2.9583,2.9204,2.901,2.861,2.7164,0.0,0.0,0.0,0.0,0.0,0.0,0.0,0.0,0.0,0.0,0.0,0.0,0.0,0.0,0.0,0.0,0.0,0.0,0.0,0.0,0.0,0.0,0.0,0.0,0.0,0.0,0.0,0.0,0.0,0.0,2.6632,2.8518,0.0,0.0,0.0,0.0,2.8604,3.0067,3.1562,3.3041,3.4518,3.6033,3.7572,3.901,4.0126,4.0865,4.2265,4.2994,4.3041,4.3675,4.4012,4.4047,4.4083,4.41,4.41,4.41,4.4065,4.3668,3.9415,3.6794,3.5278,3.3768,3.3176,3.3271,3.4049,3.4313,3.4387,3.5256,3.5047,3.4618,3.6017,3.5447,3.406,3.322,3.252,0.0,0.0,3.3626,3.4584,3.6158,3.6609,3.666,3.6778,3.6829,3.6631,3.5831,3.56,3.507,0.0,3.1451,2.998,2.9794,0.0,0.0,3.071,3.2116,3.281,3.2313,3.3368,3.3409,3.1411,3.12,3.1183,3.1149,3.0497,3.0098,3.0098,3.0065,2.9736,2.9027,2.9634,2.9236,2.7621,2.5439,0.0,0.0,0.0,0.0,0.0,0.0,0.0,0.0,0.0,0.0,0.0,0.0,0.0,0.0,0.0,0.0,0.0,0.0,0.0,0.0,0.0,0.0,0.0,0.0,0.0,0.0,0.0,0.0,2.9627,3.1562,0.0,0.0,3.0117,3.1217,3.2452,3.3941,3.5639,3.7606,3.8654,3.9858,4.1331,4.1894,4.2294,4.2552,4.3429,4.3664,4.3242,4.3845,4.4112,4.4067,4.4067,4.4067,4.4067,4.4067,4.3806,4.3258,4.1743,4.0839,4.0327,3.9326,3.8933,3.9021,3.9764,4.0033,4.0021,3.9893,3.9348,3.8465,3.7217,3.6341,3.5669,3.5015,3.4996,3.5255,3.5515,3.6124,3.6924,3.7951,3.7867,3.7635,3.8103,3.7838,3.7432,3.7133,3.6705,3.6225,3.5684,3.4529,3.3345,3.2381,3.3111,3.3677,3.3188,3.4658,3.5535,3.4784,3.5081,3.4697,3.3,3.2586,3.22,3.1628,3.1113,3.0818,3.0818,3.0818,3.0683,3.0422,3.0666,2.9871,2.7841,2.6556,2.3968,0.0,0.0,0.0,0.0,0.0,0.0,0.0,0.0,0.0,0.0,0.0,0.0,0.0,0.0,0.0,0.0,0.0,0.0,0.0,0.0,0.0,0.0,0.0,0.0,0.0,0.0,3.211,3.2566,3.4408,3.497,3.3187,3.3954,3.5248,3.6911,3.7808,3.9132,4.1085,4.1618,4.2299,4.3237,4.3443,4.3534,4.3534,4.4163,4.4252,4.3798,4.4428,4.4685,4.4635,4.4635,4.4635,4.4635,4.4635,4.4369,4.3917,4.3917,4.3958,4.3927,4.2788,4.2498,4.2811,4.3287,4.3471,4.3416,4.3015,4.2526,4.177,3.991,3.9016,3.8629,3.8217,3.828,3.843,3.8149,3.83,3.8599,3.8809,3.8382,3.7973,3.8205,3.7872,3.7449,3.7183,3.6738,3.6519,3.6945,3.6405,3.5558,3.4591,3.5692,3.6404,3.5461,3.6555,3.7164,3.625,3.621,3.5722,3.4259,3.3618,3.3176,3.2869,3.197,3.153,3.1815,3.1206,3.0767,3.063,3.0515,2.9675,2.8024,2.6796,2.4509,2.1147,0.0,0.0,0.0,0.0,0.0,0.0,0.0,0.0,0.0,0.0,0.0,0.0,0.0,0.0,0.0,0.0,0.0,0.0,0.0,0.0,0.0,0.0,0.0,3.0998,3.2524,3.4117,3.5484,3.709,3.7763,3.6931,3.8254,3.999,4.1959,4.1621,4.1916,4.3291,4.3301,4.3264,4.3289,4.3799,4.4068,4.4068,4.472,4.5039,4.4975,4.5569,4.5847,4.5828,4.5828,4.5828,4.5828,4.5828,4.5828,4.5828,4.5828,4.5847,4.5691,4.3814,4.3577,4.4245,4.4245,4.4234,4.4241,4.4241,4.4241,4.4212,4.4219,4.3687,4.3066,4.3044,4.248,4.1676,4.0891,4.0289,3.9678,3.8911,3.8345,3.7796,3.7073,3.687,3.6621,3.5819,3.5656,3.6003,3.7245,3.6901,3.6433,3.6496,3.6942,3.7347,3.7526,3.7782,0.0,3.6593,3.6701,3.6385,3.5109,3.4277,3.4118,3.488,3.3045,3.2224,3.3028,3.1232,2.9967,2.9566,2.9236,2.8877,2.8466,2.6316,2.4633,2.3495,0.0,0.0,0.0,0.0,0.0,0.0,0.0,0.0,0.0,0.0,0.0,0.0,0.0,0.0,0.0,0.0,0.0,0.0,0.0,0.0,0.0,0.0,3.4534,3.4259,3.6385,3.8725,4.0746,4.1851,4.2358,4.2127,4.2508,4.3223,4.4321,4.4249,4.4325,4.4665,4.4654,4.4881,4.5367,4.552,4.5595,4.5595,4.6218,4.5734,4.4133,4.4729,4.4727,4.4167,4.4167,4.4167,4.4167,4.4167,4.4167,4.4167,4.4167,4.4507,4.5022,4.5084,4.5234,4.5434,4.5434,4.52,4.4849,4.4849,4.4849,4.4776,4.4351,4.435,4.4442,4.3991,4.3299,4.2615,4.2409,4.1803,4.1204,4.0975,4.0432,3.9739,3.8937,3.8352,3.7739,3.6931,3.6756,3.6866,3.7214,3.713,3.7322,3.839,3.9013,3.9208,3.8674,0.0,0.0,3.8182,3.8136,3.7883,3.71,3.6542,3.6076,3.5659,3.4309,0.0,0.0,3.16,3.0918,3.0814,3.0716,3.0365,2.9712,2.8112,2.6805,0.0,0.0,0.0,0.0,0.0,0.0,0.0,0.0,0.0,0.0,0.0,0.0,0.0,0.0,0.0,0.0,0.0,0.0,0.0,0.0,0.0,0.0,3.629,3.8942,3.9486,4.0468,4.1945,4.4139,4.4547,4.49,4.5482,4.4976,4.5299,4.6978,4.6274,4.6009,4.6594,4.6302,4.6153,4.6199,4.6128,4.6066,4.6066,4.6422,4.5946,4.4676,4.5041,4.4966,4.4516,4.4516,4.4323,0.0,4.3993,4.3818,4.3506,4.3506,4.3781,0.0,0.0,0.0,0.0,0.0,4.5699,4.5443,4.5443,4.5443,4.5376,4.5031,4.4925,4.4866,4.4524,4.3856,4.3126,4.2793,4.2213,4.1604,4.1254,4.0714,4.0111,3.9648,3.9215,3.8781,3.8311,3.8212,3.8155,3.8014,0.0,0.0,3.8986,3.9185,3.9175,3.9013,3.9235,3.926,0.0,3.8747,3.8562,3.8208,3.7675,3.7115,3.6604,3.5447,0.0,0.0,0.0,3.1552,3.0904,0.0,0.0,0.0,0.0,0.0,0.0,0.0,0.0,0.0,2.6819,2.6794,0.0,0.0,0.0,0.0,0.0,0.0,0.0,0.0,0.0,0.0,0.0,0.0,0.0,0.0,0.0,0.0,4.008,4.3339,4.5164,4.4422,4.4363,4.6225,4.5953,4.617,4.7521,4.6447,4.6823,4.9531,4.7886,4.7292,4.8508,0.0,0.0,0.0,0.0,4.6049,4.6049,4.6049,4.5993,4.5902,4.5902,4.5902,4.5902,4.5902,4.5516,4.4828,4.4737,4.4287,4.3635,4.3543,4.3506,4.3561,4.4287,4.5002,4.5626,4.5626,4.5681,0.0,0.0,0.0,0.0,4.5902,4.5424,4.4847,4.4847,4.4268,4.3488,4.2763,4.2166,4.1551,4.0845,4.0342,4.0018,3.9929,3.9911,3.9883,3.9794,3.9776,3.9687,3.939,3.9281,3.915,3.8868,3.8372,3.8215,3.8867,3.8804,0.0,3.8937,3.8812,3.8702,3.8721,0.0,0.0,3.7674,3.6464,3.5361,3.4524,3.3375,3.2167,3.0881,3.1268,3.1639,3.188,3.2332,3.3028,3.3919,3.3682,3.3782,3.4132,3.0515,3.0286,0.0,0.0,0.0,0.0,0.0,0.0,0.0,0.0,0.0,0.0,0.0,0.0,0.0,0.0,0.0,3.9254,4.2785,4.5562,4.6588,4.705,4.7451,4.7848,4.7798,4.8088,4.9075,4.8922,4.9253,5.048,4.9576,4.881,4.8379,4.7592,0.0,4.6934,4.6882,4.6865,4.6865,4.6865,4.6535,4.5902,0.0,0.0,4.5902,4.5902,4.581,4.5626,4.4975,4.4608,4.4415,4.3763,4.3506,4.3524,4.3671,4.3836,4.3965,4.3965,4.4378,4.4938,4.4938,4.5369,4.5902,4.5902,4.5792,4.5663,4.5663,4.5112,0.0,4.4278,4.3693,4.3073,4.2926,4.281,4.2584,4.1937,4.1791,4.1599,4.0952,4.0806,4.0795,4.0725,4.036,3.9984,3.9708,3.9041,3.8601,3.8739,3.8719,3.8705,3.8747,3.8719,3.876,3.8926,3.8792,3.8702,3.8702,3.7299,3.5971,3.4943,3.4063,3.3736,3.4082,3.4836,3.4953,3.4345,3.51,3.5257,3.4768,3.5396,3.6062,3.6714,3.392,3.3184,0.0,0.0,0.0,0.0,0.0,0.0,0.0,0.0,0.0,0.0,0.0,3.1875,0.0,0.0,4.0197,4.2776,4.5398,4.7388,4.8233,4.904,4.9407,4.9003,4.8958,4.9123,4.9555,4.9215,4.9307,5.0151,4.9417,4.8958,4.8958,4.8563,4.8159,4.7709,4.7709,4.7709,4.7709,4.7709,4.7507,4.7095,4.7095,4.7095,4.7095,4.7095,4.6883,4.648,4.6076,4.5672,4.5232,4.4433,4.3873,4.3506,4.3506,4.3506,4.3506,4.3506,4.3763,4.4103,4.4103,4.436,4.4699,4.4699,4.4699,4.4699,4.4699,4.4415,4.4103,4.4103,4.3818,4.3506,4.3506,4.3506,4.3396,4.301,4.29,4.279,4.2396,4.2304,4.2176,4.1782,4.1486,4.1135,4.0594,3.9827,3.9166,3.8755,3.8699,3.8699,3.8699,3.8699,3.8742,3.8837,3.8849,3.8694,3.8275,3.7142,3.6398,3.627,3.5495,3.5238,3.5635,3.6064,3.6285,3.6248,3.6677,3.6872,3.6839,3.6872,3.732,3.8065,3.6383,3.5957,0.0,0.0,0.0,0.0,0.0,0.0,0.0,0.0,2.9006,3.1763,3.4085,3.6361,3.8778,4.1158,4.3552,4.5966,4.7737,4.904,4.9729,5.038,5.0618,5.0115,4.9931,4.9894,5.0051,4.9279,4.915,4.9996,4.9132,4.8857,4.9555,4.9435,4.9031,4.8315,4.8296,4.8296,4.8296,4.8296,4.8296,4.8296,4.8296,4.8296,4.8296,4.8296,4.7948,4.7314,4.7168,4.6645,4.5847,4.5195,4.447,4.3726,4.3726,4.3635,4.3506,4.3506,4.3506,4.3506,4.3506,4.3506,4.3506,4.3506,4.3506,4.3506,4.3506,4.3506,4.3506,4.3506,4.3506,4.3506,4.3506,4.3506,4.3506,4.3506,4.3506,4.3506,4.3506,4.3506,4.3304,4.2653,4.2525,4.2286,4.147,4.0799,4.0037,3.9074,3.8799,3.8699,3.8699,3.8699,3.8699,3.8699,3.8699,3.8377,3.7566,3.6898,3.6806,3.7456,3.6898,3.6604,3.6762,3.6769,3.7081,3.7731,3.7724,3.8073,3.8784,3.8136,3.8173,3.8866,3.8216,3.8228,2.8713,2.8148,2.802,2.8535,2.8767,3.004,0.0,0.0,3.5527,3.8274,4.0197,4.1689,4.2721,4.4875,4.6818,4.7856,4.9434,5.0545,5.0655,5.0747,5.1022,5.1657,5.1096,5.0949,5.1657,5.1004,5.0857,5.1675,5.0316,4.95,4.9592,4.8866,4.8398,4.8296,4.8296,4.8296,4.8296,4.8296,4.8296,4.8296,4.8296,4.8296,4.8296,4.8296,4.8241,4.8131,4.7406,4.6645,4.5883,4.5792,4.5296,4.4571,4.4571,4.4121,4.3506,4.3506,4.3506,4.3506,4.3506,4.3506,4.3506,4.3506,4.3506,4.3506,4.3506,4.3506,4.3506,4.3506,4.3506,4.3506,4.3506,4.3506,4.3506,4.3506,4.3506,4.3506,4.3506,4.3506,4.3469,4.3378,4.3378,4.3121,4.2304,4.2084,4.1515,4.0,3.9166,3.8699,3.8699,3.8699,3.8699,3.8699,3.8699,3.8377,3.7566,3.7419,3.7401,3.7492,3.7419,3.7687,3.8388,3.8424,3.8469,3.856,3.8579,3.8722,3.9063,3.8951,3.9118,3.9493,3.9405,3.9246,3.2207,3.1682,0.0,0.0,3.3661,3.5071,3.7618,3.8372,3.9195,4.1521,4.3644,4.5342,4.6159,4.7911,4.9361,0.0,5.0747,5.1499,5.1499,5.1499,5.162,5.1969,5.1279,5.1114,5.1914,5.1261,5.0747,5.061,4.9509,4.8838,4.8838,4.8508,4.8296,4.8296,4.8296,4.8296,4.8296,4.8296,4.8296,4.8296,4.8296,4.8296,4.8296,4.8296,4.8296,4.8278,4.7948,4.7342,4.6608,4.6608,4.6113,4.5351,4.4883,4.448,4.414,4.3671,4.3506,4.3506,4.3506,4.3506,4.3506,4.3506,4.3506,4.3506,4.3506,4.3506,4.3539,4.3742,4.3796,4.3833,4.408,4.4147,4.4147,4.4147,4.4147,4.408,4.3844,4.3974,4.4004,4.3572,4.3855,4.3961,4.3391,4.3051,4.2641,4.1983,4.0851,3.9929,3.946,3.9405,3.9221,3.8755,3.8699,3.856,3.8238,3.8201,3.8201,3.8201,3.8349,3.8581,3.8926,3.9109,3.9222,3.9222,3.9222,3.9282,3.9383,3.9383,3.9456,3.9605,4.0126,4.0363,3.3585,0.0,0.0,3.6059,3.7879,3.9512,4.0487,4.1386,4.254,4.4426,4.6205,4.7691,4.8508,4.9829,0.0,5.0802,5.1665,5.2252,5.2024,5.2005,5.1914,5.1712,5.1151,5.1041,5.161,5.1132,5.0563,4.9968,4.9142,4.8545,4.8315,4.8296,4.8296,4.8296,4.8296,4.8296,4.8296,4.8296,4.8296,4.8296,4.8402,4.8477,4.8477,4.8577,4.8631,4.8631,4.8631,4.8298,4.7761,4.7761,4.7289,4.6491,4.5918,4.5566,4.5251,4.4436,4.3911,4.3629,4.3629,4.372,4.3807,4.3807,4.3807,4.3807,4.3807,4.3807,4.3844,4.4099,4.418,4.4226,4.4527,4.4593,4.4593,4.4593,4.4593,4.452,4.4226,4.438,4.444,4.3899,4.4223,4.4507,4.4211,4.3874,4.3655,4.3655,4.2753,4.1696,4.0637,4.0507,4.0204,3.9382,3.9308,3.9308,3.9308,3.9097,3.9152,3.9611,3.9392,3.935,3.9581,3.96,3.9599,3.9599,3.9599,3.9645,3.9742,3.9742,3.99,4.0227,4.0851,4.1382,0.0,0.0,3.6589,3.8196,4.0398,4.2581,4.4168,4.5168,4.6205,4.7819,4.8205,4.8526,4.9399,5.0243,5.0802,5.0802,5.2131,5.2884,5.2115,5.2005,5.1712,5.093,5.082,5.082,0.0,5.082,5.0802,5.0765,5.0023,4.9197,4.8361,4.8296,4.8296,4.8296,4.8296,4.8296,4.8296,4.8296,4.8296,4.8306,4.8701,4.888,4.8897,4.9288,4.946,4.946,4.946,4.946,4.9422,4.9422,4.8947,4.8221,4.8202,4.7699,4.6921,4.6044,4.4993,4.3967,4.3967,4.4233,4.4579,4.4579,4.4579,4.4579,4.4579,4.4579,4.456,4.4573,4.4573,4.458,4.4612,4.4593,4.4593,4.4593,4.4593,4.4612,4.458,4.4586,4.4586,4.4567,4.458,4.4612,4.458,4.4567,4.4555,4.4555,4.4517,4.3894,4.2253,4.2032,4.1724,4.0913,4.0837,4.0837,4.0837,4.0059,4.0266,4.1894,4.0486,3.9958,4.0811,4.0045,3.9599,3.9599,3.9599,3.9765,4.0086,4.0086,4.0653,4.1734,4.1753,4.2259,0.0,0.0,3.921,4.1358,4.3296,4.4966,4.6058,4.6902,4.7645,4.8186,4.8296,4.8388,4.8673,4.9435,5.0188,5.071,5.1701,5.2307,5.2042,5.2005,5.151,5.017,5.0004,0.0,0.0,0.0,0.0,5.0765,4.9517,4.8857,4.9142,4.8618,4.8296,4.8296,4.855,4.8701,4.8701,4.8963,4.9102,4.9102,4.9234,4.9295,4.9303,4.9438,4.9496,4.9496,4.9496,4.9496,4.9496,4.9496,4.9334,4.9039,4.8513,4.8131,4.7734,4.6317,4.569,4.5426,4.4663,4.4487,4.4593,4.4593,4.4593,4.4593,4.4593,4.4593,4.4657,4.4872,4.4931,4.4977,4.5217,4.5263,4.5263,4.5263,4.5263,4.5192,4.4971,4.5107,4.5134,4.4682,4.496,4.5182,4.4966,4.5118,4.5263,4.5263,4.4389,4.353,4.297,4.2428,4.2,4.1736,4.1698,4.1698,4.1698,4.1427,4.1503,4.2057,4.177,4.1455,4.1184,4.1098,4.0782,4.0212,4.0763,4.1124,4.1223,4.1803,4.2283,4.2685,4.3291,4.3753,3.8127,3.9963,4.1762,4.4176,4.6012,4.7278,4.7489,4.8168,4.8673,4.8351,4.7838,4.7443,4.7443,4.7749,4.843,4.9702,5.0683,5.1501,5.2122,5.1946,5.1423,5.0554,5.0192,0.0,0.0,0.0,0.0,5.096,4.9861,4.9404,4.9997,4.92,4.8728,4.8728,4.898,4.9108,4.9108,4.9371,4.9561,4.9719,4.9719,4.9787,4.993,4.993,4.993,4.993,4.993,4.993,4.993,4.993,4.993,4.9873,4.9366,4.9163,4.8991,4.7597,4.723,4.7155,4.5396,4.4866,4.496,4.496,4.496,4.496,4.496,4.496,4.5,4.5222,4.5287,4.5327,4.5531,4.5594,4.5594,4.5594,4.5594,4.5531,4.5327,4.5443,4.5462,4.5033,4.5317,4.5522,4.5317,4.5467,4.5594,4.5594,4.475,4.4115,4.4115,4.367,4.3238,4.2928,4.289,4.289,4.289,4.2618,4.2718,4.3319,4.2999,4.2661,4.2369,4.2298,4.2008,4.1435,4.1989,4.2275,4.2297,4.2857,4.3318,4.3701,4.4296,4.4757,4.0626,4.2488,4.4314,4.6636,4.8416,4.938,4.8563,4.893,4.9215,4.8306,4.6838,4.57,0.0,0.0,4.5834,4.7932,4.9307,5.0689,5.2387,5.1959,5.1602,0.0,0.0,0.0,0.0,0.0,0.0,5.1495,0.0,5.0696,5.0846,5.0001,4.9496,4.9496,4.9511,4.9525,4.9525,4.9547,4.9753,5.0135,5.0135,5.0336,5.0707,5.0707,5.0707,5.0707,5.0707,5.0707,5.0707,5.0707,5.0707,5.0707,5.0707,5.0707,5.0592,4.9726,4.9394,4.9,4.6212,4.5466,4.5725,4.5686,4.5667,4.5667,4.5614,4.5594,4.5594,4.5594,4.5594,4.5594,4.5594,4.5594,4.5594,4.5594,4.5594,4.5594,4.5594,4.5594,4.5594,4.5594,4.5594,4.5594,4.5594,4.5594,4.5594,4.5594,4.5594,4.5594,4.5594,4.5594,4.5282,4.4455,4.4378,4.4378,4.4378,4.3662,4.3917,4.5498,4.4109,4.3551,4.4275,4.3583,4.3148,4.3122,4.3161,4.3203,4.3284,4.3323,4.3826,4.4759,4.4765,4.5246,4.314,4.5379,4.7388,4.8646,4.927,4.9537,4.9325,4.8471,4.7324,4.5911,4.4342,4.3039,0.0,0.0,0.0,4.7549,4.9942,0.0,5.2897,5.3408,0.0,0.0,0.0,5.2439,5.2028,5.2091,0.0,0.0,5.1111,5.0364,5.1632,5.0296,4.9496,4.9496,4.9787,4.9949,4.9949,5.0249,5.0456,5.0549,5.0549,5.0604,5.0707,5.0707,5.0707,5.0707,5.0707,5.0707,5.0707,5.0707,5.0707,5.0707,5.0707,5.0707,5.0592,4.9726,4.9394,4.9192,4.7823,4.74,4.7355,4.6759,4.6567,4.6451,4.5802,4.5594,4.5594,4.5594,4.5594,4.5594,4.5594,4.5594,4.5594,4.5594,4.5594,4.5594,4.5594,4.5594,4.5594,4.5594,4.5594,4.5594,4.5594,4.5594,4.5594,4.5594,4.5594,4.5594,4.5594,4.5594,4.5513,4.5282,4.5263,4.5263,4.5263,4.5071,4.5148,4.5575,4.5205,4.4819,4.4452,4.4246,4.3882,4.3325,4.3966,4.4292,4.4326,4.4926,4.5349,4.5594,4.5707,4.586,4.5617,4.7553,4.9126,5.0138,5.0361,5.001,4.8744,4.7711,4.6118,4.3021,4.1672,0.0,0.0,0.0,0.0,0.0,0.0,0.0,5.377,5.4135,5.4041,0.0,5.3714,0.0,5.3632,5.3166,5.3223,0.0,5.1921,5.1136,5.2456,5.0951,5.0031,5.0031,5.0249,5.0358,5.0358,5.0594,5.0707,5.0707,5.0707,5.0707,5.0707,5.0707,5.0707,5.0707,0.0,5.0707,5.0707,5.0707,5.0707,5.0707,5.0707,5.0707,5.063,5.0149,4.9976,4.9899,4.9413,4.924,4.9048,4.7812,4.7197,4.6812,4.6317,4.5898,4.5594,4.5594,4.5594,4.5594,4.5594,4.5594,4.5594,4.5594,4.5594,4.5594,4.5594,4.5594,4.5594,4.5594,4.5594,4.5625,4.568,4.5696,4.5708,4.5736,4.5727,4.5727,4.5727,4.5653,4.5594,4.5594,4.564,4.5696,4.5696,4.5701,4.5727,4.5727,4.5727,4.5541,4.5129,4.5113,4.4919,4.4506,4.4971,4.5268,4.531,4.5776,4.6027,4.6078,4.6149,4.6197,4.7838,4.9095,5.0012,5.1055,5.1228,5.0401,4.7545,4.6568,4.4893,4.0065,0.0,3.8434,3.7092,3.9114,4.2063,4.5356,0.0,5.1121,5.4543,5.4371,5.4344,5.5561,5.5068,5.4895,5.5478,5.4222,5.3645,5.428,5.2813,5.2236,5.2986,5.1553,5.0707,5.0707,5.0707,5.0707,5.0707,5.0707,5.0707,5.0707,5.0707,5.0707,5.0707,5.0707,5.0707,5.0707,0.0,0.0,5.0707,5.0707,5.0707,5.0707,5.0707,5.0712,5.074,5.074,5.074,5.0748,5.0748,5.069,5.031,4.8643,4.762,4.7024,4.6793,4.6201,4.5594,4.5594,4.5594,4.5599,4.561,4.5637,4.5627,4.5636,4.5644,4.5644,4.5644,4.5644,4.5644,4.5644,4.5644,4.5681,4.579,4.5815,4.5822,4.5885,4.5901,4.5901,4.5901,4.5757,4.5644,4.5644,4.5742,4.5815,4.5815,4.5876,4.5901,4.5901,4.5901,4.5907,4.5922,4.5922,4.593,4.5944,4.5944,4.6003,4.6139,4.6139,4.6197,4.6308,4.6308,4.6308,4.8885,4.9968,5.0639,5.0848,5.0602,4.9629,4.7022,4.456,0.0,0.0,0.0,3.5518,3.6004,3.7864,4.085,4.5551,0.0,0.0,0.0,0.0,5.4707,0.0,0.0,0.0,0.0,0.0,0.0,0.0,0.0,0.0,5.212,5.1221,5.0707,5.0707,5.0707,5.0707,5.0707,5.0707,5.0707,5.0707,5.0707,5.0707,5.0707,5.0707,5.0707,5.0707,0.0,0.0,5.0707,5.0707,5.0707,5.0707,5.0707,5.0775,5.0875,5.0875,5.0939,5.1039,5.1039,5.0567,4.9743,4.8499,4.8005,4.762,4.6244,4.5725,4.5594,4.5594,4.5594,4.5637,4.5733,4.5772,4.577,4.5825,4.5854,4.5854,4.5854,4.5854,4.5854,4.5854,4.5854,4.5862,4.5884,4.5889,4.5896,4.5897,4.5901,4.5901,4.5901,4.5862,4.5854,4.5854,4.5874,4.5889,4.5889,4.5888,4.5901,4.5901,4.5901,4.594,4.6051,4.6073,4.6116,4.6225,4.6225,4.6246,4.6268,4.6268,4.6288,4.6308,4.6308,4.6308,4.9673,5.0451,5.0913,5.1561,5.0566,4.8577,4.5376,0.0,0.0,0.0,0.0,3.3172,3.3631,0.0,0.0,0.0,0.0,0.0,0.0,0.0,0.0,0.0,0.0,0.0,0.0,0.0,0.0,0.0,0.0,0.0,5.1885,5.1144,5.0707,5.0707,5.0707,5.0707,5.0707,5.0707,5.0707,5.0707,5.0707,5.0707,5.0707,5.0707,5.0707,5.0707,0.0,0.0,5.0024,5.01,4.9858,4.9461,4.9525,4.9598,4.9652,4.9652,4.9698,4.9759,4.9759,4.9464,4.8956,4.796,4.7636,4.7484,4.6678,4.6119,4.5751,4.5751,4.5751,4.577,4.5847,4.5845,4.5863,4.5888,4.5901,4.5901,4.5901,4.5901,4.5901,4.5901,4.5901,4.5918,4.599,4.5998,4.6033,4.6108,4.6113,4.6113,4.6113,4.6113,4.6047,4.5914,4.5951,4.5998,4.5998,4.6075,4.6113,4.6113,4.6113,4.6143,4.62,4.6201,4.6226,4.6308,4.6308,4.6308,4.6308,4.6308,4.6308,4.6308,4.6308,4.6308,5.0042,5.0632,5.0906,5.1714,5.0196,4.7442,4.3368,3.9853,0.0,0.0,3.1138,3.1044,3.1599,0.0,3.743,0.0,0.0,0.0,0.0,0.0,0.0,0.0,0.0,0.0,0.0,0.0,0.0,0.0,0.0,0.0,0.0,5.1029,5.0707,5.0707,5.0707,5.0707,5.0707,5.0707,5.0707,5.0707,5.0707,5.0707,5.0693,5.0548,5.0455,5.0455,0.0,0.0,0.0,4.9318,4.8968,4.8344,4.8463,4.8521,4.8546,4.8546,4.8563,4.8583,4.8583,4.8464,4.8193,4.7519,4.7256,4.7176,4.6984,4.6441,4.5901,4.5901,4.5901,4.5905,4.595,4.5936,4.5942,4.5981,4.5987,4.5987,4.5987,4.5987,4.5987,4.5987,4.5987,4.6027,4.6119,4.6145,4.6175,4.6289,4.6308,4.6308,4.6308,4.6308,4.6223,4.6001,4.6081,4.6145,4.6145,4.6246,4.6308,4.6308,4.6308,4.6289,4.6267,4.6267,4.6247,4.6203,4.6203,4.6203,4.6203,4.6246,4.6246,4.6203,4.6247,4.6246,4.9704,5.0413,5.0538,4.9855,4.8647,4.6338,4.1404,0.0,0.0,3.1231,2.9313,2.897,3.1275,3.2022,0.0,0.0,0.0,4.3523,0.0,0.0,0.0,0.0,0.0,0.0,0.0,0.0,0.0,0.0,0.0,0.0,0.0,5.0745,5.0707,5.0707,5.0707,5.0707,5.0707,5.0707,5.0707,5.0707,5.0707,5.0707,5.0678,5.0007,4.9699,4.9668,0.0,0.0,0.0,4.8595,4.8542,4.8487,4.8499,4.8575,4.867,4.867,4.8764,4.8865,4.8865,4.8357,4.7674,4.7596,4.7394,4.7042,4.6268,4.5957,4.5901,4.5901,4.5901,4.5924,4.6046,4.6081,4.6114,4.6226,4.6268,4.6268,4.6268,4.6268,4.6268,4.6268,4.6268,4.6268,4.6289,4.6289,4.6289,4.6308,4.6308,4.6308,4.6308,4.6308,4.6289,4.6268,4.6269,4.6289,4.6289,4.6289,4.6308,4.6308,4.6308,4.6247,4.6119,4.6117,4.6051,4.5932,4.593,4.593,4.593,4.605,4.6068,4.5932,4.6051,4.6047,4.9118,5.0169,5.0481,4.9616,4.7471,4.4523,4.05,0.0,3.2522,3.0102,2.8275,2.7736,2.9759,3.0561,3.208,0.0,0.0,0.0,0.0,0.0,0.0,0.0,0.0,0.0,0.0,0.0,0.0,0.0,0.0,0.0,0.0,5.0734,5.0707,5.0707,5.0707,5.0707,5.0707,5.0707,5.0744,5.0807,5.0292,5.0082,5.0121,4.9307,4.8943,0.0,0.0,0.0,0.0,4.7805,4.7538,4.7059,4.714,4.7205,4.7257,4.7257,4.7282,4.7344,4.7344,4.7109,4.6816,4.6816,4.6751,4.6592,4.6241,4.6145,4.6145,4.6145,4.6145,4.6149,4.6201,4.6223,4.6226,4.6289,4.6308,4.6308,4.6308,4.6308,4.6308,4.6308,4.6308,4.6308,4.6308,4.6308,4.6308,4.6308,4.6308,4.6308,4.6308,4.6308,4.6308,4.6308,4.6308,4.6308,4.6308,4.6308,4.6308,4.6308,4.6224,4.6169,4.609,4.603,4.5944,4.5901,4.5901,4.5901,4.5901,4.5944,4.5942,4.5901,4.5946,4.5942,4.7806,4.9182,4.9726,4.8875,4.6278,4.3066,0.0,3.5161,3.1141,2.9143,2.739,2.6656,2.8104,2.9063,3.0407,3.2699,0.0,3.6103,0.0,0.0,0.0,0.0,0.0,0.0,0.0,0.0,0.0,0.0,0.0,0.0,0.0,0.0,5.0822,5.0822,5.0822,5.0683,5.0447,5.0428,5.0345,5.0183,4.9572,4.9322,4.9387,4.8544,4.8169,0.0,0.0,0.0,0.0,4.703,4.6714,4.6173,4.6268,4.6308,4.6308,4.6308,4.6308,4.6308,4.6308,4.6308,4.6308,4.6308,4.6308,4.6308,4.6308,4.6308,4.6308,4.6308,4.6308,4.6308,4.6308,4.6308,4.6308,4.6308,4.6308,4.6308,4.6308,4.6308,4.6308,4.6308,4.6308,4.6308,4.6308,4.6308,4.6308,4.6308,4.6308,4.6308,4.6308,4.6308,4.6308,4.6308,4.6308,4.6308,4.6308,4.6308,4.6289,4.6247,4.6148,4.6072,4.6006,4.5912,4.5846,4.5803,4.58,4.58,4.58,4.5844,4.5844,4.5803,4.5846,4.5844,4.559,4.7204,4.7928,4.7139,4.5004,4.222,0.0,3.4737,3.0987,2.8431,2.6522,2.5577,2.6464,2.7332,2.8486,3.0173,3.3288,0.0,0.0,0.0,0.0,0.0,0.0,0.0,0.0,0.0,0.0,0.0,0.0,0.0,0.0,0.0,5.1106,5.1106,5.1106,5.0675,4.9812,4.9812,4.9382,4.8521,4.8521,4.8502,4.8487,4.7743,0.0,0.0,0.0,0.0,0.0,4.6308,4.6308,4.6308,4.6308,4.6308,4.6308,4.6308,4.6308,4.6308,4.6308,4.6308,4.6308,4.6308,4.6308,4.6308,4.6308,4.6308,4.6308,4.6308,4.6308,4.6308,4.6308,4.6308,4.6308,4.6308,4.6308,4.6308,4.6308,4.6308,4.6308,4.6308,4.6308,4.6308,4.6308,4.6308,4.6308,4.6308,4.6308,4.6308,4.6308,4.6308,4.6308,4.6308,4.6308,4.6308,4.6308,4.6308,4.6247,4.6114,4.6109,4.6003,4.5819,4.5803,4.5736,4.5603,4.5599,4.5599,4.5599,4.5733,4.5729,4.5607,4.5736,4.5725,4.1843,4.3487,4.4201,4.22,4.02,3.7984,3.5161,3.2125,2.9374,2.7409,2.6099,2.5577,2.6445,2.6832,2.8332,3.2333,3.391,0.0,0.0,0.0,0.0,0.0,0.0,0.0,0.0,0.0,0.0,0.0,0.0,0.0,0.0,0.0,4.9687,5.0192,5.0209,4.9798,4.8915,4.8915,4.8823,4.8623,4.8035,4.7791,4.785,0.0,0.0,0.0,0.0,0.0,0.0,4.6308,4.6308,4.6308,4.6308,4.6308,4.6308,4.6308,4.6308,4.6308,4.6308,4.6308,4.6308,4.6308,4.6308,4.6308,4.6308,4.6308,4.6308,4.6308,4.6308,4.6308,4.6308,4.6308,4.6308,4.6308,4.6308,4.6308,4.6308,4.6308,4.6308,4.6308,4.6308,4.6308,4.6308,4.6308,4.6308,4.6308,4.6308,4.6308,4.6308,4.6308,4.6268,4.6174,4.6152,4.6152,4.6152,4.6152,4.6112,4.5976,4.592,4.5867,4.5806,4.5715,4.5647,4.5594,4.5594,4.5594,4.5594,4.5643,4.5643,4.5594,4.5647,4.5643,3.7936,3.9873,4.0796,3.9204,3.7276,3.5257,3.3333,3.0682,2.8258,2.689,2.5904,2.5462,2.6,2.6408,2.7788,3.1281,3.2695,0.0,0.0,0.0,0.0,0.0,0.0,0.0,0.0,0.0,0.0,0.0,0.0,0.0,0.0,0.0,4.8833,4.8964,4.9295,4.904,4.816,4.816,4.805,4.7792,4.7246,4.7023,4.709,0.0,0.0,0.0,0.0,0.0,0.0,4.6308,4.6308,4.6308,4.6308,4.6308,4.6308,4.6308,4.6308,4.6308,4.6308,4.6308,4.6308,4.6308,4.6268,4.6222,4.6152,4.6223,4.6308,4.6308,4.6308,4.6308,4.6308,4.6308,4.6308,4.6308,4.6308,4.6308,4.6308,4.6268,4.6246,4.6289,4.6223,4.6171,4.6223,4.6176,4.6147,4.6147,4.6147,4.6147,4.6147,4.6147,4.6116,4.6036,4.6011,4.6018,4.5983,4.6013,4.5974,4.5876,4.5817,4.5789,4.5737,4.5647,4.5594,4.5594,4.5594,4.5594,4.5594,4.5594,4.5594,4.5594,4.5594,4.5594,0.0,3.6138,3.743,3.7315,3.551,3.351,3.2641,3.0047,0.0,2.6697,2.5865,2.5344,2.5462,2.6159,2.7086,2.8258,0.0,0.0,0.0,0.0,0.0,0.0,0.0,0.0,0.0,0.0,0.0,0.0,0.0,0.0,0.0,0.0,0.0,0.0,4.8281,4.832,4.7519,4.7519,4.7109,4.6308,4.6308,4.6308,4.6308,0.0,0.0,0.0,0.0,0.0,0.0,4.6308,4.6308,4.6308,4.6308,4.6308,4.6308,4.6308,4.6289,4.6289,4.6289,4.6289,4.6269,4.6269,4.6197,4.6053,4.5932,4.6077,4.6269,4.6269,4.6269,4.6269,4.6269,4.6269,4.6269,4.6269,4.6269,4.6269,4.6269,4.6174,4.6119,4.6247,4.6076,4.5932,4.6053,4.5985,4.5901,4.5901,4.5901,4.5901,4.5901,4.5901,4.5897,4.5888,4.5888,4.5854,4.5796,4.585,4.5852,4.5793,4.5783,4.5722,4.5603,4.5594,4.5594,4.5594,4.5594,4.5594,4.5594,4.5594,4.5594,4.5594,4.5594,4.5594,2.8398,0.0,3.1888,3.0583,2.9816,2.9143,0.0,2.7467,2.6656,2.5788,2.544,2.5712,2.7044,2.6968,2.803,0.0,0.0,0.0,0.0,0.0,0.0,0.0,0.0,0.0,0.0,0.0,0.0,0.0,0.0,0.0,0.0,0.0,0.0,4.6601,4.6797,4.6816,4.6601,4.6601,4.6504,4.6308,4.6308,4.6308,0.0,0.0,0.0,0.0,0.0,0.0,0.0,4.6308,4.6308,4.6308,4.6308,4.6308,4.6308,4.6308,4.6245,4.6146,4.6146,4.608,4.5992,4.5992,4.5978,4.5934,4.5907,4.5936,4.5992,4.5992,4.5992,4.5992,4.5992,4.5992,4.5992,4.5992,4.5992,4.5992,4.5992,4.5974,4.5965,4.5988,4.5936,4.591,4.5934,4.5918,4.5901,4.5901,4.5901,4.5901,4.5901,4.5901,4.5884,4.5832,4.582,4.577,4.5653,4.5759,4.5767,4.5648,4.5651,4.5631,4.5594,4.5594,4.5594,4.5594,4.5594,4.5594,4.5594,4.5594,4.5594,4.5594,4.5594,4.5594,2.6,2.7868,2.9583,2.8681,2.8162,2.7777,2.7294,2.6579,2.5865,2.5401,0.0,2.576,2.7107,2.738,0.0,0.0,0.0,0.0,0.0,0.0,0.0,0.0,0.0,0.0,0.0,0.0,0.0,0.0,0.0,0.0,0.0,0.0,0.0,0.0,4.6308,4.6308,4.6308,4.6308,4.6308,4.6308,4.6308,4.6308,0.0,0.0,0.0,0.0,0.0,0.0,4.6308,4.6308,4.6308,4.6308,4.6308,4.6268,4.6202,4.6202,4.6119,4.6001,4.6001,4.5969,4.5892,4.5852,4.585,4.5839,4.5786,4.5761,4.5776,4.5869,4.5901,4.5901,4.5901,4.5901,4.5901,4.5901,4.5901,4.5901,4.5901,4.5874,4.5868,4.589,4.5822,4.5786,4.5839,4.5794,4.5761,4.5761,4.5761,4.5761,4.5761,4.5761,4.5744,4.5703,4.5711,4.5684,4.5603,4.5665,4.568,4.5599,4.5594,4.5594,4.5594,4.5594,4.5782,4.6182,4.6201,4.6374,4.6744,4.6374,4.6201,4.6182,4.5782,4.5594,2.5615,2.7351,2.9011,2.8624,2.8104,2.7662,2.7527,0.0,0.0,0.0,0.0,0.0,0.0,2.8128,0.0,0.0,0.0,0.0,0.0,0.0,0.0,0.0,0.0,0.0,0.0,0.0,0.0,0.0,0.0,0.0,0.0,0.0,0.0,0.0,4.6308,4.623,4.6094,4.623,4.6308,4.6308,4.6308,4.6308,4.6308,0.0,0.0,0.0,0.0,0.0,4.6308,4.6308,4.6308,4.6308,4.6288,4.62,4.6108,4.6078,4.5985,4.5889,4.5869,4.5842,4.5844,4.579,4.5778,4.5751,4.5631,4.5594,4.5632,4.5814,4.5842,4.5842,4.5842,4.5842,4.5842,4.5842,4.5842,4.5842,4.5842,4.5804,4.5783,4.5839,4.5719,4.5635,4.5751,4.5677,4.5594,4.5594,4.5594,4.5594,4.5594,4.5594,4.5594,4.5594,4.5594,4.5594,4.5594,4.5594,4.5594,4.5594,4.5594,4.5594,4.5594,4.5594,4.5956,4.6697,4.6831,4.7178,4.7721,4.7178,4.6831,4.6678,4.5936,4.5594,2.7101,2.8277,2.8585,2.6426,2.6349,2.6618,2.5865,2.55,0.0,0.0,0.0,0.0,0.0,0.0,0.0,0.0,0.0,0.0,0.0,0.0,0.0,0.0,0.0,0.0,0.0,0.0,0.0,0.0,0.0,0.0,0.0,0.0,0.0,0.0,0.0,4.5957,4.5215,4.5937,4.6308,4.6308,4.6308,4.6308,4.6308,4.6308,0.0,0.0,0.0,0.0,4.6308,4.6308,4.6308,4.6289,4.6174,4.6117,4.6083,4.5978,4.5889,4.5799,4.57,4.5657,4.5633,4.5635,4.5627,4.5637,4.5603,4.5594,4.5607,4.5636,4.5657,4.5657,4.5657,4.5657,4.5657,4.5657,4.5657,4.5657,4.5657,4.5647,4.5635,4.5629,4.5622,4.5603,4.5637,4.5616,4.5594,4.5594,4.5594,4.5594,4.5594,4.5594,4.5594,4.5594,4.5594,4.5594,4.5594,4.5594,4.5594,4.5594,4.5594,4.5594,4.5594,4.5594,4.5667,4.5802,4.6528,4.6605,4.5994,4.6605,4.6528,4.5802,4.5667,4.5594,2.6272,2.7101,2.7582,2.689,2.8075,2.918,2.831,2.8179,0.0,0.0,0.0,0.0,0.0,0.0,0.0,0.0,0.0,0.0,0.0,0.0,0.0,0.0,0.0,0.0,0.0,0.0,0.0,0.0,0.0,0.0,0.0,0.0,0.0,0.0,0.0,0.0,4.4297,4.4687,4.4902,4.4902,4.4902,4.4902,4.4902,4.4902,4.5156,0.0,0.0,4.5605,4.5605,4.5605,4.5291,4.487,4.524,4.5321,4.5271,4.5608,4.5724,4.5673,4.5629,4.5594,4.5594,4.5594,4.5594,4.5594,4.5594,4.5594,4.5594,4.5594,4.5594,4.5594,4.5594,4.5594,4.5594,4.5594,4.5594,4.5594,4.5594,4.5594,4.5594,4.5594,4.5594,4.5594,4.5594,4.5594,4.5594,4.5594,4.5594,4.5594,4.5594,4.5594,4.5594,4.5594,4.5594,4.5594,4.5594,4.5594,4.5594,4.5594,4.5594,4.5594,4.5594,4.5594,4.5821,4.6297,4.6697,4.6928,4.6951,4.6928,4.6697,4.6297,4.5821,4.5594,2.5808,2.6406,2.7101,2.797,0.0,3.0625,3.0774,3.0584,0.0,0.0,0.0,0.0,0.0,0.0,0.0,0.0,0.0,0.0,0.0,0.0,0.0,0.0,0.0,0.0,0.0,0.0,0.0,0.0,0.0,0.0,0.0,0.0,0.0,0.0,0.0,0.0,4.3398,4.3398,4.3496,4.3691,4.3691,4.3691,4.3691,4.3691,4.4062,4.4707,4.4707,4.4687,4.4666,4.4666,4.4224,4.3613,4.4196,4.4445,4.4522,4.5095,4.5417,4.5594,4.5594,4.5594,4.5594,4.5594,4.5594,4.5594,4.5594,4.5594,4.5594,4.5594,4.5594,4.5594,4.5594,4.5594,4.5594,4.5594,4.5594,4.5594,4.5594,4.5594,4.5594,4.5594,4.5594,4.5594,4.5594,4.5594,4.5594,4.5594,4.5594,4.5594,4.5594,4.5594,4.5594,4.5594,4.5594,4.5594,4.5594,4.5594,4.5594,4.5594,4.5594,4.5594,4.5594,4.5594,4.5917,4.6581,4.6793,4.7101,4.7509,4.7101,4.6793,4.6586,4.5917,4.5594,2.7274,2.7758,2.8008,2.8819,2.7997,2.7803,3.0983,3.0517,0.0,3.2603,0.0,0.0,0.0,0.0,0.0,0.0,0.0,0.0,0.0,0.0,0.0,0.0,0.0,0.0,0.0,0.0,0.0,0.0,0.0,0.0,0.0,0.0,0.0,0.0,0.0,0.0,4.25,4.248,4.2891,4.3691,4.3691,4.3691,4.3691,4.3691,4.373,4.3789,4.3789,4.3765,4.3699,4.3699,4.3587,4.3407,4.3343,4.3729,4.4322,4.4363,4.4917,4.5594,4.5594,4.5594,4.5594,4.5594,4.5594,4.5594,4.5594,4.5594,4.5594,4.5594,4.5594,4.5594,4.5594,4.5594,4.5594,4.5594,4.5594,4.5594,4.5594,4.5594,4.5594,4.5594,4.5594,4.5594,4.5594,4.5594,4.5594,4.5594,4.5594,4.5594,4.5594,4.5594,4.5594,4.5594,4.5594,4.5594,4.5594,4.5594,4.5594,4.5594,4.5594,4.5594,4.5594,4.5594,4.5633,4.5686,4.649,4.6528,4.5782,4.6528,4.649,4.5686,4.5633,4.5594,2.5964,2.6676,2.7409,2.8761,2.9025,0.0,0.0,3.3048,3.4173,3.685,3.7244,0.0,0.0,0.0,0.0,0.0,0.0,0.0,0.0,0.0,0.0,0.0,0.0,0.0,0.0,0.0,0.0,0.0,0.0,0.0,0.0,0.0,0.0,0.0,0.0,0.0,0.0,4.1641,4.1816,4.2148,4.2148,4.2148,4.2148,4.2063,4.2338,4.2871,4.2763,4.2742,4.2791,4.2694,4.2286,4.177,4.2166,4.283,4.3547,4.3547,4.409,4.4782,4.4782,4.5148,4.5594,4.5594,4.5594,4.5594,4.5594,4.5594,4.5594,4.5594,4.5594,4.5594,4.5594,4.5594,4.5594,4.5594,4.5594,4.5594,4.5594,4.5594,4.5594,4.5594,4.5594,4.5594,4.5594,4.5594,4.5594,4.5594,4.5594,4.5594,4.5594,4.5594,4.5594,4.5594,4.5594,4.5594,4.5594,4.5594,4.5594,4.5594,4.5594,4.5594,4.5594,4.5594,4.5594,4.5594,4.5917,4.5936,4.5594,4.5936,4.5917,4.5594,4.5594,4.5594,2.4832,2.5541,2.6592,2.8323,0.0,0.0,3.3443,3.4772,3.6379,3.9648,3.9844,0.0,0.0,0.0,0.0,0.0,0.0,0.0,0.0,0.0,0.0,0.0,0.0,0.0,0.0,0.0,0.0,0.0,0.0,0.0,0.0,0.0,0.0,0.0,0.0,0.0,0.0,4.1191,4.1191,4.1191,4.115,4.1148,4.1128,4.0995,4.1284,4.1896,4.1757,4.1721,4.1788,4.1699,4.1258,4.0688,4.1197,4.1912,4.2701,4.2701,4.322,4.3912,4.3912,4.4474,4.5186,4.5186,4.5379,4.5594,4.5594,4.5594,4.5594,4.5594,4.5594,4.5594,4.5594,4.5594,4.5594,4.5594,4.5594,4.5594,4.5594,4.5594,4.5594,4.5594,4.5594,4.5594,4.5594,4.5594,4.5594,4.5594,4.5594,4.5594,4.5594,4.5594,4.5594,4.5594,4.5594,4.5594,4.5594,4.5594,4.5594,4.5594,4.5594,4.5594,4.5594,4.5594,4.5594,4.5594,4.5594,4.5594,4.5594,4.5594,4.5594,4.5594,4.5594,4.5744,2.4319,2.4699,2.5755,0.0,0.0,0.0,3.489,3.5182,3.5774,4.0272,0.0,0.0,0.0,0.0,0.0,0.0,0.0,0.0,0.0,0.0,0.0,0.0,0.0,0.0,0.0,0.0,0.0,0.0,0.0,0.0,0.0,0.0,0.0,0.0,0.0,0.0,0.0,4.1191,4.1191,4.1191,4.1055,4.0995,4.0994,4.0862,4.0797,4.0799,4.0797,4.0769,4.0697,4.0697,4.0623,4.0496,4.0496,4.1031,4.1793,4.1793,4.2331,4.3085,4.3085,4.3605,4.4297,4.4297,4.4878,4.5594,4.5594,4.5594,4.5594,4.5594,4.5594,4.5594,4.5594,4.5594,4.5594,4.5594,4.5594,4.5594,4.5594,4.5594,4.5594,4.5594,4.5594,4.5594,4.5594,4.5594,4.5594,4.5594,4.5594,4.5594,4.5594,4.5594,4.5594,4.5594,4.5594,4.5594,4.5594,4.5594,4.5594,4.5594,4.5594,4.5594,4.5594,4.5594,4.5594,4.5594,4.5594,4.5594,4.5594,4.5594,4.5594,4.5594,4.5614,4.6071,2.4165,2.562,0.0,2.8623,0.0,0.0,0.0,3.5672,0.0,0.0,0.0,0.0,0.0,0.0,0.0,0.0,0.0,0.0,0.0,0.0,0.0,0.0,0.0,0.0,0.0,0.0,0.0,0.0,0.0,0.0,0.0,0.0,0.0,0.0,0.0,0.0,0.0,0.0,4.1054,4.1054,4.0878,4.0851,4.0992,4.0807,4.076,4.0789,4.0645,4.0623,4.0689,4.0593,4.0549,4.0496,4.0496,4.0666,4.0896,4.0896,4.1431,4.2196,4.2196,4.2739,4.3451,4.3451,4.4008,4.4686,4.4686,4.5109,4.5594,4.5594,4.5594,4.5594,4.5594,4.5594,4.5594,4.5594,4.5594,4.5594,4.5594,4.5594,4.5594,4.5594,4.5594,4.5594,4.5594,4.5594,4.5594,4.5594,4.5594,4.5594,4.5594,4.5594,4.5594,4.5594,4.5594,4.5594,4.5594,4.5594,4.5594,4.5594,4.5594,4.5594,4.5594,4.5594,4.5594,4.5594,4.5594,4.5594,4.5594,4.5594,4.5594,4.5614,4.622,4.6639,2.4525,2.6275,0.0,3.001,3.2857,3.5469,3.6275,0.0,0.0,0.0,0.0,0.0,0.0,0.0,0.0,0.0,0.0,0.0,0.0,0.0,0.0,0.0,0.0,0.0,0.0,0.0,0.0,0.0,0.0,0.0,0.0,0.0,0.0,0.0,0.0,0.0,0.0,0.0,0.0,4.0551,4.0686,4.0807,4.0914,4.0713,4.0639,4.0663,4.0558,4.0541,4.0613,4.0523,4.0496,4.0496,4.0496,4.0496,4.0496,4.0496,4.0839,4.1277,4.1277,4.1854,4.2581,4.2581,4.3143,4.3874,4.4201,4.4667,4.5167,4.5494,4.5594,4.5594,4.5594,4.5594,4.5594,4.5594,4.5594,4.5594,4.5594,4.5594,4.5594,4.5594,4.5594,4.5594,4.5594,4.5594,4.5594,4.5594,4.5594,4.5594,4.5594,4.5594,4.5594,4.5594,4.5594,4.5594,4.5594,4.5594,4.5594,4.5594,4.5594,4.5594,4.5594,4.5594,4.5594,4.5594,4.5594,4.5594,4.5594,4.5594,4.5782,4.6124,4.6658,4.7255,2.5156,2.6729,0.0,3.1431,3.3421,0.0,3.6914,0.0,0.0,0.0,0.0,0.0,0.0,0.0,0.0,0.0,0.0,0.0,0.0,0.0,0.0,0.0,0.0,0.0,0.0,0.0,0.0,0.0,0.0,0.0,0.0,0.0,0.0,0.0,0.0,0.0,0.0,0.0,0.0,0.0,0.0,4.0537,4.055,4.0516,4.0496,4.0496,4.0496,4.0496,4.0496,4.0496,4.0496,4.0496,4.0496,4.0496,4.0496,4.0496,4.0496,4.0496,4.0496,4.1031,4.1677,4.1677,4.2273,4.3124,4.3855,4.4124,4.4378,4.5244,4.5475,4.5494,4.5575,4.5594,4.5594,4.5594,4.5594,4.5594,4.5594,4.5594,4.5594,4.5594,4.5594,4.5594,4.5594,4.5594,4.5594,4.5594,4.5594,4.5594,4.5594,4.5594,4.5594,4.5594,4.5594,4.5594,4.5594,4.5594,4.5594,4.5594,4.5594,4.5594,4.5594,4.5594,4.5594,4.5594,4.5594,4.5594,4.5594,4.5594,4.6052,4.6908,4.6985,4.787,2.5156,2.7203,0.0,0.0,3.3919,3.5976,3.7051,3.6914,0.0,0.0,0.0,0.0,0.0,0.0,0.0,0.0,0.0,0.0,0.0,0.0,0.0,0.0,0.0,0.0,0.0,0.0,0.0,0.0,0.0,0.0,0.0,0.0,0.0,0.0,0.0,0.0,3.8594,3.8633,3.8642,0.0,3.8628,3.8595,3.8649,3.9918,4.0496,4.0496,4.0496,4.0496,4.0496,4.0496,4.0496,4.0496,4.0496,4.0496,4.0496,4.0496,4.0496,4.0496,4.0496,4.0631,4.0781,4.0781,4.1373,4.21,4.2293,4.2816,4.3528,4.4359,4.459,4.4744,4.5417,4.5594,4.5594,4.5594,4.5594,4.5594,4.5594,4.5594,4.5594,4.5594,4.5594,4.5594,4.5594,4.5594,4.5594,4.5594,4.5594,4.5594,4.5594,4.5594,4.5594,4.5594,4.5594,4.5594,4.5594,4.5594,4.5594,4.5594,4.5594,4.5594,4.5594,4.5594,4.5594,4.5594,4.5594,4.5594,4.5594,4.5594,4.6052,4.6928,4.7543,4.8394,2.5604,0.0,0.0,3.3309,0.0,3.6113,3.6562,0.0,0.0,0.0,0.0,0.0,0.0,0.0,0.0,0.0,0.0,0.0,0.0,0.0,0.0,0.0,0.0,0.0,0.0,0.0,0.0,0.0,0.0,0.0,0.0,0.0,0.0,0.0,0.0,0.0,3.7316,3.7627,3.7732,3.767,3.7951,3.8063,3.8027,3.8896,3.9531,3.9938,3.9938,4.015,4.0496,4.0496,4.0496,4.0496,4.0496,4.0496,4.0496,4.0496,4.0496,4.0496,4.0496,4.0496,4.0496,4.0496,4.08,4.1258,4.1677,4.2119,4.2643,4.3489,4.3989,4.4397,4.4859,4.5282,4.5594,4.5594,4.5594,4.5594,4.5594,4.5594,4.5594,4.5594,4.5594,4.5594,4.5594,4.5594,4.5594,4.5594,4.5594,4.5594,4.5594,4.5594,4.5594,4.5594,4.5594,4.5594,4.5594,4.5594,4.5594,4.5594,4.5594,4.5594,4.5594,4.5594,4.5594,4.5594,4.5594,4.5594,4.5594,4.5594,4.6244,4.7485,4.7889,4.8798,2.57,0.0,3.15,3.4745,3.5664,0.0,3.5586,0.0,0.0,0.0,0.0,0.0,0.0,0.0,0.0,0.0,0.0,0.0,0.0,0.0,0.0,0.0,0.0,0.0,0.0,0.0,0.0,0.0,0.0,0.0,0.0,0.0,0.0,0.0,0.0,3.587,3.587,3.6564,3.6864,3.6777,3.7417,3.7681,3.7565,3.7565,3.8123,3.9088,3.9088,3.9454,4.0073,4.0227,4.0285,4.0304,4.0458,4.0496,4.0496,4.0496,4.0496,4.0496,4.0496,4.0496,4.0496,4.0496,4.0496,4.0627,4.1354,4.1581,4.1754,4.2624,4.3355,4.3893,4.4047,4.4724,4.5379,4.5379,4.5494,4.5594,4.5594,4.5594,4.5594,4.5594,4.5594,4.5594,4.5594,4.5594,4.5594,4.5594,4.5594,4.5594,4.5594,4.5594,4.5594,4.5594,4.5594,4.5594,4.5594,4.5594,4.5594,4.5594,4.5594,4.5594,4.5594,4.5594,4.5594,4.5594,4.5594,4.5594,4.5594,4.5594,4.6398,4.7889,4.8043,4.8952,2.4229,0.0,3.1256,0.0,3.4316,3.4687,0.0,0.0,0.0,0.0,0.0,0.0,0.0,0.0,0.0,0.0,0.0,0.0,0.0,0.0,0.0,0.0,0.0,0.0,0.0,0.0,0.0,0.0,0.0,0.0,0.0,0.0,3.5723,3.5723,3.5723,0.0,3.5723,3.5773,3.5791,3.5793,3.5835,3.5854,3.5827,3.5827,3.6696,3.8161,3.8161,3.8238,3.8392,3.9146,3.9454,3.9531,4.0227,4.0496,4.0496,4.0496,4.0496,4.0496,4.0496,4.0496,4.0496,4.0496,4.0496,4.0516,4.0646,4.0666,4.0858,4.1735,4.2043,4.2312,4.3066,4.3855,4.4474,4.4474,4.5051,4.5594,4.5594,4.5594,4.5594,4.5594,4.5594,4.5594,4.5594,4.5594,4.5594,4.5594,4.5594,4.5594,4.5594,4.5594,4.5594,4.5594,4.5594,4.5594,4.5594,4.5594,4.5594,4.5594,4.5594,4.5594,4.5594,4.5594,4.5594,4.5594,4.5594,4.5594,4.5594,4.5594,4.6109,4.7081,4.7774,4.8625,2.5487,2.8193,3.0499,0.0,3.3359,3.375,3.293,0.0,0.0,0.0,0.0,0.0,0.0,0.0,0.0,0.0,0.0,0.0,0.0,0.0,0.0,0.0,0.0,0.0,0.0,0.0,0.0,0.0,0.0,0.0,0.0,3.5606,3.5635,3.5635,3.5635,0.0,3.5635,3.5619,3.5588,3.5537,3.5518,3.55,3.55,3.55,3.6154,3.7273,3.7273,3.7546,3.8027,3.8411,3.8569,3.8665,3.9492,3.9823,3.9881,4.0323,4.0496,4.0496,4.0496,4.0496,4.0496,4.0496,4.0496,4.0496,4.0496,4.0496,4.0573,4.0954,4.1431,4.1889,4.2273,4.3008,4.3624,4.3624,4.4263,4.4878,4.4878,4.5263,4.5594,4.5594,4.5594,4.5594,4.5594,4.5594,4.5594,4.5594,4.5594,4.5594,4.5594,4.5594,4.5594,4.5594,4.5594,4.5594,4.5594,4.5594,4.5594,4.5594,4.5594,4.5594,4.5594,4.5594,4.5594,4.5594,4.5594,4.5594,4.5594,4.5594,4.6052,4.6908,4.7255,4.8144,0.0,0.0,2.8994,3.1035,3.2168,3.2617,0.0,0.0,0.0,0.0,0.0,0.0,0.0,0.0,0.0,0.0,0.0,0.0,0.0,0.0,0.0,0.0,0.0,0.0,0.0,0.0,0.0,0.0,0.0,0.0,3.4854,3.4896,3.49,3.49,3.5132,3.5248,3.5248,3.5458,3.5552,3.55,3.55,3.55,3.55,3.55,3.5827,3.6407,3.6407,3.6754,3.7373,3.7584,3.768,3.7757,3.8627,3.9107,3.9377,3.9977,4.0323,4.0496,4.0496,4.0496,4.0496,4.0496,4.0496,4.0496,4.0496,4.0496,4.0496,4.0496,4.0973,4.1466,4.1466,4.2124,4.2777,4.2777,4.3547,4.4359,4.459,4.5148,4.5594,4.5594,4.5594,4.5594,4.5594,4.5594,4.5594,4.5594,4.5594,4.5594,4.5594,4.5594,4.5594,4.5594,4.5594,4.5594,4.5594,4.5594,4.5594,4.5594,4.5594,4.5594,4.5594,4.5594,4.5594,4.5594,4.5594,4.5594,4.5594,4.5594,4.5936,4.6562,4.6793,4.7678,0.0,2.5139,0.0,2.9082,3.0391,0.0,0.0,0.0,0.0,0.0,0.0,0.0,0.0,0.0,0.0,0.0,0.0,0.0,0.0,0.0,0.0,0.0,0.0,0.0,0.0,0.0,0.0,0.0,0.0,0.0,3.3035,3.3035,3.3038,3.3038,3.383,3.4276,3.4276,3.5094,3.551,3.55,3.55,3.55,3.55,3.55,3.5519,3.5558,3.5558,3.5596,3.5692,3.6442,3.6773,3.685,3.7738,3.8569,3.93,3.9358,3.9842,4.0496,4.0496,4.0496,4.0496,4.0496,4.0496,4.0496,4.0496,4.0496,4.0496,4.0496,4.0535,4.0573,4.0573,4.12,4.1869,4.1869,4.3104,4.4532,4.534,4.5575,4.5594,4.5594,4.5594,4.5594,4.5594,4.5594,4.5594,4.5594,4.5594,4.5594,4.5594,4.5594,4.5594,4.5594,4.5594,4.5594,4.5594,4.5594,4.5594,4.5594,4.5594,4.5594,4.5594,4.5594,4.5594,4.5594,4.5594,4.5594,4.5594,4.5594,4.5614,4.5686,4.6528,4.7351,0.0,0.0,0.0,2.7265,2.8594,0.0,0.0,0.0,0.0,0.0,0.0,0.0,0.0,0.0,0.0,0.0,0.0,0.0,0.0,0.0,0.0,0.0,0.0,0.0,0.0,0.0,0.0,0.0,0.0,0.0,3.29,3.2891,3.2891,3.2891,3.3199,3.3625,3.4186,3.451,3.4949,3.55,3.55,3.55,3.55,3.55,3.55,3.55,3.55,3.55,3.5519,3.5808,3.5923,3.6,3.685,3.735,3.77,3.8257,3.8992,3.9723,3.9723,4.0073,4.0496,4.0496,4.0496,4.0496,4.0496,4.0496,4.0496,4.0496,4.0496,4.0496,4.0496,4.0723,4.1239,4.2374,4.3085,4.3912,4.5302,4.5594,4.5594,4.5594,4.5594,4.5594,4.5594,4.5594,4.5594,4.5594,4.5594,4.5594,4.5594,4.5594,4.5594,4.5594,4.5594,4.5594,4.5594,4.5594,4.5594,4.5594,4.5594,4.5594,4.5594,4.5594,4.5594,4.5594,4.5594,4.5594,4.5594,4.5594,4.5594,4.5614,4.5917,4.6528,2.0519,0.0,0.0,0.0,0.0,0.0,0.0,0.0,0.0,0.0,0.0,0.0,0.0,0.0,0.0,0.0,0.0,0.0,0.0,0.0,0.0,0.0,0.0,0.0,0.0,0.0,0.0,0.0,0.0,0.0,3.2067,3.2061,3.2195,3.2487,3.2506,3.2891,3.376,3.376,3.4199,3.5061,3.5061,3.5215,3.55,3.55,3.55,3.55,3.55,3.55,3.55,3.55,3.55,3.5558,3.6096,3.6462,3.6773,3.735,3.8123,3.8915,3.9204,3.9646,4.015,4.0419,4.0496,4.0496,4.0496,4.0496,4.0496,4.0496,4.0496,4.0496,4.0496,4.0496,4.0935,4.2681,4.3104,4.3566,4.5244,4.5594,4.5594,4.5594,4.5594,4.5594,4.5594,4.5594,4.5594,4.5594,4.5594,4.5594,4.5594,4.5594,4.5594,4.5594,4.5594,4.5594,4.5594,4.5594,4.5594,4.5594,4.5594,4.5594,4.5594,4.5594,4.5594,4.5594,4.5594,4.5594,4.5594,4.5594,4.5594,4.5594,4.5594,4.6206,0.0,0.0,0.0,0.0,0.0,0.0,0.0,0.0,0.0,0.0,0.0,0.0,0.0,0.0,0.0,0.0,0.0,0.0,0.0,0.0,0.0,0.0,0.0,0.0,0.0,0.0,0.0,0.0,0.0,3.0404,3.0404,3.0404,3.0788,3.1638,3.1657,3.2045,3.2852,3.2852,3.3298,3.4167,3.4186,3.4641,3.5462,3.5481,3.55,3.55,3.55,3.55,3.55,3.55,3.55,3.55,3.55,3.5981,3.6657,3.6657,3.7215,3.8084,3.8954,3.9281,3.9434,4.0246,4.0496,4.0496,4.0496,4.0496,4.0496,4.0496,4.0496,4.0496,4.0496,4.0496,4.0935,4.2643,4.3085,4.3547,4.5205,4.5575,4.5594,4.5594,4.5594,4.5594,4.5594,4.5594,4.5594,4.5594,4.5594,4.5594,4.5594,4.5594,4.5594,4.5594,4.5594,4.5594,4.5594,4.5594,4.5594,4.5594,4.5594,4.5594,4.5594,4.5594,4.5594,4.5594,4.5594,4.5594,4.5594,4.5594,4.5594,4.5594,4.5633,4.6513,1.9197,0.0,0.0,0.0,0.0,0.0,0.0,0.0,0.0,0.0,0.0,0.0,0.0,0.0,0.0,0.0,0.0,0.0,0.0,0.0,0.0,0.0,0.0,0.0,0.0,0.0,0.0,0.0,0.0,3.0404,3.0404,3.0404,3.0519,3.075,3.075,3.1176,3.2025,3.2025,3.2449,3.3279,3.3894,3.4337,3.4584,3.5215,3.55,3.55,3.55,3.55,3.55,3.55,3.55,3.55,3.55,3.5635,3.5827,3.5827,3.635,3.7177,3.8065,3.8761,3.9434,4.0246,4.0496,4.0496,4.0496,4.0496,4.0496,4.0496,4.0496,4.0496,4.0496,4.0496,4.0781,4.1893,4.2643,4.3393,4.4436,4.5148,4.5594,4.5594,4.5594,4.5594,4.5594,4.5594,4.5594,4.5594,4.5594,4.5594,4.5594,4.5594,4.5594,4.5594,4.5594,4.5594,4.5594,4.5594,4.5594,4.5594,4.5594,4.5594,4.5594,4.5594,4.5594,4.5594,4.5594,4.5594,4.5594,4.5594,4.5594,4.5614,4.624,4.7101,0.0,0.0,0.0,0.0,0.0,0.0,0.0,0.0,0.0,0.0,0.0,0.0,0.0,0.0,0.0,0.0,0.0,0.0,0.0,0.0,0.0,0.0,0.0,0.0,0.0,0.0,0.0,0.0,3.0422,3.0404,3.0404,3.0404,3.0404,3.0404,3.0404,3.0635,3.1157,3.1157,3.158,3.241,3.291,3.3529,3.4225,3.4737,3.5157,3.55,3.55,3.55,3.55,3.55,3.55,3.55,3.55,3.55,3.55,3.55,3.5808,3.6327,3.7177,3.8027,3.8896,3.9723,4.0227,4.0496,4.0496,4.0496,4.0496,4.0496,4.0496,4.0496,4.0496,4.0496,4.0723,4.1581,4.2196,4.2874,4.4047,4.4705,4.5167,4.5537,4.5594,4.5594,4.5594,4.5594,4.5594,4.5594,4.5594,4.5594,4.5594,4.5594,4.5594,4.5594,4.5594,4.5594,4.5594,4.5594,4.5594,4.5594,4.5594,4.5594,4.5594,4.5594,4.5594,4.5594,4.5594,4.5594,4.5594,4.5594,4.5594,4.5633,4.6836,4.7658,0.0,0.0,0.0,0.0,0.0,0.0,2.4961,2.4609,0.0,0.0,0.0,0.0,0.0,0.0,0.0,0.0,0.0,0.0,0.0,0.0,0.0,0.0,0.0,0.0,0.0,0.0,0.0,3.0492,3.0433,3.0404,3.0404,3.0404,3.0404,3.0404,3.0404,3.0404,3.0404,3.0404,3.0788,3.1561,3.1657,3.2487,3.3933,3.4129,3.4622,3.5365,3.5462,3.55,3.55,3.55,3.55,3.55,3.55,3.55,3.55,3.55,3.55,3.5615,3.6423,3.7273,3.8142,3.9011,3.9842,4.0496,4.0496,4.0496,4.0496,4.0496,4.0496,4.0496,4.0496,4.0496,4.0704,4.1466,4.1735,4.2235,4.3816,4.4239,4.4571,4.5436,4.5594,4.5594,4.5594,4.5594,4.5594,4.5594,4.5594,4.5594,4.5594,4.5594,4.5594,4.5594,4.5594,4.5594,4.5594,4.5594,4.5594,4.5594,4.5594,4.5594,4.5594,4.5594,4.5594,4.5594,4.5594,4.5594,4.5594,4.5594,4.5594,4.5633,4.7221,4.8005,0.0,0.0,0.0,0.0,0.0,0.0,0.0,2.1973,0.0,0.0,0.0,0.0,0.0,0.0,0.0,0.0,0.0,0.0,0.0,0.0,0.0,0.0,0.0,0.0,0.0,0.0,2.9721,3.044,3.0433,3.0404,3.0404,3.0404,3.0404,3.0404,3.0404,3.0404,3.0404,3.0404,3.0481,3.0654,3.1368,3.1872,3.2237,3.3587,3.4298,3.4491,3.5196,3.55,3.55,3.55,3.55,3.55,3.55,3.55,3.55,3.55,3.55,3.5615,3.6423,3.7273,3.8142,3.9011,3.9842,4.0496,4.0496,4.0496,4.0496,4.0496,4.0496,4.0496,4.0496,4.0496,4.0535,4.0704,4.1296,4.2081,4.3104,4.3835,4.4571,4.5436,4.5594,4.5594,4.5594,4.5594,4.5594,4.5594,4.5594,4.5594,4.5594,4.5594,4.5594,4.5594,4.5594,4.5594,4.5594,4.5594,4.5594,4.5594,4.5594,4.5594,4.5594,4.5594,4.5594,4.5594,4.5594,4.5594,4.5594,4.5594,4.5594,4.5614,4.6663,4.7485,0.0,0.0,0.0,2.3359,0.0,0.0,0.0,0.0,0.0,0.0,0.0,0.0,0.0,0.0,0.0,0.0,0.0,0.0,0.0,0.0,0.0,0.0,0.0,0.0,0.0,0.0,2.8993,2.9797,2.9794,2.9945,3.0385,3.0404,3.0404,3.0404,3.0404,3.0404,3.0404,3.0404,3.0404,3.0404,3.0846,3.1272,3.1734,3.2987,3.3798,3.4241,3.5119,3.55,3.55,3.55,3.55,3.55,3.55,3.55,3.55,3.55,3.55,3.5558,3.5962,3.6927,3.8065,3.8511,3.9492,4.0496,4.0496,4.0496,4.0496,4.0496,4.0496,4.0496,4.0496,4.0496,4.0496,4.0496,4.0839,4.1508,4.2816,4.3412,4.409,4.534,4.5594,4.5594,4.5594,4.5594,4.5594,4.5594,4.5594,4.5594,4.5594,4.5594,4.5594,4.5594,4.5594,4.5594,4.5594,4.5594,4.5594,4.5594,4.5594,4.5594,4.5594,4.5594,4.5594,4.5594,4.5594,4.5594,4.5594,4.5594,4.5594,4.5614,4.649,4.7331,0.0,0.0,0.0,0.0,0.0,2.4766,0.0,0.0,0.0,2.4805,0.0,0.0,0.0,0.0,0.0,0.0,0.0,0.0,0.0,0.0,0.0,0.0,0.0,0.0,0.0,0.0,2.8163,2.8919,2.8907,2.9239,3.0099,3.0308,3.0404,3.0404,3.0404,3.0404,3.0404,3.0404,3.0404,3.0404,3.0404,3.0769,3.1484,3.2295,3.3141,3.3991,3.4869,3.5346,3.55,3.55,3.55,3.55,3.55,3.55,3.55,3.55,3.55,3.55,3.55,3.66,3.8007,3.8007,3.9127,4.0496,4.0496,4.0496,4.0496,4.0496,4.0496,4.0496,4.0496,4.0496,4.0496,4.0496,4.0496,4.0973,4.272,4.3104,4.3605,4.5263,4.5594,4.5594,4.5594,4.5594,4.5594,4.5594,4.5594,4.5594,4.5594,4.5594,4.5594,4.5594,4.5594,4.5594,4.5594,4.5594,4.5594,4.5594,4.5594,4.5594,4.5594,4.5594,4.5594,4.5594,4.5594,4.5594,4.5594,4.5594,4.5594,4.5614,4.6317,4.7178,0.0,0.0,0.0,0.0,2.6133,0.0,0.0,0.0,2.3984,2.3496,0.0,0.0,0.0,0.0,0.0,0.0,0.0,0.0,0.0,0.0,0.0,0.0,0.0,0.0,0.0,0.0,0.0,2.8072,2.8078,2.8393,2.9201,2.9984,3.0404,3.0404,3.0404,3.0404,3.0404,3.0404,3.0404,3.0404,3.0404,3.0442,3.0577,3.1445,3.2275,3.3103,3.3971,3.4795,3.55,3.55,3.55,3.55,3.55,3.55,3.55,3.55,3.55,3.55,3.55,3.66,3.8007,3.8007,3.9127,4.0496,4.0496,4.0496,4.0496,4.0496,4.0496,4.0496,4.0496,4.0496,4.0496,4.0496,4.0496,4.0973,4.272,4.3104,4.3605,4.5263,4.5594,4.5594,4.5594,4.5594,4.5594,4.5594,4.5594,4.5594,4.5594,4.5594,4.5594,4.5594,4.5594,4.5594,4.5594,4.5594,4.5594,4.5594,4.5594,4.5594,4.5594,4.5594,4.5594,4.5594,4.5594,4.5594,4.5594,4.5594,4.5594,4.5594,4.5706,4.659,0.0,0.0,0.0,0.0,0.0,0.0,0.0,0.0,2.4434,0.0,0.0,0.0,0.0,0.0,0.0,0.0,0.0,0.0,0.0,0.0,0.0,0.0,0.0,0.0,0.0,0.0,0.0,0.0,0.0,2.7451,2.9737,2.9717,2.9888,3.0385,3.0404,3.0404,3.0404,3.0404,3.0404,3.0404,3.0404,3.0404,3.0423,3.1291,3.2141,3.2949,3.3817,3.4699,3.55,3.55,3.55,3.55,3.55,3.55,3.55,3.55,3.55,3.55,3.55,3.66,3.8161,3.9127,3.9935,4.0496,4.0496,4.0496,4.0496,4.0496,4.0496,4.0496,4.0496,4.0496,4.0496,4.0496,4.0496,4.0973,4.272,4.3104,4.3605,4.5263,4.5594,4.5594,4.5594,4.5594,4.5594,4.5594,4.5594,4.5594,4.5594,4.5594,4.5594,4.5594,4.5594,4.5594,4.5594,4.5594,4.5594,4.5594,4.5594,4.5594,4.5594,4.5594,4.5594,4.5594,4.5594,4.5594,4.5594,4.5594,4.5594,4.5594,4.5594,4.6494,2.918,0.0,0.0,0.0,0.0,0.0,0.0,0.0,0.0,0.0,0.0,0.0,0.0,0.0,0.0,0.0,0.0,0.0,0.0,0.0,0.0,0.0,0.0,0.0,0.0,0.0,0.0,0.0,0.0,0.0,2.9217,2.9198,2.9393,3.0022,3.0288,3.0404,3.0404,3.0404,3.0404,3.0404,3.0404,3.0404,3.0423,3.1061,3.1907,3.2949,3.3567,3.4468,3.55,3.55,3.55,3.55,3.55,3.55,3.55,3.55,3.55,3.55,3.55,3.66,3.8238,3.9704,4.0323,4.0496,4.0496,4.0496,4.0496,4.0496,4.0496,4.0496,4.0496,4.0496,4.0496,4.0496,4.0496,4.0973,4.272,4.3104,4.3605,4.5263,4.5594,4.5594,4.5594,4.5594,4.5594,4.5594,4.5594,4.5594,4.5594,4.5594,4.5594,4.5594,4.5594,4.5594,4.5594,4.5594,4.5594,4.5594,4.5594,4.5594,4.5594,4.5594,4.5594,4.5594,4.5594,4.5594,4.5594,4.5594,4.5594,4.5594,4.5594,4.6494,0.0,0.0,0.0,0.0,0.0,0.0,0.0,0.0,2.6699,0.0,0.0,0.0,0.0,0.0,0.0,0.0,0.0,0.0,0.0,0.0,0.0,0.0,0.0,0.0,0.0,0.0,0.0,0.0,0.0,0.0,2.6664,2.8239,2.9107,2.9146,2.9964,3.0404,3.0404,3.0404,3.0404,3.0404,3.0404,3.0404,3.0404,3.0423,3.1349,3.2891,3.2929,3.3907,3.55,3.55,3.55,3.55,3.55,3.55,3.55,3.55,3.55,3.55,3.55,3.66,3.8142,3.905,3.9881,4.0496,4.0496,4.0496,4.0496,4.0496,4.0496,4.0496,4.0496,4.0496,4.0496,4.0496,4.0496,4.0973,4.272,4.3104,4.3605,4.5263,4.5594,4.5594,4.5594,4.5594,4.5594,4.5594,4.5594,4.5594,4.5594,4.5594,4.5594,4.5594,4.5594,4.5594,4.5594,4.5594,4.5594,4.5594,4.5594,4.5594,4.5594,4.5594,4.5594,4.5594,4.5594,4.5594,4.5594,4.5594,4.5594,4.5594,4.5594,4.6494,0.0,0.0,3.1348,2.9609,0.0,0.0,0.0,0.0,0.0,0.0,0.0,0.0,0.0,0.0,0.0,0.0,0.0,0.0,0.0,0.0,0.0,0.0,0.0,0.0,0.0,0.0,0.0,0.0,0.0,0.0,0.0,2.88,2.9355,2.9945,3.025,3.0404,3.0404,3.0404,3.0404,3.0404,3.0404,3.0404,3.0423,3.1003,3.1868,3.2929,3.351,3.443,3.55,3.55,3.55,3.55,3.55,3.55,3.55,3.55,3.55,3.5654,3.6773,3.7526,3.8238,3.9646,4.0285,4.0496,4.0496,4.0496,4.0496,4.0496,4.0496,4.0496,4.0496,4.0496,4.0496,4.0496,4.0496,4.0973,4.272,4.3104,4.3605,4.5263,4.5594,4.5594,4.5594,4.5594,4.5594,4.5594,4.5594,4.5594,4.5594,4.5594,4.5594,4.5594,4.5594,4.5594,4.5594,4.5594,4.5594,4.5594,4.5594,4.5594,4.5594,4.5594,4.5594,4.5594,4.5594,4.5594,4.5594,4.5594,4.5594,4.5594,4.5594,4.6494,3.0898,3.1309,0.0,0.0,2.9609,0.0,0.0,0.0,0.0,0.0,0.0,0.0,0.0,0.0,0.0,0.0,0.0,0.0,0.0,0.0,0.0,0.0,0.0,0.0,0.0,0.0,2.3968,2.5297,2.4851,0.0,0.0,0.0,2.8736,2.9907,2.9945,3.0099,3.0404,3.0404,3.0404,3.0404,3.0404,3.0404,3.0423,3.1291,3.2141,3.2949,3.3817,3.4699,3.55,3.55,3.55,3.55,3.55,3.55,3.55,3.55,3.55,3.5692,3.7061,3.7738,3.8238,3.9627,4.0265,4.0496,4.0496,4.0496,4.0496,4.0496,4.0496,4.0496,4.0496,4.0496,4.0496,4.0496,4.0496,4.0973,4.272,4.3104,4.3605,4.5263,4.5594,4.5594,4.5594,4.5594,4.5594,4.5594,4.5594,4.5594,4.5594,4.5594,4.5594,4.5594,4.5594,4.5594,4.5594,4.5594,4.5594,4.5594,4.5594,4.5594,4.5594,4.5594,4.5594,4.5594,4.5594,4.5594,4.5594,4.5594,4.5594,4.5594,4.5594,4.6494]}]]